<?xml version="1.0" encoding="UTF-8" standalone="no" ?>
<gpx xmlns="http://www.topografix.com/GPX/1/1" xmlns:xsi="http://www.w3.org/2001/XMLSchema-instance" xsi:schemaLocation="http://www.topografix.com/GPX/1/1 http://www.topografix.com/GPX/1/1/gpx.xsd" version="1.1" creator="VisuGPX - https://www.visugpx.com">
  <metadata>
    <name>Course à pied le midi</name>
  </metadata>
  <trk>
    <name><![CDATA[Course à pied le midi_1]]></name>
    <trkseg>
      <trkpt lat="43.61913" lon="1.30583">
        <ele>180</ele>
        <time>2022-08-02T10:02:14Z</time>
      </trkpt>
      <trkpt lat="43.61913" lon="1.30583">
        <ele>180</ele>
        <time>2022-08-02T10:02:15Z</time>
      </trkpt>
      <trkpt lat="43.61913" lon="1.30583">
        <ele>180</ele>
        <time>2022-08-02T10:02:17Z</time>
      </trkpt>
      <trkpt lat="43.61913" lon="1.30583">
        <ele>179</ele>
        <time>2022-08-02T10:02:18Z</time>
      </trkpt>
      <trkpt lat="43.61913" lon="1.30583">
        <ele>179</ele>
        <time>2022-08-02T10:02:19Z</time>
      </trkpt>
      <trkpt lat="43.61913" lon="1.30583">
        <ele>179</ele>
        <time>2022-08-02T10:02:20Z</time>
      </trkpt>
      <trkpt lat="43.61913" lon="1.30583">
        <ele>179</ele>
        <time>2022-08-02T10:02:21Z</time>
      </trkpt>
      <trkpt lat="43.61913" lon="1.30583">
        <ele>179</ele>
        <time>2022-08-02T10:02:22Z</time>
      </trkpt>
      <trkpt lat="43.61913" lon="1.30583">
        <ele>179</ele>
        <time>2022-08-02T10:02:23Z</time>
      </trkpt>
      <trkpt lat="43.61913" lon="1.30583">
        <ele>179</ele>
        <time>2022-08-02T10:02:24Z</time>
      </trkpt>
      <trkpt lat="43.61913" lon="1.30583">
        <ele>179</ele>
        <time>2022-08-02T10:02:25Z</time>
      </trkpt>
      <trkpt lat="43.61913" lon="1.30583">
        <ele>179</ele>
        <time>2022-08-02T10:02:26Z</time>
      </trkpt>
      <trkpt lat="43.61913" lon="1.30583">
        <ele>179</ele>
        <time>2022-08-02T10:02:27Z</time>
      </trkpt>
      <trkpt lat="43.61913" lon="1.30583">
        <ele>179</ele>
        <time>2022-08-02T10:02:28Z</time>
      </trkpt>
      <trkpt lat="43.61913" lon="1.30583">
        <ele>179</ele>
        <time>2022-08-02T10:02:29Z</time>
      </trkpt>
      <trkpt lat="43.61913" lon="1.30583">
        <ele>179</ele>
        <time>2022-08-02T10:02:30Z</time>
      </trkpt>
      <trkpt lat="43.61913" lon="1.30583">
        <ele>180</ele>
        <time>2022-08-02T10:02:31Z</time>
      </trkpt>
      <trkpt lat="43.61913" lon="1.30583">
        <ele>180</ele>
        <time>2022-08-02T10:02:32Z</time>
      </trkpt>
      <trkpt lat="43.61913" lon="1.30583">
        <ele>180</ele>
        <time>2022-08-02T10:02:33Z</time>
      </trkpt>
      <trkpt lat="43.61913" lon="1.30583">
        <ele>180</ele>
        <time>2022-08-02T10:02:34Z</time>
      </trkpt>
      <trkpt lat="43.61913" lon="1.30583">
        <ele>180</ele>
        <time>2022-08-02T10:02:35Z</time>
      </trkpt>
      <trkpt lat="43.61913" lon="1.30583">
        <ele>180</ele>
        <time>2022-08-02T10:02:36Z</time>
      </trkpt>
      <trkpt lat="43.61913" lon="1.30583">
        <ele>180</ele>
        <time>2022-08-02T10:02:37Z</time>
      </trkpt>
      <trkpt lat="43.61913" lon="1.30583">
        <ele>180</ele>
        <time>2022-08-02T10:02:38Z</time>
      </trkpt>
      <trkpt lat="43.61913" lon="1.30583">
        <ele>180</ele>
        <time>2022-08-02T10:02:39Z</time>
      </trkpt>
      <trkpt lat="43.61913" lon="1.30583">
        <ele>180</ele>
        <time>2022-08-02T10:02:40Z</time>
      </trkpt>
      <trkpt lat="43.61913" lon="1.30583">
        <ele>180</ele>
        <time>2022-08-02T10:02:41Z</time>
      </trkpt>
      <trkpt lat="43.61913" lon="1.30583">
        <ele>180</ele>
        <time>2022-08-02T10:02:42Z</time>
      </trkpt>
      <trkpt lat="43.61913" lon="1.30583">
        <ele>179</ele>
        <time>2022-08-02T10:02:43Z</time>
      </trkpt>
      <trkpt lat="43.61913" lon="1.30583">
        <ele>179</ele>
        <time>2022-08-02T10:02:44Z</time>
      </trkpt>
      <trkpt lat="43.61913" lon="1.30583">
        <ele>179</ele>
        <time>2022-08-02T10:02:45Z</time>
      </trkpt>
      <trkpt lat="43.61925" lon="1.30566">
        <ele>179</ele>
        <time>2022-08-02T10:02:46Z</time>
      </trkpt>
      <trkpt lat="43.61925" lon="1.30566">
        <ele>179</ele>
        <time>2022-08-02T10:02:47Z</time>
      </trkpt>
      <trkpt lat="43.61925" lon="1.30566">
        <ele>179</ele>
        <time>2022-08-02T10:02:48Z</time>
      </trkpt>
      <trkpt lat="43.61925" lon="1.30566">
        <ele>179</ele>
        <time>2022-08-02T10:02:49Z</time>
      </trkpt>
      <trkpt lat="43.61925" lon="1.30566">
        <ele>179</ele>
        <time>2022-08-02T10:02:50Z</time>
      </trkpt>
      <trkpt lat="43.61925" lon="1.30566">
        <ele>179</ele>
        <time>2022-08-02T10:02:51Z</time>
      </trkpt>
      <trkpt lat="43.61939" lon="1.30551">
        <ele>179</ele>
        <time>2022-08-02T10:02:52Z</time>
      </trkpt>
      <trkpt lat="43.61939" lon="1.30551">
        <ele>179</ele>
        <time>2022-08-02T10:02:53Z</time>
      </trkpt>
      <trkpt lat="43.61939" lon="1.30549">
        <ele>179</ele>
        <time>2022-08-02T10:02:54Z</time>
      </trkpt>
      <trkpt lat="43.6194" lon="1.30546">
        <ele>179</ele>
        <time>2022-08-02T10:02:55Z</time>
      </trkpt>
      <trkpt lat="43.61941" lon="1.30543">
        <ele>179</ele>
        <time>2022-08-02T10:02:56Z</time>
      </trkpt>
      <trkpt lat="43.61941" lon="1.3054">
        <ele>179</ele>
        <time>2022-08-02T10:02:57Z</time>
      </trkpt>
      <trkpt lat="43.61942" lon="1.30538">
        <ele>179</ele>
        <time>2022-08-02T10:02:58Z</time>
      </trkpt>
      <trkpt lat="43.61943" lon="1.30536">
        <ele>179</ele>
        <time>2022-08-02T10:02:59Z</time>
      </trkpt>
      <trkpt lat="43.61943" lon="1.30535">
        <ele>179</ele>
        <time>2022-08-02T10:03:00Z</time>
      </trkpt>
      <trkpt lat="43.61944" lon="1.30534">
        <ele>179</ele>
        <time>2022-08-02T10:03:01Z</time>
      </trkpt>
      <trkpt lat="43.61945" lon="1.30533">
        <ele>179</ele>
        <time>2022-08-02T10:03:02Z</time>
      </trkpt>
      <trkpt lat="43.61945" lon="1.30532">
        <ele>179</ele>
        <time>2022-08-02T10:03:03Z</time>
      </trkpt>
      <trkpt lat="43.61946" lon="1.3053">
        <ele>179</ele>
        <time>2022-08-02T10:03:04Z</time>
      </trkpt>
      <trkpt lat="43.61951" lon="1.3052">
        <ele>179</ele>
        <time>2022-08-02T10:03:05Z</time>
      </trkpt>
      <trkpt lat="43.61952" lon="1.30518">
        <ele>179</ele>
        <time>2022-08-02T10:03:06Z</time>
      </trkpt>
      <trkpt lat="43.61953" lon="1.30515">
        <ele>179</ele>
        <time>2022-08-02T10:03:07Z</time>
      </trkpt>
      <trkpt lat="43.61953" lon="1.30513">
        <ele>179</ele>
        <time>2022-08-02T10:03:08Z</time>
      </trkpt>
      <trkpt lat="43.61954" lon="1.30511">
        <ele>179</ele>
        <time>2022-08-02T10:03:09Z</time>
      </trkpt>
      <trkpt lat="43.61955" lon="1.30509">
        <ele>179</ele>
        <time>2022-08-02T10:03:10Z</time>
      </trkpt>
      <trkpt lat="43.61955" lon="1.30508">
        <ele>179</ele>
        <time>2022-08-02T10:03:11Z</time>
      </trkpt>
      <trkpt lat="43.61956" lon="1.30507">
        <ele>179</ele>
        <time>2022-08-02T10:03:12Z</time>
      </trkpt>
      <trkpt lat="43.61957" lon="1.30505">
        <ele>179</ele>
        <time>2022-08-02T10:03:13Z</time>
      </trkpt>
      <trkpt lat="43.61957" lon="1.30504">
        <ele>179</ele>
        <time>2022-08-02T10:03:14Z</time>
      </trkpt>
      <trkpt lat="43.61961" lon="1.30495">
        <ele>179</ele>
        <time>2022-08-02T10:03:15Z</time>
      </trkpt>
      <trkpt lat="43.61962" lon="1.30492">
        <ele>179</ele>
        <time>2022-08-02T10:03:16Z</time>
      </trkpt>
      <trkpt lat="43.61963" lon="1.30489">
        <ele>179</ele>
        <time>2022-08-02T10:03:17Z</time>
      </trkpt>
      <trkpt lat="43.61964" lon="1.30486">
        <ele>179</ele>
        <time>2022-08-02T10:03:18Z</time>
      </trkpt>
      <trkpt lat="43.61965" lon="1.30484">
        <ele>179</ele>
        <time>2022-08-02T10:03:19Z</time>
      </trkpt>
      <trkpt lat="43.61966" lon="1.30483">
        <ele>179</ele>
        <time>2022-08-02T10:03:20Z</time>
      </trkpt>
      <trkpt lat="43.61966" lon="1.30481">
        <ele>179</ele>
        <time>2022-08-02T10:03:21Z</time>
      </trkpt>
      <trkpt lat="43.61967" lon="1.30479">
        <ele>179</ele>
        <time>2022-08-02T10:03:22Z</time>
      </trkpt>
      <trkpt lat="43.61971" lon="1.3047">
        <ele>179</ele>
        <time>2022-08-02T10:03:23Z</time>
      </trkpt>
      <trkpt lat="43.61972" lon="1.30467">
        <ele>179</ele>
        <time>2022-08-02T10:03:24Z</time>
      </trkpt>
      <trkpt lat="43.61973" lon="1.30464">
        <ele>179</ele>
        <time>2022-08-02T10:03:25Z</time>
      </trkpt>
      <trkpt lat="43.61974" lon="1.30461">
        <ele>179</ele>
        <time>2022-08-02T10:03:26Z</time>
      </trkpt>
      <trkpt lat="43.61975" lon="1.30459">
        <ele>179</ele>
        <time>2022-08-02T10:03:27Z</time>
      </trkpt>
      <trkpt lat="43.61975" lon="1.30458">
        <ele>179</ele>
        <time>2022-08-02T10:03:28Z</time>
      </trkpt>
      <trkpt lat="43.61976" lon="1.30456">
        <ele>179</ele>
        <time>2022-08-02T10:03:29Z</time>
      </trkpt>
      <trkpt lat="43.61976" lon="1.30455">
        <ele>179</ele>
        <time>2022-08-02T10:03:30Z</time>
      </trkpt>
      <trkpt lat="43.61976" lon="1.30453">
        <ele>179</ele>
        <time>2022-08-02T10:03:31Z</time>
      </trkpt>
      <trkpt lat="43.61979" lon="1.30442">
        <ele>179</ele>
        <time>2022-08-02T10:03:32Z</time>
      </trkpt>
      <trkpt lat="43.6198" lon="1.30439">
        <ele>180</ele>
        <time>2022-08-02T10:03:33Z</time>
      </trkpt>
      <trkpt lat="43.61981" lon="1.30436">
        <ele>180</ele>
        <time>2022-08-02T10:03:34Z</time>
      </trkpt>
      <trkpt lat="43.61982" lon="1.30433">
        <ele>179</ele>
        <time>2022-08-02T10:03:35Z</time>
      </trkpt>
      <trkpt lat="43.61982" lon="1.30431">
        <ele>180</ele>
        <time>2022-08-02T10:03:36Z</time>
      </trkpt>
      <trkpt lat="43.61982" lon="1.30428">
        <ele>180</ele>
        <time>2022-08-02T10:03:37Z</time>
      </trkpt>
      <trkpt lat="43.61982" lon="1.30425">
        <ele>180</ele>
        <time>2022-08-02T10:03:38Z</time>
      </trkpt>
      <trkpt lat="43.61982" lon="1.30423">
        <ele>179</ele>
        <time>2022-08-02T10:03:39Z</time>
      </trkpt>
      <trkpt lat="43.61982" lon="1.3042">
        <ele>179</ele>
        <time>2022-08-02T10:03:40Z</time>
      </trkpt>
      <trkpt lat="43.61983" lon="1.30417">
        <ele>179</ele>
        <time>2022-08-02T10:03:41Z</time>
      </trkpt>
      <trkpt lat="43.61985" lon="1.30415">
        <ele>179</ele>
        <time>2022-08-02T10:03:42Z</time>
      </trkpt>
      <trkpt lat="43.61986" lon="1.30412">
        <ele>179</ele>
        <time>2022-08-02T10:03:43Z</time>
      </trkpt>
      <trkpt lat="43.61987" lon="1.30409">
        <ele>178</ele>
        <time>2022-08-02T10:03:44Z</time>
      </trkpt>
      <trkpt lat="43.61988" lon="1.30409">
        <ele>179</ele>
        <time>2022-08-02T10:03:45Z</time>
      </trkpt>
      <trkpt lat="43.61989" lon="1.30408">
        <ele>179</ele>
        <time>2022-08-02T10:03:46Z</time>
      </trkpt>
      <trkpt lat="43.6199" lon="1.30407">
        <ele>179</ele>
        <time>2022-08-02T10:03:47Z</time>
      </trkpt>
      <trkpt lat="43.61991" lon="1.30407">
        <ele>179</ele>
        <time>2022-08-02T10:03:48Z</time>
      </trkpt>
      <trkpt lat="43.61992" lon="1.30406">
        <ele>179</ele>
        <time>2022-08-02T10:03:49Z</time>
      </trkpt>
      <trkpt lat="43.61998" lon="1.30403">
        <ele>179</ele>
        <time>2022-08-02T10:03:50Z</time>
      </trkpt>
      <trkpt lat="43.61999" lon="1.30403">
        <ele>179</ele>
        <time>2022-08-02T10:03:51Z</time>
      </trkpt>
      <trkpt lat="43.62" lon="1.30402">
        <ele>179</ele>
        <time>2022-08-02T10:03:52Z</time>
      </trkpt>
      <trkpt lat="43.62001" lon="1.30402">
        <ele>179</ele>
        <time>2022-08-02T10:03:53Z</time>
      </trkpt>
      <trkpt lat="43.62002" lon="1.30402">
        <ele>179</ele>
        <time>2022-08-02T10:03:54Z</time>
      </trkpt>
      <trkpt lat="43.6201" lon="1.30403">
        <ele>179</ele>
        <time>2022-08-02T10:03:55Z</time>
      </trkpt>
      <trkpt lat="43.62013" lon="1.30404">
        <ele>179</ele>
        <time>2022-08-02T10:03:56Z</time>
      </trkpt>
      <trkpt lat="43.62015" lon="1.30405">
        <ele>179</ele>
        <time>2022-08-02T10:03:57Z</time>
      </trkpt>
      <trkpt lat="43.62018" lon="1.30406">
        <ele>179</ele>
        <time>2022-08-02T10:03:58Z</time>
      </trkpt>
      <trkpt lat="43.6202" lon="1.30406">
        <ele>179</ele>
        <time>2022-08-02T10:03:59Z</time>
      </trkpt>
      <trkpt lat="43.62022" lon="1.30407">
        <ele>179</ele>
        <time>2022-08-02T10:04:00Z</time>
      </trkpt>
      <trkpt lat="43.62025" lon="1.30408">
        <ele>179</ele>
        <time>2022-08-02T10:04:01Z</time>
      </trkpt>
      <trkpt lat="43.62027" lon="1.30409">
        <ele>179</ele>
        <time>2022-08-02T10:04:02Z</time>
      </trkpt>
      <trkpt lat="43.62029" lon="1.3041">
        <ele>179</ele>
        <time>2022-08-02T10:04:03Z</time>
      </trkpt>
      <trkpt lat="43.6203" lon="1.3041">
        <ele>179</ele>
        <time>2022-08-02T10:04:04Z</time>
      </trkpt>
      <trkpt lat="43.62031" lon="1.30411">
        <ele>179</ele>
        <time>2022-08-02T10:04:05Z</time>
      </trkpt>
      <trkpt lat="43.62033" lon="1.30411">
        <ele>179</ele>
        <time>2022-08-02T10:04:06Z</time>
      </trkpt>
      <trkpt lat="43.62039" lon="1.30414">
        <ele>179</ele>
        <time>2022-08-02T10:04:07Z</time>
      </trkpt>
      <trkpt lat="43.62048" lon="1.30418">
        <ele>179</ele>
        <time>2022-08-02T10:04:09Z</time>
      </trkpt>
      <trkpt lat="43.62051" lon="1.3042">
        <ele>179</ele>
        <time>2022-08-02T10:04:10Z</time>
      </trkpt>
      <trkpt lat="43.62053" lon="1.30422">
        <ele>178</ele>
        <time>2022-08-02T10:04:11Z</time>
      </trkpt>
      <trkpt lat="43.62056" lon="1.30424">
        <ele>178</ele>
        <time>2022-08-02T10:04:12Z</time>
      </trkpt>
      <trkpt lat="43.62058" lon="1.30426">
        <ele>178</ele>
        <time>2022-08-02T10:04:13Z</time>
      </trkpt>
      <trkpt lat="43.62059" lon="1.30428">
        <ele>178</ele>
        <time>2022-08-02T10:04:14Z</time>
      </trkpt>
      <trkpt lat="43.62061" lon="1.3043">
        <ele>178</ele>
        <time>2022-08-02T10:04:15Z</time>
      </trkpt>
      <trkpt lat="43.62063" lon="1.30432">
        <ele>179</ele>
        <time>2022-08-02T10:04:16Z</time>
      </trkpt>
      <trkpt lat="43.62065" lon="1.30435">
        <ele>179</ele>
        <time>2022-08-02T10:04:17Z</time>
      </trkpt>
      <trkpt lat="43.62066" lon="1.30438">
        <ele>178</ele>
        <time>2022-08-02T10:04:18Z</time>
      </trkpt>
      <trkpt lat="43.62068" lon="1.3044">
        <ele>178</ele>
        <time>2022-08-02T10:04:19Z</time>
      </trkpt>
      <trkpt lat="43.6207" lon="1.30443">
        <ele>178</ele>
        <time>2022-08-02T10:04:20Z</time>
      </trkpt>
      <trkpt lat="43.62072" lon="1.30444">
        <ele>178</ele>
        <time>2022-08-02T10:04:21Z</time>
      </trkpt>
      <trkpt lat="43.62075" lon="1.30446">
        <ele>179</ele>
        <time>2022-08-02T10:04:22Z</time>
      </trkpt>
      <trkpt lat="43.62077" lon="1.30447">
        <ele>179</ele>
        <time>2022-08-02T10:04:23Z</time>
      </trkpt>
      <trkpt lat="43.62079" lon="1.30448">
        <ele>178</ele>
        <time>2022-08-02T10:04:24Z</time>
      </trkpt>
      <trkpt lat="43.62081" lon="1.30449">
        <ele>178</ele>
        <time>2022-08-02T10:04:25Z</time>
      </trkpt>
      <trkpt lat="43.62082" lon="1.3045">
        <ele>178</ele>
        <time>2022-08-02T10:04:26Z</time>
      </trkpt>
      <trkpt lat="43.62084" lon="1.30451">
        <ele>178</ele>
        <time>2022-08-02T10:04:27Z</time>
      </trkpt>
      <trkpt lat="43.62086" lon="1.30452">
        <ele>178</ele>
        <time>2022-08-02T10:04:28Z</time>
      </trkpt>
      <trkpt lat="43.62087" lon="1.30453">
        <ele>178</ele>
        <time>2022-08-02T10:04:29Z</time>
      </trkpt>
      <trkpt lat="43.62089" lon="1.30454">
        <ele>178</ele>
        <time>2022-08-02T10:04:30Z</time>
      </trkpt>
      <trkpt lat="43.62092" lon="1.30456">
        <ele>178</ele>
        <time>2022-08-02T10:04:31Z</time>
      </trkpt>
      <trkpt lat="43.62095" lon="1.30457">
        <ele>178</ele>
        <time>2022-08-02T10:04:32Z</time>
      </trkpt>
      <trkpt lat="43.62098" lon="1.30459">
        <ele>178</ele>
        <time>2022-08-02T10:04:33Z</time>
      </trkpt>
      <trkpt lat="43.621" lon="1.3046">
        <ele>178</ele>
        <time>2022-08-02T10:04:34Z</time>
      </trkpt>
      <trkpt lat="43.62103" lon="1.30461">
        <ele>178</ele>
        <time>2022-08-02T10:04:35Z</time>
      </trkpt>
      <trkpt lat="43.62105" lon="1.30462">
        <ele>178</ele>
        <time>2022-08-02T10:04:36Z</time>
      </trkpt>
      <trkpt lat="43.62107" lon="1.30462">
        <ele>178</ele>
        <time>2022-08-02T10:04:37Z</time>
      </trkpt>
      <trkpt lat="43.6211" lon="1.30463">
        <ele>178</ele>
        <time>2022-08-02T10:04:38Z</time>
      </trkpt>
      <trkpt lat="43.62112" lon="1.30464">
        <ele>179</ele>
        <time>2022-08-02T10:04:39Z</time>
      </trkpt>
      <trkpt lat="43.62114" lon="1.30464">
        <ele>179</ele>
        <time>2022-08-02T10:04:40Z</time>
      </trkpt>
      <trkpt lat="43.62116" lon="1.30465">
        <ele>179</ele>
        <time>2022-08-02T10:04:41Z</time>
      </trkpt>
      <trkpt lat="43.62117" lon="1.30466">
        <ele>179</ele>
        <time>2022-08-02T10:04:42Z</time>
      </trkpt>
      <trkpt lat="43.62119" lon="1.30466">
        <ele>179</ele>
        <time>2022-08-02T10:04:43Z</time>
      </trkpt>
      <trkpt lat="43.6212" lon="1.30467">
        <ele>179</ele>
        <time>2022-08-02T10:04:44Z</time>
      </trkpt>
      <trkpt lat="43.62121" lon="1.30467">
        <ele>178</ele>
        <time>2022-08-02T10:04:45Z</time>
      </trkpt>
      <trkpt lat="43.62129" lon="1.3047">
        <ele>178</ele>
        <time>2022-08-02T10:04:46Z</time>
      </trkpt>
      <trkpt lat="43.62131" lon="1.30472">
        <ele>178</ele>
        <time>2022-08-02T10:04:47Z</time>
      </trkpt>
      <trkpt lat="43.62133" lon="1.30473">
        <ele>178</ele>
        <time>2022-08-02T10:04:48Z</time>
      </trkpt>
      <trkpt lat="43.62135" lon="1.30474">
        <ele>178</ele>
        <time>2022-08-02T10:04:49Z</time>
      </trkpt>
      <trkpt lat="43.62138" lon="1.30475">
        <ele>178</ele>
        <time>2022-08-02T10:04:50Z</time>
      </trkpt>
      <trkpt lat="43.62141" lon="1.30477">
        <ele>178</ele>
        <time>2022-08-02T10:04:51Z</time>
      </trkpt>
      <trkpt lat="43.62144" lon="1.30478">
        <ele>178</ele>
        <time>2022-08-02T10:04:52Z</time>
      </trkpt>
      <trkpt lat="43.62146" lon="1.30479">
        <ele>178</ele>
        <time>2022-08-02T10:04:53Z</time>
      </trkpt>
      <trkpt lat="43.62147" lon="1.3048">
        <ele>178</ele>
        <time>2022-08-02T10:04:54Z</time>
      </trkpt>
      <trkpt lat="43.62148" lon="1.30481">
        <ele>178</ele>
        <time>2022-08-02T10:04:55Z</time>
      </trkpt>
      <trkpt lat="43.6215" lon="1.30482">
        <ele>178</ele>
        <time>2022-08-02T10:04:56Z</time>
      </trkpt>
      <trkpt lat="43.62156" lon="1.30487">
        <ele>178</ele>
        <time>2022-08-02T10:04:57Z</time>
      </trkpt>
      <trkpt lat="43.62157" lon="1.30487">
        <ele>178</ele>
        <time>2022-08-02T10:04:58Z</time>
      </trkpt>
      <trkpt lat="43.62158" lon="1.30488">
        <ele>178</ele>
        <time>2022-08-02T10:04:59Z</time>
      </trkpt>
      <trkpt lat="43.62159" lon="1.30488">
        <ele>178</ele>
        <time>2022-08-02T10:05:00Z</time>
      </trkpt>
      <trkpt lat="43.6216" lon="1.30489">
        <ele>178</ele>
        <time>2022-08-02T10:05:01Z</time>
      </trkpt>
      <trkpt lat="43.62167" lon="1.30492">
        <ele>178</ele>
        <time>2022-08-02T10:05:02Z</time>
      </trkpt>
      <trkpt lat="43.62168" lon="1.30492">
        <ele>178</ele>
        <time>2022-08-02T10:05:03Z</time>
      </trkpt>
      <trkpt lat="43.6217" lon="1.30492">
        <ele>178</ele>
        <time>2022-08-02T10:05:04Z</time>
      </trkpt>
      <trkpt lat="43.62172" lon="1.30493">
        <ele>178</ele>
        <time>2022-08-02T10:05:05Z</time>
      </trkpt>
      <trkpt lat="43.62174" lon="1.30493">
        <ele>178</ele>
        <time>2022-08-02T10:05:06Z</time>
      </trkpt>
      <trkpt lat="43.62176" lon="1.30494">
        <ele>178</ele>
        <time>2022-08-02T10:05:07Z</time>
      </trkpt>
      <trkpt lat="43.62179" lon="1.30496">
        <ele>177</ele>
        <time>2022-08-02T10:05:08Z</time>
      </trkpt>
      <trkpt lat="43.62181" lon="1.30497">
        <ele>177</ele>
        <time>2022-08-02T10:05:09Z</time>
      </trkpt>
      <trkpt lat="43.62183" lon="1.30499">
        <ele>178</ele>
        <time>2022-08-02T10:05:10Z</time>
      </trkpt>
      <trkpt lat="43.62186" lon="1.30499">
        <ele>178</ele>
        <time>2022-08-02T10:05:11Z</time>
      </trkpt>
      <trkpt lat="43.62188" lon="1.305">
        <ele>178</ele>
        <time>2022-08-02T10:05:12Z</time>
      </trkpt>
      <trkpt lat="43.62191" lon="1.30501">
        <ele>178</ele>
        <time>2022-08-02T10:05:13Z</time>
      </trkpt>
      <trkpt lat="43.62193" lon="1.30501">
        <ele>178</ele>
        <time>2022-08-02T10:05:14Z</time>
      </trkpt>
      <trkpt lat="43.62195" lon="1.30502">
        <ele>177</ele>
        <time>2022-08-02T10:05:15Z</time>
      </trkpt>
      <trkpt lat="43.62196" lon="1.30502">
        <ele>178</ele>
        <time>2022-08-02T10:05:16Z</time>
      </trkpt>
      <trkpt lat="43.62197" lon="1.30503">
        <ele>178</ele>
        <time>2022-08-02T10:05:17Z</time>
      </trkpt>
      <trkpt lat="43.62198" lon="1.30504">
        <ele>178</ele>
        <time>2022-08-02T10:05:18Z</time>
      </trkpt>
      <trkpt lat="43.62205" lon="1.30507">
        <ele>178</ele>
        <time>2022-08-02T10:05:19Z</time>
      </trkpt>
      <trkpt lat="43.62208" lon="1.30508">
        <ele>178</ele>
        <time>2022-08-02T10:05:20Z</time>
      </trkpt>
      <trkpt lat="43.6221" lon="1.30509">
        <ele>178</ele>
        <time>2022-08-02T10:05:21Z</time>
      </trkpt>
      <trkpt lat="43.62212" lon="1.3051">
        <ele>178</ele>
        <time>2022-08-02T10:05:22Z</time>
      </trkpt>
      <trkpt lat="43.62214" lon="1.30511">
        <ele>177</ele>
        <time>2022-08-02T10:05:23Z</time>
      </trkpt>
      <trkpt lat="43.62216" lon="1.30512">
        <ele>177</ele>
        <time>2022-08-02T10:05:24Z</time>
      </trkpt>
      <trkpt lat="43.62218" lon="1.30513">
        <ele>177</ele>
        <time>2022-08-02T10:05:25Z</time>
      </trkpt>
      <trkpt lat="43.6222" lon="1.30513">
        <ele>177</ele>
        <time>2022-08-02T10:05:26Z</time>
      </trkpt>
      <trkpt lat="43.62222" lon="1.30514">
        <ele>177</ele>
        <time>2022-08-02T10:05:27Z</time>
      </trkpt>
      <trkpt lat="43.62224" lon="1.30516">
        <ele>177</ele>
        <time>2022-08-02T10:05:28Z</time>
      </trkpt>
      <trkpt lat="43.62226" lon="1.30517">
        <ele>177</ele>
        <time>2022-08-02T10:05:29Z</time>
      </trkpt>
      <trkpt lat="43.62228" lon="1.30518">
        <ele>177</ele>
        <time>2022-08-02T10:05:30Z</time>
      </trkpt>
      <trkpt lat="43.6223" lon="1.30519">
        <ele>177</ele>
        <time>2022-08-02T10:05:31Z</time>
      </trkpt>
      <trkpt lat="43.62231" lon="1.3052">
        <ele>177</ele>
        <time>2022-08-02T10:05:32Z</time>
      </trkpt>
      <trkpt lat="43.62232" lon="1.30521">
        <ele>177</ele>
        <time>2022-08-02T10:05:33Z</time>
      </trkpt>
      <trkpt lat="43.62233" lon="1.30521">
        <ele>177</ele>
        <time>2022-08-02T10:05:34Z</time>
      </trkpt>
      <trkpt lat="43.62233" lon="1.30522">
        <ele>177</ele>
        <time>2022-08-02T10:05:35Z</time>
      </trkpt>
      <trkpt lat="43.62234" lon="1.30522">
        <ele>177</ele>
        <time>2022-08-02T10:05:36Z</time>
      </trkpt>
      <trkpt lat="43.62235" lon="1.30523">
        <ele>176</ele>
        <time>2022-08-02T10:05:37Z</time>
      </trkpt>
      <trkpt lat="43.62242" lon="1.30527">
        <ele>177</ele>
        <time>2022-08-02T10:05:38Z</time>
      </trkpt>
      <trkpt lat="43.62245" lon="1.30528">
        <ele>177</ele>
        <time>2022-08-02T10:05:39Z</time>
      </trkpt>
      <trkpt lat="43.62247" lon="1.30528">
        <ele>177</ele>
        <time>2022-08-02T10:05:40Z</time>
      </trkpt>
      <trkpt lat="43.6225" lon="1.30529">
        <ele>177</ele>
        <time>2022-08-02T10:05:41Z</time>
      </trkpt>
      <trkpt lat="43.62252" lon="1.3053">
        <ele>177</ele>
        <time>2022-08-02T10:05:42Z</time>
      </trkpt>
      <trkpt lat="43.62254" lon="1.30531">
        <ele>177</ele>
        <time>2022-08-02T10:05:43Z</time>
      </trkpt>
      <trkpt lat="43.62257" lon="1.30532">
        <ele>177</ele>
        <time>2022-08-02T10:05:44Z</time>
      </trkpt>
      <trkpt lat="43.62259" lon="1.30533">
        <ele>177</ele>
        <time>2022-08-02T10:05:45Z</time>
      </trkpt>
      <trkpt lat="43.62261" lon="1.30534">
        <ele>177</ele>
        <time>2022-08-02T10:05:46Z</time>
      </trkpt>
      <trkpt lat="43.62263" lon="1.30535">
        <ele>177</ele>
        <time>2022-08-02T10:05:47Z</time>
      </trkpt>
      <trkpt lat="43.62266" lon="1.30537">
        <ele>177</ele>
        <time>2022-08-02T10:05:48Z</time>
      </trkpt>
      <trkpt lat="43.62268" lon="1.30538">
        <ele>177</ele>
        <time>2022-08-02T10:05:49Z</time>
      </trkpt>
      <trkpt lat="43.62269" lon="1.30539">
        <ele>177</ele>
        <time>2022-08-02T10:05:50Z</time>
      </trkpt>
      <trkpt lat="43.6227" lon="1.30539">
        <ele>177</ele>
        <time>2022-08-02T10:05:51Z</time>
      </trkpt>
      <trkpt lat="43.62271" lon="1.3054">
        <ele>176</ele>
        <time>2022-08-02T10:05:52Z</time>
      </trkpt>
      <trkpt lat="43.62272" lon="1.30541">
        <ele>176</ele>
        <time>2022-08-02T10:05:53Z</time>
      </trkpt>
      <trkpt lat="43.62273" lon="1.30541">
        <ele>176</ele>
        <time>2022-08-02T10:05:54Z</time>
      </trkpt>
      <trkpt lat="43.6228" lon="1.30545">
        <ele>176</ele>
        <time>2022-08-02T10:05:55Z</time>
      </trkpt>
      <trkpt lat="43.62282" lon="1.30546">
        <ele>176</ele>
        <time>2022-08-02T10:05:56Z</time>
      </trkpt>
      <trkpt lat="43.62284" lon="1.30547">
        <ele>176</ele>
        <time>2022-08-02T10:05:57Z</time>
      </trkpt>
      <trkpt lat="43.62286" lon="1.30548">
        <ele>177</ele>
        <time>2022-08-02T10:05:58Z</time>
      </trkpt>
      <trkpt lat="43.62291" lon="1.30548">
        <ele>177</ele>
        <time>2022-08-02T10:05:59Z</time>
      </trkpt>
      <trkpt lat="43.62295" lon="1.30549">
        <ele>177</ele>
        <time>2022-08-02T10:06:00Z</time>
      </trkpt>
      <trkpt lat="43.62297" lon="1.3055">
        <ele>177</ele>
        <time>2022-08-02T10:06:01Z</time>
      </trkpt>
      <trkpt lat="43.62299" lon="1.30551">
        <ele>177</ele>
        <time>2022-08-02T10:06:02Z</time>
      </trkpt>
      <trkpt lat="43.62301" lon="1.30552">
        <ele>177</ele>
        <time>2022-08-02T10:06:03Z</time>
      </trkpt>
      <trkpt lat="43.62303" lon="1.30553">
        <ele>176</ele>
        <time>2022-08-02T10:06:04Z</time>
      </trkpt>
      <trkpt lat="43.62305" lon="1.30555">
        <ele>176</ele>
        <time>2022-08-02T10:06:05Z</time>
      </trkpt>
      <trkpt lat="43.62308" lon="1.30556">
        <ele>176</ele>
        <time>2022-08-02T10:06:06Z</time>
      </trkpt>
      <trkpt lat="43.62311" lon="1.30557">
        <ele>176</ele>
        <time>2022-08-02T10:06:07Z</time>
      </trkpt>
      <trkpt lat="43.62314" lon="1.30558">
        <ele>176</ele>
        <time>2022-08-02T10:06:08Z</time>
      </trkpt>
      <trkpt lat="43.62316" lon="1.30559">
        <ele>176</ele>
        <time>2022-08-02T10:06:09Z</time>
      </trkpt>
      <trkpt lat="43.62318" lon="1.3056">
        <ele>176</ele>
        <time>2022-08-02T10:06:10Z</time>
      </trkpt>
      <trkpt lat="43.62321" lon="1.3056">
        <ele>176</ele>
        <time>2022-08-02T10:06:11Z</time>
      </trkpt>
      <trkpt lat="43.62323" lon="1.30561">
        <ele>176</ele>
        <time>2022-08-02T10:06:12Z</time>
      </trkpt>
      <trkpt lat="43.62324" lon="1.30561">
        <ele>176</ele>
        <time>2022-08-02T10:06:13Z</time>
      </trkpt>
      <trkpt lat="43.62324" lon="1.30561">
        <ele>176</ele>
        <time>2022-08-02T10:06:14Z</time>
      </trkpt>
      <trkpt lat="43.62324" lon="1.30561">
        <ele>176</ele>
        <time>2022-08-02T10:06:15Z</time>
      </trkpt>
      <trkpt lat="43.62325" lon="1.30561">
        <ele>176</ele>
        <time>2022-08-02T10:06:16Z</time>
      </trkpt>
      <trkpt lat="43.62325" lon="1.3056">
        <ele>176</ele>
        <time>2022-08-02T10:06:17Z</time>
      </trkpt>
      <trkpt lat="43.62326" lon="1.3056">
        <ele>176</ele>
        <time>2022-08-02T10:06:18Z</time>
      </trkpt>
      <trkpt lat="43.62326" lon="1.3056">
        <ele>176</ele>
        <time>2022-08-02T10:06:19Z</time>
      </trkpt>
      <trkpt lat="43.62326" lon="1.3056">
        <ele>176</ele>
        <time>2022-08-02T10:06:20Z</time>
      </trkpt>
      <trkpt lat="43.62335" lon="1.30558">
        <ele>176</ele>
        <time>2022-08-02T10:06:22Z</time>
      </trkpt>
      <trkpt lat="43.62338" lon="1.30557">
        <ele>176</ele>
        <time>2022-08-02T10:06:23Z</time>
      </trkpt>
      <trkpt lat="43.6234" lon="1.30555">
        <ele>176</ele>
        <time>2022-08-02T10:06:24Z</time>
      </trkpt>
      <trkpt lat="43.62342" lon="1.30554">
        <ele>176</ele>
        <time>2022-08-02T10:06:25Z</time>
      </trkpt>
      <trkpt lat="43.62345" lon="1.30553">
        <ele>176</ele>
        <time>2022-08-02T10:06:26Z</time>
      </trkpt>
      <trkpt lat="43.62348" lon="1.30552">
        <ele>176</ele>
        <time>2022-08-02T10:06:27Z</time>
      </trkpt>
      <trkpt lat="43.62351" lon="1.30551">
        <ele>176</ele>
        <time>2022-08-02T10:06:28Z</time>
      </trkpt>
      <trkpt lat="43.62353" lon="1.30551">
        <ele>176</ele>
        <time>2022-08-02T10:06:29Z</time>
      </trkpt>
      <trkpt lat="43.62354" lon="1.30551">
        <ele>176</ele>
        <time>2022-08-02T10:06:30Z</time>
      </trkpt>
      <trkpt lat="43.62355" lon="1.3055">
        <ele>177</ele>
        <time>2022-08-02T10:06:31Z</time>
      </trkpt>
      <trkpt lat="43.62357" lon="1.3055">
        <ele>177</ele>
        <time>2022-08-02T10:06:32Z</time>
      </trkpt>
      <trkpt lat="43.62364" lon="1.30548">
        <ele>176</ele>
        <time>2022-08-02T10:06:33Z</time>
      </trkpt>
      <trkpt lat="43.62366" lon="1.30547">
        <ele>176</ele>
        <time>2022-08-02T10:06:34Z</time>
      </trkpt>
      <trkpt lat="43.62367" lon="1.30546">
        <ele>176</ele>
        <time>2022-08-02T10:06:35Z</time>
      </trkpt>
      <trkpt lat="43.62374" lon="1.30544">
        <ele>176</ele>
        <time>2022-08-02T10:06:36Z</time>
      </trkpt>
      <trkpt lat="43.62375" lon="1.30544">
        <ele>176</ele>
        <time>2022-08-02T10:06:37Z</time>
      </trkpt>
      <trkpt lat="43.62376" lon="1.30543">
        <ele>176</ele>
        <time>2022-08-02T10:06:38Z</time>
      </trkpt>
      <trkpt lat="43.62377" lon="1.30542">
        <ele>176</ele>
        <time>2022-08-02T10:06:39Z</time>
      </trkpt>
      <trkpt lat="43.62385" lon="1.30539">
        <ele>176</ele>
        <time>2022-08-02T10:06:40Z</time>
      </trkpt>
      <trkpt lat="43.62387" lon="1.30538">
        <ele>176</ele>
        <time>2022-08-02T10:06:41Z</time>
      </trkpt>
      <trkpt lat="43.62389" lon="1.30537">
        <ele>176</ele>
        <time>2022-08-02T10:06:42Z</time>
      </trkpt>
      <trkpt lat="43.62391" lon="1.30536">
        <ele>175</ele>
        <time>2022-08-02T10:06:43Z</time>
      </trkpt>
      <trkpt lat="43.62393" lon="1.30536">
        <ele>175</ele>
        <time>2022-08-02T10:06:44Z</time>
      </trkpt>
      <trkpt lat="43.62395" lon="1.30536">
        <ele>174</ele>
        <time>2022-08-02T10:06:45Z</time>
      </trkpt>
      <trkpt lat="43.62397" lon="1.30536">
        <ele>175</ele>
        <time>2022-08-02T10:06:46Z</time>
      </trkpt>
      <trkpt lat="43.62399" lon="1.30536">
        <ele>175</ele>
        <time>2022-08-02T10:06:47Z</time>
      </trkpt>
      <trkpt lat="43.62401" lon="1.30536">
        <ele>175</ele>
        <time>2022-08-02T10:06:48Z</time>
      </trkpt>
      <trkpt lat="43.62406" lon="1.30535">
        <ele>175</ele>
        <time>2022-08-02T10:06:49Z</time>
      </trkpt>
      <trkpt lat="43.62411" lon="1.30534">
        <ele>174</ele>
        <time>2022-08-02T10:06:50Z</time>
      </trkpt>
      <trkpt lat="43.62412" lon="1.30533">
        <ele>174</ele>
        <time>2022-08-02T10:06:51Z</time>
      </trkpt>
      <trkpt lat="43.62413" lon="1.30533">
        <ele>174</ele>
        <time>2022-08-02T10:06:52Z</time>
      </trkpt>
      <trkpt lat="43.62414" lon="1.30532">
        <ele>174</ele>
        <time>2022-08-02T10:06:53Z</time>
      </trkpt>
      <trkpt lat="43.62415" lon="1.30532">
        <ele>174</ele>
        <time>2022-08-02T10:06:54Z</time>
      </trkpt>
      <trkpt lat="43.62416" lon="1.30531">
        <ele>174</ele>
        <time>2022-08-02T10:06:55Z</time>
      </trkpt>
      <trkpt lat="43.62423" lon="1.30528">
        <ele>174</ele>
        <time>2022-08-02T10:06:56Z</time>
      </trkpt>
      <trkpt lat="43.62425" lon="1.30526">
        <ele>173</ele>
        <time>2022-08-02T10:06:57Z</time>
      </trkpt>
      <trkpt lat="43.62427" lon="1.30525">
        <ele>173</ele>
        <time>2022-08-02T10:06:58Z</time>
      </trkpt>
      <trkpt lat="43.62429" lon="1.30524">
        <ele>173</ele>
        <time>2022-08-02T10:06:59Z</time>
      </trkpt>
      <trkpt lat="43.62431" lon="1.30523">
        <ele>173</ele>
        <time>2022-08-02T10:07:00Z</time>
      </trkpt>
      <trkpt lat="43.62432" lon="1.30523">
        <ele>173</ele>
        <time>2022-08-02T10:07:01Z</time>
      </trkpt>
      <trkpt lat="43.62434" lon="1.30522">
        <ele>173</ele>
        <time>2022-08-02T10:07:02Z</time>
      </trkpt>
      <trkpt lat="43.62436" lon="1.30521">
        <ele>173</ele>
        <time>2022-08-02T10:07:03Z</time>
      </trkpt>
      <trkpt lat="43.62437" lon="1.30521">
        <ele>173</ele>
        <time>2022-08-02T10:07:04Z</time>
      </trkpt>
      <trkpt lat="43.62439" lon="1.3052">
        <ele>173</ele>
        <time>2022-08-02T10:07:05Z</time>
      </trkpt>
      <trkpt lat="43.6244" lon="1.3052">
        <ele>173</ele>
        <time>2022-08-02T10:07:06Z</time>
      </trkpt>
      <trkpt lat="43.62441" lon="1.3052">
        <ele>173</ele>
        <time>2022-08-02T10:07:07Z</time>
      </trkpt>
      <trkpt lat="43.62442" lon="1.30519">
        <ele>173</ele>
        <time>2022-08-02T10:07:08Z</time>
      </trkpt>
      <trkpt lat="43.62443" lon="1.30519">
        <ele>173</ele>
        <time>2022-08-02T10:07:09Z</time>
      </trkpt>
      <trkpt lat="43.62444" lon="1.30518">
        <ele>173</ele>
        <time>2022-08-02T10:07:10Z</time>
      </trkpt>
      <trkpt lat="43.62451" lon="1.30516">
        <ele>173</ele>
        <time>2022-08-02T10:07:11Z</time>
      </trkpt>
      <trkpt lat="43.62453" lon="1.30515">
        <ele>173</ele>
        <time>2022-08-02T10:07:12Z</time>
      </trkpt>
      <trkpt lat="43.62454" lon="1.30515">
        <ele>172</ele>
        <time>2022-08-02T10:07:13Z</time>
      </trkpt>
      <trkpt lat="43.62455" lon="1.30515">
        <ele>172</ele>
        <time>2022-08-02T10:07:14Z</time>
      </trkpt>
      <trkpt lat="43.62463" lon="1.30511">
        <ele>172</ele>
        <time>2022-08-02T10:07:15Z</time>
      </trkpt>
      <trkpt lat="43.62465" lon="1.3051">
        <ele>172</ele>
        <time>2022-08-02T10:07:16Z</time>
      </trkpt>
      <trkpt lat="43.62467" lon="1.30509">
        <ele>172</ele>
        <time>2022-08-02T10:07:17Z</time>
      </trkpt>
      <trkpt lat="43.62469" lon="1.30507">
        <ele>171</ele>
        <time>2022-08-02T10:07:18Z</time>
      </trkpt>
      <trkpt lat="43.6247" lon="1.30506">
        <ele>171</ele>
        <time>2022-08-02T10:07:19Z</time>
      </trkpt>
      <trkpt lat="43.62471" lon="1.30505">
        <ele>171</ele>
        <time>2022-08-02T10:07:20Z</time>
      </trkpt>
      <trkpt lat="43.62472" lon="1.30504">
        <ele>171</ele>
        <time>2022-08-02T10:07:21Z</time>
      </trkpt>
      <trkpt lat="43.62473" lon="1.30503">
        <ele>171</ele>
        <time>2022-08-02T10:07:22Z</time>
      </trkpt>
      <trkpt lat="43.62478" lon="1.30497">
        <ele>171</ele>
        <time>2022-08-02T10:07:23Z</time>
      </trkpt>
      <trkpt lat="43.62478" lon="1.30495">
        <ele>171</ele>
        <time>2022-08-02T10:07:24Z</time>
      </trkpt>
      <trkpt lat="43.62479" lon="1.30493">
        <ele>170</ele>
        <time>2022-08-02T10:07:25Z</time>
      </trkpt>
      <trkpt lat="43.62479" lon="1.30491">
        <ele>170</ele>
        <time>2022-08-02T10:07:26Z</time>
      </trkpt>
      <trkpt lat="43.6248" lon="1.30489">
        <ele>170</ele>
        <time>2022-08-02T10:07:27Z</time>
      </trkpt>
      <trkpt lat="43.6248" lon="1.30487">
        <ele>171</ele>
        <time>2022-08-02T10:07:28Z</time>
      </trkpt>
      <trkpt lat="43.62481" lon="1.30486">
        <ele>171</ele>
        <time>2022-08-02T10:07:29Z</time>
      </trkpt>
      <trkpt lat="43.62482" lon="1.30485">
        <ele>171</ele>
        <time>2022-08-02T10:07:30Z</time>
      </trkpt>
      <trkpt lat="43.62482" lon="1.30484">
        <ele>170</ele>
        <time>2022-08-02T10:07:31Z</time>
      </trkpt>
      <trkpt lat="43.62483" lon="1.30483">
        <ele>170</ele>
        <time>2022-08-02T10:07:32Z</time>
      </trkpt>
      <trkpt lat="43.62483" lon="1.30482">
        <ele>170</ele>
        <time>2022-08-02T10:07:33Z</time>
      </trkpt>
      <trkpt lat="43.62484" lon="1.30481">
        <ele>170</ele>
        <time>2022-08-02T10:07:34Z</time>
      </trkpt>
      <trkpt lat="43.62484" lon="1.3048">
        <ele>170</ele>
        <time>2022-08-02T10:07:35Z</time>
      </trkpt>
      <trkpt lat="43.62489" lon="1.30473">
        <ele>170</ele>
        <time>2022-08-02T10:07:36Z</time>
      </trkpt>
      <trkpt lat="43.6249" lon="1.30472">
        <ele>170</ele>
        <time>2022-08-02T10:07:37Z</time>
      </trkpt>
      <trkpt lat="43.62492" lon="1.30471">
        <ele>170</ele>
        <time>2022-08-02T10:07:38Z</time>
      </trkpt>
      <trkpt lat="43.62493" lon="1.3047">
        <ele>170</ele>
        <time>2022-08-02T10:07:39Z</time>
      </trkpt>
      <trkpt lat="43.625" lon="1.30464">
        <ele>170</ele>
        <time>2022-08-02T10:07:40Z</time>
      </trkpt>
      <trkpt lat="43.62502" lon="1.30463">
        <ele>170</ele>
        <time>2022-08-02T10:07:41Z</time>
      </trkpt>
      <trkpt lat="43.62504" lon="1.30462">
        <ele>169</ele>
        <time>2022-08-02T10:07:42Z</time>
      </trkpt>
      <trkpt lat="43.62511" lon="1.30458">
        <ele>169</ele>
        <time>2022-08-02T10:07:43Z</time>
      </trkpt>
      <trkpt lat="43.62513" lon="1.30457">
        <ele>169</ele>
        <time>2022-08-02T10:07:44Z</time>
      </trkpt>
      <trkpt lat="43.62516" lon="1.30456">
        <ele>169</ele>
        <time>2022-08-02T10:07:45Z</time>
      </trkpt>
      <trkpt lat="43.62523" lon="1.30451">
        <ele>169</ele>
        <time>2022-08-02T10:07:46Z</time>
      </trkpt>
      <trkpt lat="43.62524" lon="1.3045">
        <ele>169</ele>
        <time>2022-08-02T10:07:47Z</time>
      </trkpt>
      <trkpt lat="43.62525" lon="1.30449">
        <ele>169</ele>
        <time>2022-08-02T10:07:48Z</time>
      </trkpt>
      <trkpt lat="43.62526" lon="1.30448">
        <ele>169</ele>
        <time>2022-08-02T10:07:49Z</time>
      </trkpt>
      <trkpt lat="43.62532" lon="1.30442">
        <ele>169</ele>
        <time>2022-08-02T10:07:50Z</time>
      </trkpt>
      <trkpt lat="43.62533" lon="1.3044">
        <ele>169</ele>
        <time>2022-08-02T10:07:51Z</time>
      </trkpt>
      <trkpt lat="43.62534" lon="1.30437">
        <ele>169</ele>
        <time>2022-08-02T10:07:52Z</time>
      </trkpt>
      <trkpt lat="43.62534" lon="1.30435">
        <ele>169</ele>
        <time>2022-08-02T10:07:53Z</time>
      </trkpt>
      <trkpt lat="43.62535" lon="1.30433">
        <ele>169</ele>
        <time>2022-08-02T10:07:54Z</time>
      </trkpt>
      <trkpt lat="43.62537" lon="1.30432">
        <ele>169</ele>
        <time>2022-08-02T10:07:55Z</time>
      </trkpt>
      <trkpt lat="43.62538" lon="1.30431">
        <ele>169</ele>
        <time>2022-08-02T10:07:56Z</time>
      </trkpt>
      <trkpt lat="43.6254" lon="1.30429">
        <ele>169</ele>
        <time>2022-08-02T10:07:57Z</time>
      </trkpt>
      <trkpt lat="43.62546" lon="1.30425">
        <ele>169</ele>
        <time>2022-08-02T10:07:58Z</time>
      </trkpt>
      <trkpt lat="43.62546" lon="1.30424">
        <ele>168</ele>
        <time>2022-08-02T10:07:59Z</time>
      </trkpt>
      <trkpt lat="43.62547" lon="1.30422">
        <ele>168</ele>
        <time>2022-08-02T10:08:00Z</time>
      </trkpt>
      <trkpt lat="43.62548" lon="1.30421">
        <ele>167</ele>
        <time>2022-08-02T10:08:01Z</time>
      </trkpt>
      <trkpt lat="43.62553" lon="1.30414">
        <ele>167</ele>
        <time>2022-08-02T10:08:02Z</time>
      </trkpt>
      <trkpt lat="43.62555" lon="1.30413">
        <ele>167</ele>
        <time>2022-08-02T10:08:03Z</time>
      </trkpt>
      <trkpt lat="43.62556" lon="1.30411">
        <ele>167</ele>
        <time>2022-08-02T10:08:04Z</time>
      </trkpt>
      <trkpt lat="43.62561" lon="1.30404">
        <ele>167</ele>
        <time>2022-08-02T10:08:05Z</time>
      </trkpt>
      <trkpt lat="43.62561" lon="1.30402">
        <ele>167</ele>
        <time>2022-08-02T10:08:06Z</time>
      </trkpt>
      <trkpt lat="43.62562" lon="1.304">
        <ele>167</ele>
        <time>2022-08-02T10:08:07Z</time>
      </trkpt>
      <trkpt lat="43.62563" lon="1.30398">
        <ele>167</ele>
        <time>2022-08-02T10:08:08Z</time>
      </trkpt>
      <trkpt lat="43.62564" lon="1.30396">
        <ele>166</ele>
        <time>2022-08-02T10:08:09Z</time>
      </trkpt>
      <trkpt lat="43.62564" lon="1.30393">
        <ele>166</ele>
        <time>2022-08-02T10:08:10Z</time>
      </trkpt>
      <trkpt lat="43.62566" lon="1.30391">
        <ele>166</ele>
        <time>2022-08-02T10:08:11Z</time>
      </trkpt>
      <trkpt lat="43.62567" lon="1.30388">
        <ele>166</ele>
        <time>2022-08-02T10:08:12Z</time>
      </trkpt>
      <trkpt lat="43.62568" lon="1.30385">
        <ele>166</ele>
        <time>2022-08-02T10:08:13Z</time>
      </trkpt>
      <trkpt lat="43.62569" lon="1.30382">
        <ele>166</ele>
        <time>2022-08-02T10:08:14Z</time>
      </trkpt>
      <trkpt lat="43.62571" lon="1.30381">
        <ele>165</ele>
        <time>2022-08-02T10:08:15Z</time>
      </trkpt>
      <trkpt lat="43.62572" lon="1.3038">
        <ele>165</ele>
        <time>2022-08-02T10:08:16Z</time>
      </trkpt>
      <trkpt lat="43.62573" lon="1.30378">
        <ele>165</ele>
        <time>2022-08-02T10:08:17Z</time>
      </trkpt>
      <trkpt lat="43.62575" lon="1.30377">
        <ele>165</ele>
        <time>2022-08-02T10:08:18Z</time>
      </trkpt>
      <trkpt lat="43.62576" lon="1.30376">
        <ele>165</ele>
        <time>2022-08-02T10:08:19Z</time>
      </trkpt>
      <trkpt lat="43.62577" lon="1.30374">
        <ele>165</ele>
        <time>2022-08-02T10:08:20Z</time>
      </trkpt>
      <trkpt lat="43.6258" lon="1.30372">
        <ele>164</ele>
        <time>2022-08-02T10:08:21Z</time>
      </trkpt>
      <trkpt lat="43.62583" lon="1.30369">
        <ele>164</ele>
        <time>2022-08-02T10:08:22Z</time>
      </trkpt>
      <trkpt lat="43.62586" lon="1.30366">
        <ele>164</ele>
        <time>2022-08-02T10:08:23Z</time>
      </trkpt>
      <trkpt lat="43.62588" lon="1.30364">
        <ele>164</ele>
        <time>2022-08-02T10:08:24Z</time>
      </trkpt>
      <trkpt lat="43.62591" lon="1.30361">
        <ele>164</ele>
        <time>2022-08-02T10:08:25Z</time>
      </trkpt>
      <trkpt lat="43.62594" lon="1.30359">
        <ele>164</ele>
        <time>2022-08-02T10:08:26Z</time>
      </trkpt>
      <trkpt lat="43.62597" lon="1.30357">
        <ele>164</ele>
        <time>2022-08-02T10:08:27Z</time>
      </trkpt>
      <trkpt lat="43.626" lon="1.30355">
        <ele>164</ele>
        <time>2022-08-02T10:08:28Z</time>
      </trkpt>
      <trkpt lat="43.62602" lon="1.30353">
        <ele>163</ele>
        <time>2022-08-02T10:08:29Z</time>
      </trkpt>
      <trkpt lat="43.62605" lon="1.3035">
        <ele>163</ele>
        <time>2022-08-02T10:08:30Z</time>
      </trkpt>
      <trkpt lat="43.62608" lon="1.30348">
        <ele>163</ele>
        <time>2022-08-02T10:08:31Z</time>
      </trkpt>
      <trkpt lat="43.6261" lon="1.30346">
        <ele>163</ele>
        <time>2022-08-02T10:08:32Z</time>
      </trkpt>
      <trkpt lat="43.62613" lon="1.30344">
        <ele>163</ele>
        <time>2022-08-02T10:08:33Z</time>
      </trkpt>
      <trkpt lat="43.62615" lon="1.30343">
        <ele>163</ele>
        <time>2022-08-02T10:08:34Z</time>
      </trkpt>
      <trkpt lat="43.62617" lon="1.30341">
        <ele>162</ele>
        <time>2022-08-02T10:08:35Z</time>
      </trkpt>
      <trkpt lat="43.62619" lon="1.3034">
        <ele>162</ele>
        <time>2022-08-02T10:08:36Z</time>
      </trkpt>
      <trkpt lat="43.62621" lon="1.30338">
        <ele>162</ele>
        <time>2022-08-02T10:08:37Z</time>
      </trkpt>
      <trkpt lat="43.62623" lon="1.30336">
        <ele>162</ele>
        <time>2022-08-02T10:08:38Z</time>
      </trkpt>
      <trkpt lat="43.62624" lon="1.30333">
        <ele>161</ele>
        <time>2022-08-02T10:08:39Z</time>
      </trkpt>
      <trkpt lat="43.62626" lon="1.30331">
        <ele>161</ele>
        <time>2022-08-02T10:08:40Z</time>
      </trkpt>
      <trkpt lat="43.62627" lon="1.30328">
        <ele>161</ele>
        <time>2022-08-02T10:08:41Z</time>
      </trkpt>
      <trkpt lat="43.62628" lon="1.30327">
        <ele>160</ele>
        <time>2022-08-02T10:08:42Z</time>
      </trkpt>
      <trkpt lat="43.62629" lon="1.30326">
        <ele>160</ele>
        <time>2022-08-02T10:08:43Z</time>
      </trkpt>
      <trkpt lat="43.62631" lon="1.30326">
        <ele>160</ele>
        <time>2022-08-02T10:08:44Z</time>
      </trkpt>
      <trkpt lat="43.62632" lon="1.30325">
        <ele>160</ele>
        <time>2022-08-02T10:08:45Z</time>
      </trkpt>
      <trkpt lat="43.62638" lon="1.30319">
        <ele>160</ele>
        <time>2022-08-02T10:08:46Z</time>
      </trkpt>
      <trkpt lat="43.6264" lon="1.30317">
        <ele>160</ele>
        <time>2022-08-02T10:08:47Z</time>
      </trkpt>
      <trkpt lat="43.62642" lon="1.30315">
        <ele>159</ele>
        <time>2022-08-02T10:08:48Z</time>
      </trkpt>
      <trkpt lat="43.62644" lon="1.30313">
        <ele>159</ele>
        <time>2022-08-02T10:08:49Z</time>
      </trkpt>
      <trkpt lat="43.62645" lon="1.30312">
        <ele>158</ele>
        <time>2022-08-02T10:08:50Z</time>
      </trkpt>
      <trkpt lat="43.62646" lon="1.30311">
        <ele>159</ele>
        <time>2022-08-02T10:08:51Z</time>
      </trkpt>
      <trkpt lat="43.62646" lon="1.3031">
        <ele>159</ele>
        <time>2022-08-02T10:08:52Z</time>
      </trkpt>
      <trkpt lat="43.62647" lon="1.30309">
        <ele>159</ele>
        <time>2022-08-02T10:08:53Z</time>
      </trkpt>
      <trkpt lat="43.62648" lon="1.30308">
        <ele>159</ele>
        <time>2022-08-02T10:08:54Z</time>
      </trkpt>
      <trkpt lat="43.62648" lon="1.30308">
        <ele>158</ele>
        <time>2022-08-02T10:08:55Z</time>
      </trkpt>
      <trkpt lat="43.62653" lon="1.30301">
        <ele>158</ele>
        <time>2022-08-02T10:08:56Z</time>
      </trkpt>
      <trkpt lat="43.62655" lon="1.303">
        <ele>158</ele>
        <time>2022-08-02T10:08:57Z</time>
      </trkpt>
      <trkpt lat="43.62656" lon="1.30299">
        <ele>158</ele>
        <time>2022-08-02T10:08:58Z</time>
      </trkpt>
      <trkpt lat="43.62657" lon="1.30298">
        <ele>158</ele>
        <time>2022-08-02T10:08:59Z</time>
      </trkpt>
      <trkpt lat="43.62663" lon="1.30293">
        <ele>158</ele>
        <time>2022-08-02T10:09:00Z</time>
      </trkpt>
      <trkpt lat="43.62664" lon="1.30292">
        <ele>158</ele>
        <time>2022-08-02T10:09:01Z</time>
      </trkpt>
      <trkpt lat="43.62665" lon="1.30291">
        <ele>158</ele>
        <time>2022-08-02T10:09:02Z</time>
      </trkpt>
      <trkpt lat="43.62666" lon="1.3029">
        <ele>157</ele>
        <time>2022-08-02T10:09:03Z</time>
      </trkpt>
      <trkpt lat="43.62671" lon="1.30284">
        <ele>157</ele>
        <time>2022-08-02T10:09:04Z</time>
      </trkpt>
      <trkpt lat="43.62672" lon="1.30283">
        <ele>157</ele>
        <time>2022-08-02T10:09:05Z</time>
      </trkpt>
      <trkpt lat="43.62673" lon="1.30282">
        <ele>156</ele>
        <time>2022-08-02T10:09:06Z</time>
      </trkpt>
      <trkpt lat="43.62674" lon="1.30281">
        <ele>156</ele>
        <time>2022-08-02T10:09:07Z</time>
      </trkpt>
      <trkpt lat="43.62681" lon="1.30275">
        <ele>156</ele>
        <time>2022-08-02T10:09:08Z</time>
      </trkpt>
      <trkpt lat="43.62683" lon="1.30273">
        <ele>156</ele>
        <time>2022-08-02T10:09:09Z</time>
      </trkpt>
      <trkpt lat="43.62685" lon="1.30271">
        <ele>156</ele>
        <time>2022-08-02T10:09:10Z</time>
      </trkpt>
      <trkpt lat="43.62687" lon="1.30269">
        <ele>156</ele>
        <time>2022-08-02T10:09:11Z</time>
      </trkpt>
      <trkpt lat="43.62688" lon="1.30268">
        <ele>156</ele>
        <time>2022-08-02T10:09:12Z</time>
      </trkpt>
      <trkpt lat="43.62689" lon="1.30267">
        <ele>156</ele>
        <time>2022-08-02T10:09:13Z</time>
      </trkpt>
      <trkpt lat="43.6269" lon="1.30266">
        <ele>156</ele>
        <time>2022-08-02T10:09:14Z</time>
      </trkpt>
      <trkpt lat="43.62692" lon="1.30265">
        <ele>155</ele>
        <time>2022-08-02T10:09:15Z</time>
      </trkpt>
      <trkpt lat="43.62698" lon="1.30259">
        <ele>155</ele>
        <time>2022-08-02T10:09:16Z</time>
      </trkpt>
      <trkpt lat="43.62699" lon="1.30258">
        <ele>155</ele>
        <time>2022-08-02T10:09:17Z</time>
      </trkpt>
      <trkpt lat="43.627" lon="1.30257">
        <ele>155</ele>
        <time>2022-08-02T10:09:18Z</time>
      </trkpt>
      <trkpt lat="43.62702" lon="1.30256">
        <ele>155</ele>
        <time>2022-08-02T10:09:19Z</time>
      </trkpt>
      <trkpt lat="43.6271" lon="1.30249">
        <ele>155</ele>
        <time>2022-08-02T10:09:20Z</time>
      </trkpt>
      <trkpt lat="43.62713" lon="1.30246">
        <ele>155</ele>
        <time>2022-08-02T10:09:21Z</time>
      </trkpt>
      <trkpt lat="43.62716" lon="1.30244">
        <ele>155</ele>
        <time>2022-08-02T10:09:22Z</time>
      </trkpt>
      <trkpt lat="43.62716" lon="1.30243">
        <ele>155</ele>
        <time>2022-08-02T10:09:23Z</time>
      </trkpt>
      <trkpt lat="43.62717" lon="1.30242">
        <ele>154</ele>
        <time>2022-08-02T10:09:24Z</time>
      </trkpt>
      <trkpt lat="43.62718" lon="1.3024">
        <ele>154</ele>
        <time>2022-08-02T10:09:25Z</time>
      </trkpt>
      <trkpt lat="43.62718" lon="1.30239">
        <ele>154</ele>
        <time>2022-08-02T10:09:26Z</time>
      </trkpt>
      <trkpt lat="43.62719" lon="1.30238">
        <ele>154</ele>
        <time>2022-08-02T10:09:27Z</time>
      </trkpt>
      <trkpt lat="43.62723" lon="1.30232">
        <ele>153</ele>
        <time>2022-08-02T10:09:28Z</time>
      </trkpt>
      <trkpt lat="43.62724" lon="1.30231">
        <ele>153</ele>
        <time>2022-08-02T10:09:29Z</time>
      </trkpt>
      <trkpt lat="43.62724" lon="1.3023">
        <ele>153</ele>
        <time>2022-08-02T10:09:30Z</time>
      </trkpt>
      <trkpt lat="43.62724" lon="1.30229">
        <ele>152</ele>
        <time>2022-08-02T10:09:31Z</time>
      </trkpt>
      <trkpt lat="43.62725" lon="1.30229">
        <ele>152</ele>
        <time>2022-08-02T10:09:32Z</time>
      </trkpt>
      <trkpt lat="43.62725" lon="1.30228">
        <ele>152</ele>
        <time>2022-08-02T10:09:33Z</time>
      </trkpt>
      <trkpt lat="43.62725" lon="1.30227">
        <ele>152</ele>
        <time>2022-08-02T10:09:34Z</time>
      </trkpt>
      <trkpt lat="43.62726" lon="1.30226">
        <ele>152</ele>
        <time>2022-08-02T10:09:35Z</time>
      </trkpt>
      <trkpt lat="43.6273" lon="1.30218">
        <ele>152</ele>
        <time>2022-08-02T10:09:36Z</time>
      </trkpt>
      <trkpt lat="43.62732" lon="1.30217">
        <ele>152</ele>
        <time>2022-08-02T10:09:37Z</time>
      </trkpt>
      <trkpt lat="43.62734" lon="1.30215">
        <ele>152</ele>
        <time>2022-08-02T10:09:38Z</time>
      </trkpt>
      <trkpt lat="43.62735" lon="1.30214">
        <ele>152</ele>
        <time>2022-08-02T10:09:39Z</time>
      </trkpt>
      <trkpt lat="43.62737" lon="1.30212">
        <ele>152</ele>
        <time>2022-08-02T10:09:40Z</time>
      </trkpt>
      <trkpt lat="43.62738" lon="1.30212">
        <ele>152</ele>
        <time>2022-08-02T10:09:41Z</time>
      </trkpt>
      <trkpt lat="43.62739" lon="1.30211">
        <ele>152</ele>
        <time>2022-08-02T10:09:42Z</time>
      </trkpt>
      <trkpt lat="43.62741" lon="1.30211">
        <ele>151</ele>
        <time>2022-08-02T10:09:43Z</time>
      </trkpt>
      <trkpt lat="43.62742" lon="1.3021">
        <ele>152</ele>
        <time>2022-08-02T10:09:44Z</time>
      </trkpt>
      <trkpt lat="43.62749" lon="1.30209">
        <ele>152</ele>
        <time>2022-08-02T10:09:45Z</time>
      </trkpt>
      <trkpt lat="43.6275" lon="1.30209">
        <ele>151</ele>
        <time>2022-08-02T10:09:46Z</time>
      </trkpt>
      <trkpt lat="43.62751" lon="1.30209">
        <ele>152</ele>
        <time>2022-08-02T10:09:47Z</time>
      </trkpt>
      <trkpt lat="43.62753" lon="1.30209">
        <ele>152</ele>
        <time>2022-08-02T10:09:48Z</time>
      </trkpt>
      <trkpt lat="43.62761" lon="1.30211">
        <ele>151</ele>
        <time>2022-08-02T10:09:49Z</time>
      </trkpt>
      <trkpt lat="43.62764" lon="1.30212">
        <ele>151</ele>
        <time>2022-08-02T10:09:50Z</time>
      </trkpt>
      <trkpt lat="43.62767" lon="1.30213">
        <ele>151</ele>
        <time>2022-08-02T10:09:51Z</time>
      </trkpt>
      <trkpt lat="43.6277" lon="1.30215">
        <ele>151</ele>
        <time>2022-08-02T10:09:52Z</time>
      </trkpt>
      <trkpt lat="43.62773" lon="1.30216">
        <ele>151</ele>
        <time>2022-08-02T10:09:53Z</time>
      </trkpt>
      <trkpt lat="43.62776" lon="1.30217">
        <ele>151</ele>
        <time>2022-08-02T10:09:54Z</time>
      </trkpt>
      <trkpt lat="43.62778" lon="1.30219">
        <ele>151</ele>
        <time>2022-08-02T10:09:55Z</time>
      </trkpt>
      <trkpt lat="43.6278" lon="1.3022">
        <ele>151</ele>
        <time>2022-08-02T10:09:56Z</time>
      </trkpt>
      <trkpt lat="43.62782" lon="1.30222">
        <ele>151</ele>
        <time>2022-08-02T10:09:57Z</time>
      </trkpt>
      <trkpt lat="43.62785" lon="1.30224">
        <ele>151</ele>
        <time>2022-08-02T10:09:58Z</time>
      </trkpt>
      <trkpt lat="43.62787" lon="1.30225">
        <ele>151</ele>
        <time>2022-08-02T10:09:59Z</time>
      </trkpt>
      <trkpt lat="43.62789" lon="1.30226">
        <ele>151</ele>
        <time>2022-08-02T10:10:00Z</time>
      </trkpt>
      <trkpt lat="43.62791" lon="1.30227">
        <ele>151</ele>
        <time>2022-08-02T10:10:01Z</time>
      </trkpt>
      <trkpt lat="43.62793" lon="1.30228">
        <ele>151</ele>
        <time>2022-08-02T10:10:02Z</time>
      </trkpt>
      <trkpt lat="43.62796" lon="1.30229">
        <ele>151</ele>
        <time>2022-08-02T10:10:03Z</time>
      </trkpt>
      <trkpt lat="43.62798" lon="1.3023">
        <ele>151</ele>
        <time>2022-08-02T10:10:04Z</time>
      </trkpt>
      <trkpt lat="43.628" lon="1.30231">
        <ele>151</ele>
        <time>2022-08-02T10:10:05Z</time>
      </trkpt>
      <trkpt lat="43.62803" lon="1.30231">
        <ele>151</ele>
        <time>2022-08-02T10:10:06Z</time>
      </trkpt>
      <trkpt lat="43.62804" lon="1.30232">
        <ele>151</ele>
        <time>2022-08-02T10:10:07Z</time>
      </trkpt>
      <trkpt lat="43.62805" lon="1.30233">
        <ele>151</ele>
        <time>2022-08-02T10:10:08Z</time>
      </trkpt>
      <trkpt lat="43.62807" lon="1.30233">
        <ele>151</ele>
        <time>2022-08-02T10:10:09Z</time>
      </trkpt>
      <trkpt lat="43.62808" lon="1.30234">
        <ele>151</ele>
        <time>2022-08-02T10:10:10Z</time>
      </trkpt>
      <trkpt lat="43.62815" lon="1.30237">
        <ele>151</ele>
        <time>2022-08-02T10:10:11Z</time>
      </trkpt>
      <trkpt lat="43.62818" lon="1.30238">
        <ele>151</ele>
        <time>2022-08-02T10:10:12Z</time>
      </trkpt>
      <trkpt lat="43.6282" lon="1.30239">
        <ele>151</ele>
        <time>2022-08-02T10:10:13Z</time>
      </trkpt>
      <trkpt lat="43.62822" lon="1.30239">
        <ele>150</ele>
        <time>2022-08-02T10:10:14Z</time>
      </trkpt>
      <trkpt lat="43.62824" lon="1.3024">
        <ele>150</ele>
        <time>2022-08-02T10:10:15Z</time>
      </trkpt>
      <trkpt lat="43.62826" lon="1.30241">
        <ele>150</ele>
        <time>2022-08-02T10:10:16Z</time>
      </trkpt>
      <trkpt lat="43.62828" lon="1.30242">
        <ele>150</ele>
        <time>2022-08-02T10:10:17Z</time>
      </trkpt>
      <trkpt lat="43.6283" lon="1.30243">
        <ele>150</ele>
        <time>2022-08-02T10:10:18Z</time>
      </trkpt>
      <trkpt lat="43.62832" lon="1.30244">
        <ele>150</ele>
        <time>2022-08-02T10:10:19Z</time>
      </trkpt>
      <trkpt lat="43.62835" lon="1.30245">
        <ele>150</ele>
        <time>2022-08-02T10:10:20Z</time>
      </trkpt>
      <trkpt lat="43.62837" lon="1.30247">
        <ele>150</ele>
        <time>2022-08-02T10:10:21Z</time>
      </trkpt>
      <trkpt lat="43.6284" lon="1.30248">
        <ele>151</ele>
        <time>2022-08-02T10:10:22Z</time>
      </trkpt>
      <trkpt lat="43.62842" lon="1.30249">
        <ele>151</ele>
        <time>2022-08-02T10:10:23Z</time>
      </trkpt>
      <trkpt lat="43.62843" lon="1.3025">
        <ele>151</ele>
        <time>2022-08-02T10:10:24Z</time>
      </trkpt>
      <trkpt lat="43.62844" lon="1.30251">
        <ele>151</ele>
        <time>2022-08-02T10:10:25Z</time>
      </trkpt>
      <trkpt lat="43.62845" lon="1.30251">
        <ele>151</ele>
        <time>2022-08-02T10:10:26Z</time>
      </trkpt>
      <trkpt lat="43.62851" lon="1.30255">
        <ele>151</ele>
        <time>2022-08-02T10:10:27Z</time>
      </trkpt>
      <trkpt lat="43.62853" lon="1.30256">
        <ele>151</ele>
        <time>2022-08-02T10:10:28Z</time>
      </trkpt>
      <trkpt lat="43.62854" lon="1.30257">
        <ele>151</ele>
        <time>2022-08-02T10:10:29Z</time>
      </trkpt>
      <trkpt lat="43.62856" lon="1.30258">
        <ele>151</ele>
        <time>2022-08-02T10:10:30Z</time>
      </trkpt>
      <trkpt lat="43.62857" lon="1.30259">
        <ele>151</ele>
        <time>2022-08-02T10:10:31Z</time>
      </trkpt>
      <trkpt lat="43.62859" lon="1.3026">
        <ele>151</ele>
        <time>2022-08-02T10:10:32Z</time>
      </trkpt>
      <trkpt lat="43.6286" lon="1.3026">
        <ele>151</ele>
        <time>2022-08-02T10:10:33Z</time>
      </trkpt>
      <trkpt lat="43.62861" lon="1.30261">
        <ele>151</ele>
        <time>2022-08-02T10:10:34Z</time>
      </trkpt>
      <trkpt lat="43.62862" lon="1.30262">
        <ele>151</ele>
        <time>2022-08-02T10:10:35Z</time>
      </trkpt>
      <trkpt lat="43.62863" lon="1.30262">
        <ele>151</ele>
        <time>2022-08-02T10:10:36Z</time>
      </trkpt>
      <trkpt lat="43.62864" lon="1.30263">
        <ele>151</ele>
        <time>2022-08-02T10:10:37Z</time>
      </trkpt>
      <trkpt lat="43.6287" lon="1.30267">
        <ele>151</ele>
        <time>2022-08-02T10:10:38Z</time>
      </trkpt>
      <trkpt lat="43.62872" lon="1.30267">
        <ele>151</ele>
        <time>2022-08-02T10:10:39Z</time>
      </trkpt>
      <trkpt lat="43.62873" lon="1.30268">
        <ele>151</ele>
        <time>2022-08-02T10:10:40Z</time>
      </trkpt>
      <trkpt lat="43.62874" lon="1.30268">
        <ele>151</ele>
        <time>2022-08-02T10:10:41Z</time>
      </trkpt>
      <trkpt lat="43.62882" lon="1.30271">
        <ele>151</ele>
        <time>2022-08-02T10:10:42Z</time>
      </trkpt>
      <trkpt lat="43.62884" lon="1.30273">
        <ele>151</ele>
        <time>2022-08-02T10:10:43Z</time>
      </trkpt>
      <trkpt lat="43.62886" lon="1.30274">
        <ele>151</ele>
        <time>2022-08-02T10:10:44Z</time>
      </trkpt>
      <trkpt lat="43.62888" lon="1.30275">
        <ele>151</ele>
        <time>2022-08-02T10:10:45Z</time>
      </trkpt>
      <trkpt lat="43.62889" lon="1.30276">
        <ele>150</ele>
        <time>2022-08-02T10:10:46Z</time>
      </trkpt>
      <trkpt lat="43.6289" lon="1.30276">
        <ele>150</ele>
        <time>2022-08-02T10:10:47Z</time>
      </trkpt>
      <trkpt lat="43.62891" lon="1.30277">
        <ele>150</ele>
        <time>2022-08-02T10:10:48Z</time>
      </trkpt>
      <trkpt lat="43.62892" lon="1.30277">
        <ele>150</ele>
        <time>2022-08-02T10:10:49Z</time>
      </trkpt>
      <trkpt lat="43.62894" lon="1.30278">
        <ele>151</ele>
        <time>2022-08-02T10:10:50Z</time>
      </trkpt>
      <trkpt lat="43.629" lon="1.30282">
        <ele>151</ele>
        <time>2022-08-02T10:10:51Z</time>
      </trkpt>
      <trkpt lat="43.62901" lon="1.30282">
        <ele>151</ele>
        <time>2022-08-02T10:10:52Z</time>
      </trkpt>
      <trkpt lat="43.62903" lon="1.30283">
        <ele>151</ele>
        <time>2022-08-02T10:10:53Z</time>
      </trkpt>
      <trkpt lat="43.62904" lon="1.30284">
        <ele>151</ele>
        <time>2022-08-02T10:10:54Z</time>
      </trkpt>
      <trkpt lat="43.6291" lon="1.30286">
        <ele>150</ele>
        <time>2022-08-02T10:10:55Z</time>
      </trkpt>
      <trkpt lat="43.62911" lon="1.30287">
        <ele>150</ele>
        <time>2022-08-02T10:10:56Z</time>
      </trkpt>
      <trkpt lat="43.62912" lon="1.30287">
        <ele>150</ele>
        <time>2022-08-02T10:10:57Z</time>
      </trkpt>
      <trkpt lat="43.62913" lon="1.30287">
        <ele>150</ele>
        <time>2022-08-02T10:10:58Z</time>
      </trkpt>
      <trkpt lat="43.62914" lon="1.30288">
        <ele>150</ele>
        <time>2022-08-02T10:10:59Z</time>
      </trkpt>
      <trkpt lat="43.62922" lon="1.30291">
        <ele>150</ele>
        <time>2022-08-02T10:11:00Z</time>
      </trkpt>
      <trkpt lat="43.62924" lon="1.30293">
        <ele>150</ele>
        <time>2022-08-02T10:11:01Z</time>
      </trkpt>
      <trkpt lat="43.62927" lon="1.30294">
        <ele>150</ele>
        <time>2022-08-02T10:11:02Z</time>
      </trkpt>
      <trkpt lat="43.62929" lon="1.30296">
        <ele>151</ele>
        <time>2022-08-02T10:11:03Z</time>
      </trkpt>
      <trkpt lat="43.62931" lon="1.30298">
        <ele>151</ele>
        <time>2022-08-02T10:11:04Z</time>
      </trkpt>
      <trkpt lat="43.62933" lon="1.303">
        <ele>150</ele>
        <time>2022-08-02T10:11:05Z</time>
      </trkpt>
      <trkpt lat="43.62935" lon="1.30302">
        <ele>150</ele>
        <time>2022-08-02T10:11:06Z</time>
      </trkpt>
      <trkpt lat="43.62937" lon="1.30304">
        <ele>150</ele>
        <time>2022-08-02T10:11:07Z</time>
      </trkpt>
      <trkpt lat="43.62938" lon="1.30305">
        <ele>150</ele>
        <time>2022-08-02T10:11:08Z</time>
      </trkpt>
      <trkpt lat="43.62939" lon="1.30306">
        <ele>150</ele>
        <time>2022-08-02T10:11:09Z</time>
      </trkpt>
      <trkpt lat="43.62939" lon="1.30307">
        <ele>151</ele>
        <time>2022-08-02T10:11:10Z</time>
      </trkpt>
      <trkpt lat="43.6294" lon="1.30308">
        <ele>151</ele>
        <time>2022-08-02T10:11:11Z</time>
      </trkpt>
      <trkpt lat="43.62941" lon="1.30309">
        <ele>150</ele>
        <time>2022-08-02T10:11:12Z</time>
      </trkpt>
      <trkpt lat="43.62948" lon="1.30317">
        <ele>150</ele>
        <time>2022-08-02T10:11:13Z</time>
      </trkpt>
      <trkpt lat="43.6295" lon="1.30319">
        <ele>150</ele>
        <time>2022-08-02T10:11:14Z</time>
      </trkpt>
      <trkpt lat="43.62953" lon="1.30321">
        <ele>150</ele>
        <time>2022-08-02T10:11:15Z</time>
      </trkpt>
      <trkpt lat="43.62954" lon="1.30323">
        <ele>150</ele>
        <time>2022-08-02T10:11:16Z</time>
      </trkpt>
      <trkpt lat="43.62956" lon="1.30325">
        <ele>150</ele>
        <time>2022-08-02T10:11:17Z</time>
      </trkpt>
      <trkpt lat="43.62958" lon="1.30327">
        <ele>150</ele>
        <time>2022-08-02T10:11:18Z</time>
      </trkpt>
      <trkpt lat="43.62959" lon="1.30329">
        <ele>150</ele>
        <time>2022-08-02T10:11:19Z</time>
      </trkpt>
      <trkpt lat="43.62961" lon="1.30331">
        <ele>150</ele>
        <time>2022-08-02T10:11:20Z</time>
      </trkpt>
      <trkpt lat="43.62963" lon="1.30333">
        <ele>150</ele>
        <time>2022-08-02T10:11:21Z</time>
      </trkpt>
      <trkpt lat="43.62966" lon="1.30336">
        <ele>150</ele>
        <time>2022-08-02T10:11:22Z</time>
      </trkpt>
      <trkpt lat="43.62968" lon="1.30339">
        <ele>150</ele>
        <time>2022-08-02T10:11:23Z</time>
      </trkpt>
      <trkpt lat="43.6297" lon="1.3034">
        <ele>150</ele>
        <time>2022-08-02T10:11:24Z</time>
      </trkpt>
      <trkpt lat="43.62971" lon="1.30341">
        <ele>150</ele>
        <time>2022-08-02T10:11:25Z</time>
      </trkpt>
      <trkpt lat="43.62973" lon="1.30342">
        <ele>150</ele>
        <time>2022-08-02T10:11:26Z</time>
      </trkpt>
      <trkpt lat="43.62974" lon="1.30343">
        <ele>150</ele>
        <time>2022-08-02T10:11:27Z</time>
      </trkpt>
      <trkpt lat="43.62981" lon="1.30348">
        <ele>150</ele>
        <time>2022-08-02T10:11:28Z</time>
      </trkpt>
      <trkpt lat="43.62982" lon="1.30349">
        <ele>150</ele>
        <time>2022-08-02T10:11:29Z</time>
      </trkpt>
      <trkpt lat="43.62983" lon="1.3035">
        <ele>150</ele>
        <time>2022-08-02T10:11:30Z</time>
      </trkpt>
      <trkpt lat="43.62984" lon="1.30351">
        <ele>150</ele>
        <time>2022-08-02T10:11:31Z</time>
      </trkpt>
      <trkpt lat="43.62989" lon="1.30357">
        <ele>150</ele>
        <time>2022-08-02T10:11:32Z</time>
      </trkpt>
      <trkpt lat="43.6299" lon="1.30359">
        <ele>150</ele>
        <time>2022-08-02T10:11:33Z</time>
      </trkpt>
      <trkpt lat="43.62991" lon="1.3036">
        <ele>150</ele>
        <time>2022-08-02T10:11:34Z</time>
      </trkpt>
      <trkpt lat="43.62991" lon="1.30361">
        <ele>151</ele>
        <time>2022-08-02T10:11:35Z</time>
      </trkpt>
      <trkpt lat="43.62992" lon="1.30362">
        <ele>151</ele>
        <time>2022-08-02T10:11:36Z</time>
      </trkpt>
      <trkpt lat="43.62997" lon="1.30371">
        <ele>151</ele>
        <time>2022-08-02T10:11:37Z</time>
      </trkpt>
      <trkpt lat="43.62999" lon="1.30373">
        <ele>150</ele>
        <time>2022-08-02T10:11:38Z</time>
      </trkpt>
      <trkpt lat="43.63001" lon="1.30376">
        <ele>150</ele>
        <time>2022-08-02T10:11:39Z</time>
      </trkpt>
      <trkpt lat="43.63003" lon="1.30378">
        <ele>150</ele>
        <time>2022-08-02T10:11:40Z</time>
      </trkpt>
      <trkpt lat="43.63005" lon="1.3038">
        <ele>150</ele>
        <time>2022-08-02T10:11:41Z</time>
      </trkpt>
      <trkpt lat="43.63006" lon="1.30382">
        <ele>150</ele>
        <time>2022-08-02T10:11:42Z</time>
      </trkpt>
      <trkpt lat="43.63008" lon="1.30384">
        <ele>150</ele>
        <time>2022-08-02T10:11:43Z</time>
      </trkpt>
      <trkpt lat="43.6301" lon="1.30386">
        <ele>150</ele>
        <time>2022-08-02T10:11:44Z</time>
      </trkpt>
      <trkpt lat="43.63011" lon="1.30387">
        <ele>150</ele>
        <time>2022-08-02T10:11:45Z</time>
      </trkpt>
      <trkpt lat="43.63012" lon="1.30389">
        <ele>150</ele>
        <time>2022-08-02T10:11:46Z</time>
      </trkpt>
      <trkpt lat="43.63013" lon="1.3039">
        <ele>150</ele>
        <time>2022-08-02T10:11:47Z</time>
      </trkpt>
      <trkpt lat="43.63014" lon="1.30391">
        <ele>151</ele>
        <time>2022-08-02T10:11:48Z</time>
      </trkpt>
      <trkpt lat="43.63019" lon="1.30398">
        <ele>151</ele>
        <time>2022-08-02T10:11:49Z</time>
      </trkpt>
      <trkpt lat="43.63021" lon="1.30399">
        <ele>150</ele>
        <time>2022-08-02T10:11:50Z</time>
      </trkpt>
      <trkpt lat="43.63023" lon="1.30401">
        <ele>150</ele>
        <time>2022-08-02T10:11:51Z</time>
      </trkpt>
      <trkpt lat="43.63024" lon="1.30402">
        <ele>150</ele>
        <time>2022-08-02T10:11:52Z</time>
      </trkpt>
      <trkpt lat="43.63026" lon="1.30404">
        <ele>150</ele>
        <time>2022-08-02T10:11:53Z</time>
      </trkpt>
      <trkpt lat="43.63029" lon="1.30406">
        <ele>150</ele>
        <time>2022-08-02T10:11:54Z</time>
      </trkpt>
      <trkpt lat="43.63031" lon="1.30408">
        <ele>150</ele>
        <time>2022-08-02T10:11:55Z</time>
      </trkpt>
      <trkpt lat="43.63034" lon="1.30411">
        <ele>150</ele>
        <time>2022-08-02T10:11:56Z</time>
      </trkpt>
      <trkpt lat="43.63034" lon="1.30412">
        <ele>149</ele>
        <time>2022-08-02T10:11:57Z</time>
      </trkpt>
      <trkpt lat="43.63035" lon="1.30414">
        <ele>149</ele>
        <time>2022-08-02T10:11:58Z</time>
      </trkpt>
      <trkpt lat="43.63036" lon="1.30416">
        <ele>149</ele>
        <time>2022-08-02T10:11:59Z</time>
      </trkpt>
      <trkpt lat="43.63036" lon="1.30418">
        <ele>149</ele>
        <time>2022-08-02T10:12:00Z</time>
      </trkpt>
      <trkpt lat="43.63039" lon="1.30426">
        <ele>149</ele>
        <time>2022-08-02T10:12:01Z</time>
      </trkpt>
      <trkpt lat="43.6304" lon="1.30426">
        <ele>149</ele>
        <time>2022-08-02T10:12:02Z</time>
      </trkpt>
      <trkpt lat="43.6304" lon="1.30427">
        <ele>149</ele>
        <time>2022-08-02T10:12:03Z</time>
      </trkpt>
      <trkpt lat="43.63041" lon="1.30428">
        <ele>149</ele>
        <time>2022-08-02T10:12:04Z</time>
      </trkpt>
      <trkpt lat="43.63047" lon="1.30438">
        <ele>149</ele>
        <time>2022-08-02T10:12:06Z</time>
      </trkpt>
      <trkpt lat="43.63048" lon="1.30439">
        <ele>149</ele>
        <time>2022-08-02T10:12:07Z</time>
      </trkpt>
      <trkpt lat="43.63049" lon="1.3044">
        <ele>149</ele>
        <time>2022-08-02T10:12:08Z</time>
      </trkpt>
      <trkpt lat="43.6305" lon="1.30442">
        <ele>149</ele>
        <time>2022-08-02T10:12:09Z</time>
      </trkpt>
      <trkpt lat="43.63055" lon="1.30447">
        <ele>149</ele>
        <time>2022-08-02T10:12:10Z</time>
      </trkpt>
      <trkpt lat="43.63056" lon="1.30448">
        <ele>149</ele>
        <time>2022-08-02T10:12:11Z</time>
      </trkpt>
      <trkpt lat="43.63057" lon="1.30448">
        <ele>149</ele>
        <time>2022-08-02T10:12:12Z</time>
      </trkpt>
      <trkpt lat="43.63058" lon="1.30449">
        <ele>149</ele>
        <time>2022-08-02T10:12:13Z</time>
      </trkpt>
      <trkpt lat="43.63059" lon="1.30449">
        <ele>149</ele>
        <time>2022-08-02T10:12:14Z</time>
      </trkpt>
      <trkpt lat="43.63065" lon="1.30452">
        <ele>149</ele>
        <time>2022-08-02T10:12:15Z</time>
      </trkpt>
      <trkpt lat="43.63066" lon="1.30453">
        <ele>149</ele>
        <time>2022-08-02T10:12:16Z</time>
      </trkpt>
      <trkpt lat="43.63068" lon="1.30454">
        <ele>149</ele>
        <time>2022-08-02T10:12:17Z</time>
      </trkpt>
      <trkpt lat="43.63069" lon="1.30455">
        <ele>149</ele>
        <time>2022-08-02T10:12:18Z</time>
      </trkpt>
      <trkpt lat="43.63075" lon="1.30458">
        <ele>149</ele>
        <time>2022-08-02T10:12:19Z</time>
      </trkpt>
      <trkpt lat="43.63077" lon="1.30458">
        <ele>149</ele>
        <time>2022-08-02T10:12:20Z</time>
      </trkpt>
      <trkpt lat="43.63078" lon="1.30458">
        <ele>149</ele>
        <time>2022-08-02T10:12:21Z</time>
      </trkpt>
      <trkpt lat="43.6308" lon="1.30458">
        <ele>150</ele>
        <time>2022-08-02T10:12:22Z</time>
      </trkpt>
      <trkpt lat="43.63082" lon="1.30459">
        <ele>150</ele>
        <time>2022-08-02T10:12:23Z</time>
      </trkpt>
      <trkpt lat="43.63083" lon="1.30459">
        <ele>150</ele>
        <time>2022-08-02T10:12:24Z</time>
      </trkpt>
      <trkpt lat="43.63086" lon="1.30458">
        <ele>150</ele>
        <time>2022-08-02T10:12:25Z</time>
      </trkpt>
      <trkpt lat="43.63089" lon="1.30457">
        <ele>150</ele>
        <time>2022-08-02T10:12:26Z</time>
      </trkpt>
      <trkpt lat="43.63092" lon="1.30456">
        <ele>150</ele>
        <time>2022-08-02T10:12:27Z</time>
      </trkpt>
      <trkpt lat="43.63094" lon="1.30455">
        <ele>150</ele>
        <time>2022-08-02T10:12:28Z</time>
      </trkpt>
      <trkpt lat="43.63096" lon="1.30454">
        <ele>150</ele>
        <time>2022-08-02T10:12:29Z</time>
      </trkpt>
      <trkpt lat="43.63098" lon="1.30453">
        <ele>150</ele>
        <time>2022-08-02T10:12:30Z</time>
      </trkpt>
      <trkpt lat="43.631" lon="1.30453">
        <ele>150</ele>
        <time>2022-08-02T10:12:31Z</time>
      </trkpt>
      <trkpt lat="43.63101" lon="1.30452">
        <ele>150</ele>
        <time>2022-08-02T10:12:32Z</time>
      </trkpt>
      <trkpt lat="43.63103" lon="1.3045">
        <ele>150</ele>
        <time>2022-08-02T10:12:33Z</time>
      </trkpt>
      <trkpt lat="43.63104" lon="1.30447">
        <ele>150</ele>
        <time>2022-08-02T10:12:34Z</time>
      </trkpt>
      <trkpt lat="43.63106" lon="1.30445">
        <ele>151</ele>
        <time>2022-08-02T10:12:35Z</time>
      </trkpt>
      <trkpt lat="43.63108" lon="1.30442">
        <ele>151</ele>
        <time>2022-08-02T10:12:36Z</time>
      </trkpt>
      <trkpt lat="43.63109" lon="1.3044">
        <ele>150</ele>
        <time>2022-08-02T10:12:37Z</time>
      </trkpt>
      <trkpt lat="43.63111" lon="1.30437">
        <ele>149</ele>
        <time>2022-08-02T10:12:38Z</time>
      </trkpt>
      <trkpt lat="43.63112" lon="1.30435">
        <ele>149</ele>
        <time>2022-08-02T10:12:39Z</time>
      </trkpt>
      <trkpt lat="43.63114" lon="1.30432">
        <ele>149</ele>
        <time>2022-08-02T10:12:40Z</time>
      </trkpt>
      <trkpt lat="43.63115" lon="1.3043">
        <ele>149</ele>
        <time>2022-08-02T10:12:41Z</time>
      </trkpt>
      <trkpt lat="43.63116" lon="1.30429">
        <ele>149</ele>
        <time>2022-08-02T10:12:42Z</time>
      </trkpt>
      <trkpt lat="43.63117" lon="1.30427">
        <ele>149</ele>
        <time>2022-08-02T10:12:43Z</time>
      </trkpt>
      <trkpt lat="43.63118" lon="1.30426">
        <ele>149</ele>
        <time>2022-08-02T10:12:44Z</time>
      </trkpt>
      <trkpt lat="43.63123" lon="1.30418">
        <ele>149</ele>
        <time>2022-08-02T10:12:45Z</time>
      </trkpt>
      <trkpt lat="43.63125" lon="1.30416">
        <ele>149</ele>
        <time>2022-08-02T10:12:46Z</time>
      </trkpt>
      <trkpt lat="43.63126" lon="1.30414">
        <ele>149</ele>
        <time>2022-08-02T10:12:47Z</time>
      </trkpt>
      <trkpt lat="43.63128" lon="1.30413">
        <ele>149</ele>
        <time>2022-08-02T10:12:48Z</time>
      </trkpt>
      <trkpt lat="43.63129" lon="1.30411">
        <ele>149</ele>
        <time>2022-08-02T10:12:49Z</time>
      </trkpt>
      <trkpt lat="43.63131" lon="1.3041">
        <ele>150</ele>
        <time>2022-08-02T10:12:50Z</time>
      </trkpt>
      <trkpt lat="43.63133" lon="1.30409">
        <ele>150</ele>
        <time>2022-08-02T10:12:51Z</time>
      </trkpt>
      <trkpt lat="43.63135" lon="1.30408">
        <ele>150</ele>
        <time>2022-08-02T10:12:52Z</time>
      </trkpt>
      <trkpt lat="43.63137" lon="1.30407">
        <ele>150</ele>
        <time>2022-08-02T10:12:53Z</time>
      </trkpt>
      <trkpt lat="43.63139" lon="1.30406">
        <ele>150</ele>
        <time>2022-08-02T10:12:54Z</time>
      </trkpt>
      <trkpt lat="43.63142" lon="1.30407">
        <ele>150</ele>
        <time>2022-08-02T10:12:55Z</time>
      </trkpt>
      <trkpt lat="43.63145" lon="1.30408">
        <ele>150</ele>
        <time>2022-08-02T10:12:56Z</time>
      </trkpt>
      <trkpt lat="43.63148" lon="1.30409">
        <ele>149</ele>
        <time>2022-08-02T10:12:57Z</time>
      </trkpt>
      <trkpt lat="43.6315" lon="1.3041">
        <ele>149</ele>
        <time>2022-08-02T10:12:58Z</time>
      </trkpt>
      <trkpt lat="43.63153" lon="1.30412">
        <ele>149</ele>
        <time>2022-08-02T10:12:59Z</time>
      </trkpt>
      <trkpt lat="43.63155" lon="1.30413">
        <ele>149</ele>
        <time>2022-08-02T10:13:00Z</time>
      </trkpt>
      <trkpt lat="43.63158" lon="1.30414">
        <ele>149</ele>
        <time>2022-08-02T10:13:01Z</time>
      </trkpt>
      <trkpt lat="43.63161" lon="1.30414">
        <ele>149</ele>
        <time>2022-08-02T10:13:02Z</time>
      </trkpt>
      <trkpt lat="43.63164" lon="1.30414">
        <ele>149</ele>
        <time>2022-08-02T10:13:03Z</time>
      </trkpt>
      <trkpt lat="43.63167" lon="1.30414">
        <ele>149</ele>
        <time>2022-08-02T10:13:04Z</time>
      </trkpt>
      <trkpt lat="43.6317" lon="1.30414">
        <ele>149</ele>
        <time>2022-08-02T10:13:05Z</time>
      </trkpt>
      <trkpt lat="43.63172" lon="1.30413">
        <ele>148</ele>
        <time>2022-08-02T10:13:06Z</time>
      </trkpt>
      <trkpt lat="43.63175" lon="1.30413">
        <ele>149</ele>
        <time>2022-08-02T10:13:07Z</time>
      </trkpt>
      <trkpt lat="43.63177" lon="1.30412">
        <ele>149</ele>
        <time>2022-08-02T10:13:08Z</time>
      </trkpt>
      <trkpt lat="43.63179" lon="1.30413">
        <ele>149</ele>
        <time>2022-08-02T10:13:09Z</time>
      </trkpt>
      <trkpt lat="43.6318" lon="1.30414">
        <ele>149</ele>
        <time>2022-08-02T10:13:10Z</time>
      </trkpt>
      <trkpt lat="43.63182" lon="1.30414">
        <ele>149</ele>
        <time>2022-08-02T10:13:11Z</time>
      </trkpt>
      <trkpt lat="43.63188" lon="1.3042">
        <ele>150</ele>
        <time>2022-08-02T10:13:12Z</time>
      </trkpt>
      <trkpt lat="43.6319" lon="1.30424">
        <ele>150</ele>
        <time>2022-08-02T10:13:13Z</time>
      </trkpt>
      <trkpt lat="43.63191" lon="1.30428">
        <ele>149</ele>
        <time>2022-08-02T10:13:14Z</time>
      </trkpt>
      <trkpt lat="43.63192" lon="1.30432">
        <ele>150</ele>
        <time>2022-08-02T10:13:15Z</time>
      </trkpt>
      <trkpt lat="43.63193" lon="1.30436">
        <ele>150</ele>
        <time>2022-08-02T10:13:16Z</time>
      </trkpt>
      <trkpt lat="43.63193" lon="1.30441">
        <ele>149</ele>
        <time>2022-08-02T10:13:17Z</time>
      </trkpt>
      <trkpt lat="43.63193" lon="1.30443">
        <ele>149</ele>
        <time>2022-08-02T10:13:18Z</time>
      </trkpt>
      <trkpt lat="43.63193" lon="1.30446">
        <ele>149</ele>
        <time>2022-08-02T10:13:20Z</time>
      </trkpt>
      <trkpt lat="43.63193" lon="1.30448">
        <ele>149</ele>
        <time>2022-08-02T10:13:21Z</time>
      </trkpt>
      <trkpt lat="43.63193" lon="1.30458">
        <ele>149</ele>
        <time>2022-08-02T10:13:22Z</time>
      </trkpt>
      <trkpt lat="43.63193" lon="1.3046">
        <ele>149</ele>
        <time>2022-08-02T10:13:23Z</time>
      </trkpt>
      <trkpt lat="43.63193" lon="1.30462">
        <ele>149</ele>
        <time>2022-08-02T10:13:24Z</time>
      </trkpt>
      <trkpt lat="43.63193" lon="1.30464">
        <ele>149</ele>
        <time>2022-08-02T10:13:25Z</time>
      </trkpt>
      <trkpt lat="43.63193" lon="1.30475">
        <ele>149</ele>
        <time>2022-08-02T10:13:26Z</time>
      </trkpt>
      <trkpt lat="43.63193" lon="1.30478">
        <ele>149</ele>
        <time>2022-08-02T10:13:27Z</time>
      </trkpt>
      <trkpt lat="43.63193" lon="1.30482">
        <ele>149</ele>
        <time>2022-08-02T10:13:28Z</time>
      </trkpt>
      <trkpt lat="43.63193" lon="1.30485">
        <ele>149</ele>
        <time>2022-08-02T10:13:29Z</time>
      </trkpt>
      <trkpt lat="43.63193" lon="1.30487">
        <ele>149</ele>
        <time>2022-08-02T10:13:30Z</time>
      </trkpt>
      <trkpt lat="43.63193" lon="1.30489">
        <ele>149</ele>
        <time>2022-08-02T10:13:31Z</time>
      </trkpt>
      <trkpt lat="43.63193" lon="1.30491">
        <ele>149</ele>
        <time>2022-08-02T10:13:32Z</time>
      </trkpt>
      <trkpt lat="43.63194" lon="1.30493">
        <ele>150</ele>
        <time>2022-08-02T10:13:33Z</time>
      </trkpt>
      <trkpt lat="43.63194" lon="1.30502">
        <ele>150</ele>
        <time>2022-08-02T10:13:34Z</time>
      </trkpt>
      <trkpt lat="43.63195" lon="1.30504">
        <ele>149</ele>
        <time>2022-08-02T10:13:35Z</time>
      </trkpt>
      <trkpt lat="43.63195" lon="1.30506">
        <ele>149</ele>
        <time>2022-08-02T10:13:36Z</time>
      </trkpt>
      <trkpt lat="43.63195" lon="1.30508">
        <ele>149</ele>
        <time>2022-08-02T10:13:37Z</time>
      </trkpt>
      <trkpt lat="43.63196" lon="1.30519">
        <ele>148</ele>
        <time>2022-08-02T10:13:38Z</time>
      </trkpt>
      <trkpt lat="43.63195" lon="1.30522">
        <ele>149</ele>
        <time>2022-08-02T10:13:39Z</time>
      </trkpt>
      <trkpt lat="43.63195" lon="1.30526">
        <ele>149</ele>
        <time>2022-08-02T10:13:40Z</time>
      </trkpt>
      <trkpt lat="43.63195" lon="1.30529">
        <ele>149</ele>
        <time>2022-08-02T10:13:41Z</time>
      </trkpt>
      <trkpt lat="43.63195" lon="1.30531">
        <ele>150</ele>
        <time>2022-08-02T10:13:42Z</time>
      </trkpt>
      <trkpt lat="43.63195" lon="1.30533">
        <ele>150</ele>
        <time>2022-08-02T10:13:43Z</time>
      </trkpt>
      <trkpt lat="43.63195" lon="1.30535">
        <ele>150</ele>
        <time>2022-08-02T10:13:44Z</time>
      </trkpt>
      <trkpt lat="43.63195" lon="1.30536">
        <ele>149</ele>
        <time>2022-08-02T10:13:45Z</time>
      </trkpt>
      <trkpt lat="43.63196" lon="1.30547">
        <ele>149</ele>
        <time>2022-08-02T10:13:46Z</time>
      </trkpt>
      <trkpt lat="43.63196" lon="1.30551">
        <ele>149</ele>
        <time>2022-08-02T10:13:47Z</time>
      </trkpt>
      <trkpt lat="43.63196" lon="1.30554">
        <ele>149</ele>
        <time>2022-08-02T10:13:48Z</time>
      </trkpt>
      <trkpt lat="43.63196" lon="1.30558">
        <ele>149</ele>
        <time>2022-08-02T10:13:49Z</time>
      </trkpt>
      <trkpt lat="43.63196" lon="1.30559">
        <ele>150</ele>
        <time>2022-08-02T10:13:50Z</time>
      </trkpt>
      <trkpt lat="43.63196" lon="1.30561">
        <ele>150</ele>
        <time>2022-08-02T10:13:51Z</time>
      </trkpt>
      <trkpt lat="43.63196" lon="1.30562">
        <ele>150</ele>
        <time>2022-08-02T10:13:52Z</time>
      </trkpt>
      <trkpt lat="43.63196" lon="1.30564">
        <ele>150</ele>
        <time>2022-08-02T10:13:53Z</time>
      </trkpt>
      <trkpt lat="43.63196" lon="1.30565">
        <ele>150</ele>
        <time>2022-08-02T10:13:54Z</time>
      </trkpt>
      <trkpt lat="43.63198" lon="1.30575">
        <ele>150</ele>
        <time>2022-08-02T10:13:55Z</time>
      </trkpt>
      <trkpt lat="43.63198" lon="1.30578">
        <ele>150</ele>
        <time>2022-08-02T10:13:56Z</time>
      </trkpt>
      <trkpt lat="43.63199" lon="1.30581">
        <ele>150</ele>
        <time>2022-08-02T10:13:57Z</time>
      </trkpt>
      <trkpt lat="43.63199" lon="1.30584">
        <ele>149</ele>
        <time>2022-08-02T10:13:58Z</time>
      </trkpt>
      <trkpt lat="43.63199" lon="1.30586">
        <ele>149</ele>
        <time>2022-08-02T10:13:59Z</time>
      </trkpt>
      <trkpt lat="43.63199" lon="1.30588">
        <ele>149</ele>
        <time>2022-08-02T10:14:00Z</time>
      </trkpt>
      <trkpt lat="43.632" lon="1.3059">
        <ele>150</ele>
        <time>2022-08-02T10:14:01Z</time>
      </trkpt>
      <trkpt lat="43.632" lon="1.30592">
        <ele>150</ele>
        <time>2022-08-02T10:14:02Z</time>
      </trkpt>
      <trkpt lat="43.632" lon="1.30602">
        <ele>150</ele>
        <time>2022-08-02T10:14:03Z</time>
      </trkpt>
      <trkpt lat="43.632" lon="1.30604">
        <ele>150</ele>
        <time>2022-08-02T10:14:04Z</time>
      </trkpt>
      <trkpt lat="43.632" lon="1.30606">
        <ele>150</ele>
        <time>2022-08-02T10:14:05Z</time>
      </trkpt>
      <trkpt lat="43.632" lon="1.30608">
        <ele>150</ele>
        <time>2022-08-02T10:14:06Z</time>
      </trkpt>
      <trkpt lat="43.63201" lon="1.3062">
        <ele>150</ele>
        <time>2022-08-02T10:14:07Z</time>
      </trkpt>
      <trkpt lat="43.63201" lon="1.30623">
        <ele>149</ele>
        <time>2022-08-02T10:14:08Z</time>
      </trkpt>
      <trkpt lat="43.63201" lon="1.30626">
        <ele>149</ele>
        <time>2022-08-02T10:14:09Z</time>
      </trkpt>
      <trkpt lat="43.63201" lon="1.3063">
        <ele>149</ele>
        <time>2022-08-02T10:14:10Z</time>
      </trkpt>
      <trkpt lat="43.632" lon="1.30633">
        <ele>149</ele>
        <time>2022-08-02T10:14:11Z</time>
      </trkpt>
      <trkpt lat="43.632" lon="1.30636">
        <ele>149</ele>
        <time>2022-08-02T10:14:12Z</time>
      </trkpt>
      <trkpt lat="43.63199" lon="1.30639">
        <ele>149</ele>
        <time>2022-08-02T10:14:13Z</time>
      </trkpt>
      <trkpt lat="43.63199" lon="1.30642">
        <ele>149</ele>
        <time>2022-08-02T10:14:14Z</time>
      </trkpt>
      <trkpt lat="43.63199" lon="1.30645">
        <ele>149</ele>
        <time>2022-08-02T10:14:15Z</time>
      </trkpt>
      <trkpt lat="43.63199" lon="1.30648">
        <ele>149</ele>
        <time>2022-08-02T10:14:16Z</time>
      </trkpt>
      <trkpt lat="43.63199" lon="1.30651">
        <ele>149</ele>
        <time>2022-08-02T10:14:17Z</time>
      </trkpt>
      <trkpt lat="43.63199" lon="1.30655">
        <ele>149</ele>
        <time>2022-08-02T10:14:18Z</time>
      </trkpt>
      <trkpt lat="43.63199" lon="1.30658">
        <ele>149</ele>
        <time>2022-08-02T10:14:19Z</time>
      </trkpt>
      <trkpt lat="43.63199" lon="1.3066">
        <ele>149</ele>
        <time>2022-08-02T10:14:20Z</time>
      </trkpt>
      <trkpt lat="43.63199" lon="1.30663">
        <ele>149</ele>
        <time>2022-08-02T10:14:21Z</time>
      </trkpt>
      <trkpt lat="43.632" lon="1.30665">
        <ele>149</ele>
        <time>2022-08-02T10:14:22Z</time>
      </trkpt>
      <trkpt lat="43.632" lon="1.30677">
        <ele>149</ele>
        <time>2022-08-02T10:14:23Z</time>
      </trkpt>
      <trkpt lat="43.632" lon="1.3068">
        <ele>149</ele>
        <time>2022-08-02T10:14:24Z</time>
      </trkpt>
      <trkpt lat="43.632" lon="1.30683">
        <ele>150</ele>
        <time>2022-08-02T10:14:25Z</time>
      </trkpt>
      <trkpt lat="43.632" lon="1.30686">
        <ele>150</ele>
        <time>2022-08-02T10:14:26Z</time>
      </trkpt>
      <trkpt lat="43.63201" lon="1.30686">
        <ele>149</ele>
        <time>2022-08-02T10:14:27Z</time>
      </trkpt>
      <trkpt lat="43.63202" lon="1.30686">
        <ele>149</ele>
        <time>2022-08-02T10:14:28Z</time>
      </trkpt>
      <trkpt lat="43.63204" lon="1.30686">
        <ele>149</ele>
        <time>2022-08-02T10:14:29Z</time>
      </trkpt>
      <trkpt lat="43.63205" lon="1.30686">
        <ele>149</ele>
        <time>2022-08-02T10:14:30Z</time>
      </trkpt>
      <trkpt lat="43.63206" lon="1.30686">
        <ele>149</ele>
        <time>2022-08-02T10:14:31Z</time>
      </trkpt>
      <trkpt lat="43.63214" lon="1.30687">
        <ele>149</ele>
        <time>2022-08-02T10:14:32Z</time>
      </trkpt>
      <trkpt lat="43.63216" lon="1.30688">
        <ele>148</ele>
        <time>2022-08-02T10:14:33Z</time>
      </trkpt>
      <trkpt lat="43.63218" lon="1.30689">
        <ele>148</ele>
        <time>2022-08-02T10:14:34Z</time>
      </trkpt>
      <trkpt lat="43.6322" lon="1.3069">
        <ele>148</ele>
        <time>2022-08-02T10:14:35Z</time>
      </trkpt>
      <trkpt lat="43.63222" lon="1.30691">
        <ele>148</ele>
        <time>2022-08-02T10:14:36Z</time>
      </trkpt>
      <trkpt lat="43.63224" lon="1.30692">
        <ele>148</ele>
        <time>2022-08-02T10:14:37Z</time>
      </trkpt>
      <trkpt lat="43.63226" lon="1.30693">
        <ele>148</ele>
        <time>2022-08-02T10:14:38Z</time>
      </trkpt>
      <trkpt lat="43.63228" lon="1.30694">
        <ele>148</ele>
        <time>2022-08-02T10:14:39Z</time>
      </trkpt>
      <trkpt lat="43.63235" lon="1.30702">
        <ele>148</ele>
        <time>2022-08-02T10:14:40Z</time>
      </trkpt>
      <trkpt lat="43.63236" lon="1.30706">
        <ele>148</ele>
        <time>2022-08-02T10:14:41Z</time>
      </trkpt>
      <trkpt lat="43.63237" lon="1.3071">
        <ele>148</ele>
        <time>2022-08-02T10:14:42Z</time>
      </trkpt>
      <trkpt lat="43.63237" lon="1.30714">
        <ele>148</ele>
        <time>2022-08-02T10:14:43Z</time>
      </trkpt>
      <trkpt lat="43.63237" lon="1.30718">
        <ele>149</ele>
        <time>2022-08-02T10:14:44Z</time>
      </trkpt>
      <trkpt lat="43.63237" lon="1.30722">
        <ele>149</ele>
        <time>2022-08-02T10:14:45Z</time>
      </trkpt>
      <trkpt lat="43.63237" lon="1.30726">
        <ele>149</ele>
        <time>2022-08-02T10:14:46Z</time>
      </trkpt>
      <trkpt lat="43.63237" lon="1.30729">
        <ele>149</ele>
        <time>2022-08-02T10:14:47Z</time>
      </trkpt>
      <trkpt lat="43.63238" lon="1.30733">
        <ele>149</ele>
        <time>2022-08-02T10:14:48Z</time>
      </trkpt>
      <trkpt lat="43.63238" lon="1.30734">
        <ele>149</ele>
        <time>2022-08-02T10:14:49Z</time>
      </trkpt>
      <trkpt lat="43.63239" lon="1.30736">
        <ele>149</ele>
        <time>2022-08-02T10:14:50Z</time>
      </trkpt>
      <trkpt lat="43.63239" lon="1.30737">
        <ele>149</ele>
        <time>2022-08-02T10:14:51Z</time>
      </trkpt>
      <trkpt lat="43.63239" lon="1.30738">
        <ele>149</ele>
        <time>2022-08-02T10:14:52Z</time>
      </trkpt>
      <trkpt lat="43.6324" lon="1.3074">
        <ele>149</ele>
        <time>2022-08-02T10:14:53Z</time>
      </trkpt>
      <trkpt lat="43.63243" lon="1.30749">
        <ele>149</ele>
        <time>2022-08-02T10:14:54Z</time>
      </trkpt>
      <trkpt lat="43.63245" lon="1.30752">
        <ele>149</ele>
        <time>2022-08-02T10:14:55Z</time>
      </trkpt>
      <trkpt lat="43.63246" lon="1.30754">
        <ele>149</ele>
        <time>2022-08-02T10:14:56Z</time>
      </trkpt>
      <trkpt lat="43.63248" lon="1.30757">
        <ele>149</ele>
        <time>2022-08-02T10:14:57Z</time>
      </trkpt>
      <trkpt lat="43.63249" lon="1.30758">
        <ele>149</ele>
        <time>2022-08-02T10:14:58Z</time>
      </trkpt>
      <trkpt lat="43.63249" lon="1.30759">
        <ele>149</ele>
        <time>2022-08-02T10:14:59Z</time>
      </trkpt>
      <trkpt lat="43.6325" lon="1.3076">
        <ele>149</ele>
        <time>2022-08-02T10:15:00Z</time>
      </trkpt>
      <trkpt lat="43.63251" lon="1.30761">
        <ele>149</ele>
        <time>2022-08-02T10:15:01Z</time>
      </trkpt>
      <trkpt lat="43.63252" lon="1.30762">
        <ele>149</ele>
        <time>2022-08-02T10:15:02Z</time>
      </trkpt>
      <trkpt lat="43.63257" lon="1.30769">
        <ele>149</ele>
        <time>2022-08-02T10:15:03Z</time>
      </trkpt>
      <trkpt lat="43.63258" lon="1.3077">
        <ele>149</ele>
        <time>2022-08-02T10:15:04Z</time>
      </trkpt>
      <trkpt lat="43.63259" lon="1.30771">
        <ele>149</ele>
        <time>2022-08-02T10:15:05Z</time>
      </trkpt>
      <trkpt lat="43.6326" lon="1.30772">
        <ele>149</ele>
        <time>2022-08-02T10:15:06Z</time>
      </trkpt>
      <trkpt lat="43.63266" lon="1.30776">
        <ele>149</ele>
        <time>2022-08-02T10:15:07Z</time>
      </trkpt>
      <trkpt lat="43.63267" lon="1.30775">
        <ele>149</ele>
        <time>2022-08-02T10:15:08Z</time>
      </trkpt>
      <trkpt lat="43.63268" lon="1.30773">
        <ele>150</ele>
        <time>2022-08-02T10:15:09Z</time>
      </trkpt>
      <trkpt lat="43.63269" lon="1.30772">
        <ele>150</ele>
        <time>2022-08-02T10:15:10Z</time>
      </trkpt>
      <trkpt lat="43.6327" lon="1.30771">
        <ele>150</ele>
        <time>2022-08-02T10:15:11Z</time>
      </trkpt>
      <trkpt lat="43.63271" lon="1.3077">
        <ele>151</ele>
        <time>2022-08-02T10:15:12Z</time>
      </trkpt>
      <trkpt lat="43.63273" lon="1.30768">
        <ele>151</ele>
        <time>2022-08-02T10:15:13Z</time>
      </trkpt>
      <trkpt lat="43.63273" lon="1.30765">
        <ele>151</ele>
        <time>2022-08-02T10:15:14Z</time>
      </trkpt>
      <trkpt lat="43.63274" lon="1.30762">
        <ele>151</ele>
        <time>2022-08-02T10:15:15Z</time>
      </trkpt>
      <trkpt lat="43.63275" lon="1.30759">
        <ele>150</ele>
        <time>2022-08-02T10:15:16Z</time>
      </trkpt>
      <trkpt lat="43.63275" lon="1.30756">
        <ele>150</ele>
        <time>2022-08-02T10:15:17Z</time>
      </trkpt>
      <trkpt lat="43.63276" lon="1.30755">
        <ele>150</ele>
        <time>2022-08-02T10:15:18Z</time>
      </trkpt>
      <trkpt lat="43.63276" lon="1.30754">
        <ele>150</ele>
        <time>2022-08-02T10:15:19Z</time>
      </trkpt>
      <trkpt lat="43.63276" lon="1.30752">
        <ele>150</ele>
        <time>2022-08-02T10:15:20Z</time>
      </trkpt>
      <trkpt lat="43.63277" lon="1.30751">
        <ele>150</ele>
        <time>2022-08-02T10:15:21Z</time>
      </trkpt>
      <trkpt lat="43.63277" lon="1.30749">
        <ele>149</ele>
        <time>2022-08-02T10:15:22Z</time>
      </trkpt>
      <trkpt lat="43.63279" lon="1.30739">
        <ele>149</ele>
        <time>2022-08-02T10:15:23Z</time>
      </trkpt>
      <trkpt lat="43.6328" lon="1.30735">
        <ele>149</ele>
        <time>2022-08-02T10:15:24Z</time>
      </trkpt>
      <trkpt lat="43.63281" lon="1.30732">
        <ele>149</ele>
        <time>2022-08-02T10:15:25Z</time>
      </trkpt>
      <trkpt lat="43.63282" lon="1.30728">
        <ele>149</ele>
        <time>2022-08-02T10:15:26Z</time>
      </trkpt>
      <trkpt lat="43.63282" lon="1.30727">
        <ele>149</ele>
        <time>2022-08-02T10:15:27Z</time>
      </trkpt>
      <trkpt lat="43.63282" lon="1.30725">
        <ele>149</ele>
        <time>2022-08-02T10:15:28Z</time>
      </trkpt>
      <trkpt lat="43.63283" lon="1.30723">
        <ele>149</ele>
        <time>2022-08-02T10:15:29Z</time>
      </trkpt>
      <trkpt lat="43.63283" lon="1.30722">
        <ele>149</ele>
        <time>2022-08-02T10:15:30Z</time>
      </trkpt>
      <trkpt lat="43.63285" lon="1.30712">
        <ele>149</ele>
        <time>2022-08-02T10:15:31Z</time>
      </trkpt>
      <trkpt lat="43.63286" lon="1.30709">
        <ele>149</ele>
        <time>2022-08-02T10:15:32Z</time>
      </trkpt>
      <trkpt lat="43.63287" lon="1.30707">
        <ele>149</ele>
        <time>2022-08-02T10:15:33Z</time>
      </trkpt>
      <trkpt lat="43.63287" lon="1.30704">
        <ele>149</ele>
        <time>2022-08-02T10:15:34Z</time>
      </trkpt>
      <trkpt lat="43.63288" lon="1.30701">
        <ele>149</ele>
        <time>2022-08-02T10:15:35Z</time>
      </trkpt>
      <trkpt lat="43.63288" lon="1.30699">
        <ele>149</ele>
        <time>2022-08-02T10:15:36Z</time>
      </trkpt>
      <trkpt lat="43.63288" lon="1.30697">
        <ele>150</ele>
        <time>2022-08-02T10:15:37Z</time>
      </trkpt>
      <trkpt lat="43.63287" lon="1.30695">
        <ele>150</ele>
        <time>2022-08-02T10:15:38Z</time>
      </trkpt>
      <trkpt lat="43.63287" lon="1.30694">
        <ele>150</ele>
        <time>2022-08-02T10:15:39Z</time>
      </trkpt>
      <trkpt lat="43.63287" lon="1.30692">
        <ele>150</ele>
        <time>2022-08-02T10:15:40Z</time>
      </trkpt>
      <trkpt lat="43.63287" lon="1.3069">
        <ele>150</ele>
        <time>2022-08-02T10:15:41Z</time>
      </trkpt>
      <trkpt lat="43.63286" lon="1.30688">
        <ele>150</ele>
        <time>2022-08-02T10:15:42Z</time>
      </trkpt>
      <trkpt lat="43.63286" lon="1.30685">
        <ele>150</ele>
        <time>2022-08-02T10:15:43Z</time>
      </trkpt>
      <trkpt lat="43.63285" lon="1.30681">
        <ele>150</ele>
        <time>2022-08-02T10:15:44Z</time>
      </trkpt>
      <trkpt lat="43.63284" lon="1.30678">
        <ele>150</ele>
        <time>2022-08-02T10:15:45Z</time>
      </trkpt>
      <trkpt lat="43.63284" lon="1.30675">
        <ele>150</ele>
        <time>2022-08-02T10:15:46Z</time>
      </trkpt>
      <trkpt lat="43.63283" lon="1.30674">
        <ele>150</ele>
        <time>2022-08-02T10:15:47Z</time>
      </trkpt>
      <trkpt lat="43.63283" lon="1.30672">
        <ele>150</ele>
        <time>2022-08-02T10:15:48Z</time>
      </trkpt>
      <trkpt lat="43.63282" lon="1.3067">
        <ele>150</ele>
        <time>2022-08-02T10:15:49Z</time>
      </trkpt>
      <trkpt lat="43.63282" lon="1.30669">
        <ele>150</ele>
        <time>2022-08-02T10:15:50Z</time>
      </trkpt>
      <trkpt lat="43.63279" lon="1.30658">
        <ele>150</ele>
        <time>2022-08-02T10:15:51Z</time>
      </trkpt>
      <trkpt lat="43.63278" lon="1.30654">
        <ele>150</ele>
        <time>2022-08-02T10:15:52Z</time>
      </trkpt>
      <trkpt lat="43.63277" lon="1.3065">
        <ele>150</ele>
        <time>2022-08-02T10:15:53Z</time>
      </trkpt>
      <trkpt lat="43.63277" lon="1.30648">
        <ele>150</ele>
        <time>2022-08-02T10:15:54Z</time>
      </trkpt>
      <trkpt lat="43.63277" lon="1.30646">
        <ele>150</ele>
        <time>2022-08-02T10:15:55Z</time>
      </trkpt>
      <trkpt lat="43.63277" lon="1.30644">
        <ele>150</ele>
        <time>2022-08-02T10:15:56Z</time>
      </trkpt>
      <trkpt lat="43.63277" lon="1.30643">
        <ele>150</ele>
        <time>2022-08-02T10:15:57Z</time>
      </trkpt>
      <trkpt lat="43.63277" lon="1.30634">
        <ele>150</ele>
        <time>2022-08-02T10:15:58Z</time>
      </trkpt>
      <trkpt lat="43.63277" lon="1.30632">
        <ele>150</ele>
        <time>2022-08-02T10:15:59Z</time>
      </trkpt>
      <trkpt lat="43.63277" lon="1.3063">
        <ele>150</ele>
        <time>2022-08-02T10:16:00Z</time>
      </trkpt>
      <trkpt lat="43.63277" lon="1.30628">
        <ele>150</ele>
        <time>2022-08-02T10:16:01Z</time>
      </trkpt>
      <trkpt lat="43.63278" lon="1.30618">
        <ele>151</ele>
        <time>2022-08-02T10:16:02Z</time>
      </trkpt>
      <trkpt lat="43.63278" lon="1.30616">
        <ele>151</ele>
        <time>2022-08-02T10:16:03Z</time>
      </trkpt>
      <trkpt lat="43.63278" lon="1.30614">
        <ele>151</ele>
        <time>2022-08-02T10:16:04Z</time>
      </trkpt>
      <trkpt lat="43.63278" lon="1.30612">
        <ele>150</ele>
        <time>2022-08-02T10:16:05Z</time>
      </trkpt>
      <trkpt lat="43.63279" lon="1.306">
        <ele>150</ele>
        <time>2022-08-02T10:16:06Z</time>
      </trkpt>
      <trkpt lat="43.6328" lon="1.30596">
        <ele>150</ele>
        <time>2022-08-02T10:16:07Z</time>
      </trkpt>
      <trkpt lat="43.63281" lon="1.30592">
        <ele>150</ele>
        <time>2022-08-02T10:16:08Z</time>
      </trkpt>
      <trkpt lat="43.63281" lon="1.3059">
        <ele>150</ele>
        <time>2022-08-02T10:16:09Z</time>
      </trkpt>
      <trkpt lat="43.63282" lon="1.30587">
        <ele>150</ele>
        <time>2022-08-02T10:16:11Z</time>
      </trkpt>
      <trkpt lat="43.63282" lon="1.30585">
        <ele>150</ele>
        <time>2022-08-02T10:16:12Z</time>
      </trkpt>
      <trkpt lat="43.63285" lon="1.30574">
        <ele>150</ele>
        <time>2022-08-02T10:16:13Z</time>
      </trkpt>
      <trkpt lat="43.63285" lon="1.30571">
        <ele>151</ele>
        <time>2022-08-02T10:16:14Z</time>
      </trkpt>
      <trkpt lat="43.63286" lon="1.30568">
        <ele>151</ele>
        <time>2022-08-02T10:16:15Z</time>
      </trkpt>
      <trkpt lat="43.63286" lon="1.30564">
        <ele>151</ele>
        <time>2022-08-02T10:16:16Z</time>
      </trkpt>
      <trkpt lat="43.63286" lon="1.30563">
        <ele>151</ele>
        <time>2022-08-02T10:16:17Z</time>
      </trkpt>
      <trkpt lat="43.63287" lon="1.30561">
        <ele>151</ele>
        <time>2022-08-02T10:16:18Z</time>
      </trkpt>
      <trkpt lat="43.63287" lon="1.30559">
        <ele>151</ele>
        <time>2022-08-02T10:16:19Z</time>
      </trkpt>
      <trkpt lat="43.63287" lon="1.30558">
        <ele>151</ele>
        <time>2022-08-02T10:16:20Z</time>
      </trkpt>
      <trkpt lat="43.63288" lon="1.30547">
        <ele>151</ele>
        <time>2022-08-02T10:16:21Z</time>
      </trkpt>
      <trkpt lat="43.63289" lon="1.30544">
        <ele>151</ele>
        <time>2022-08-02T10:16:22Z</time>
      </trkpt>
      <trkpt lat="43.63289" lon="1.3054">
        <ele>151</ele>
        <time>2022-08-02T10:16:23Z</time>
      </trkpt>
      <trkpt lat="43.6329" lon="1.30537">
        <ele>151</ele>
        <time>2022-08-02T10:16:24Z</time>
      </trkpt>
      <trkpt lat="43.6329" lon="1.30534">
        <ele>151</ele>
        <time>2022-08-02T10:16:25Z</time>
      </trkpt>
      <trkpt lat="43.6329" lon="1.3053">
        <ele>151</ele>
        <time>2022-08-02T10:16:26Z</time>
      </trkpt>
      <trkpt lat="43.6329" lon="1.30527">
        <ele>151</ele>
        <time>2022-08-02T10:16:27Z</time>
      </trkpt>
      <trkpt lat="43.6329" lon="1.30523">
        <ele>151</ele>
        <time>2022-08-02T10:16:28Z</time>
      </trkpt>
      <trkpt lat="43.63291" lon="1.30519">
        <ele>151</ele>
        <time>2022-08-02T10:16:30Z</time>
      </trkpt>
      <trkpt lat="43.63292" lon="1.30514">
        <ele>151</ele>
        <time>2022-08-02T10:16:31Z</time>
      </trkpt>
      <trkpt lat="43.63293" lon="1.3051">
        <ele>151</ele>
        <time>2022-08-02T10:16:32Z</time>
      </trkpt>
      <trkpt lat="43.63294" lon="1.30509">
        <ele>152</ele>
        <time>2022-08-02T10:16:33Z</time>
      </trkpt>
      <trkpt lat="43.63295" lon="1.30507">
        <ele>152</ele>
        <time>2022-08-02T10:16:34Z</time>
      </trkpt>
      <trkpt lat="43.63296" lon="1.30506">
        <ele>152</ele>
        <time>2022-08-02T10:16:35Z</time>
      </trkpt>
      <trkpt lat="43.63296" lon="1.30504">
        <ele>152</ele>
        <time>2022-08-02T10:16:36Z</time>
      </trkpt>
      <trkpt lat="43.633" lon="1.30496">
        <ele>152</ele>
        <time>2022-08-02T10:16:37Z</time>
      </trkpt>
      <trkpt lat="43.63301" lon="1.30493">
        <ele>152</ele>
        <time>2022-08-02T10:16:38Z</time>
      </trkpt>
      <trkpt lat="43.63302" lon="1.30491">
        <ele>152</ele>
        <time>2022-08-02T10:16:39Z</time>
      </trkpt>
      <trkpt lat="43.63303" lon="1.30488">
        <ele>152</ele>
        <time>2022-08-02T10:16:40Z</time>
      </trkpt>
      <trkpt lat="43.63304" lon="1.30485">
        <ele>152</ele>
        <time>2022-08-02T10:16:41Z</time>
      </trkpt>
      <trkpt lat="43.63307" lon="1.3048">
        <ele>152</ele>
        <time>2022-08-02T10:16:42Z</time>
      </trkpt>
      <trkpt lat="43.6331" lon="1.30474">
        <ele>152</ele>
        <time>2022-08-02T10:16:43Z</time>
      </trkpt>
      <trkpt lat="43.63311" lon="1.30471">
        <ele>152</ele>
        <time>2022-08-02T10:16:44Z</time>
      </trkpt>
      <trkpt lat="43.63311" lon="1.30468">
        <ele>152</ele>
        <time>2022-08-02T10:16:45Z</time>
      </trkpt>
      <trkpt lat="43.63312" lon="1.30464">
        <ele>152</ele>
        <time>2022-08-02T10:16:46Z</time>
      </trkpt>
      <trkpt lat="43.63312" lon="1.30461">
        <ele>151</ele>
        <time>2022-08-02T10:16:47Z</time>
      </trkpt>
      <trkpt lat="43.63313" lon="1.30458">
        <ele>151</ele>
        <time>2022-08-02T10:16:48Z</time>
      </trkpt>
      <trkpt lat="43.63314" lon="1.30454">
        <ele>151</ele>
        <time>2022-08-02T10:16:49Z</time>
      </trkpt>
      <trkpt lat="43.63315" lon="1.30451">
        <ele>151</ele>
        <time>2022-08-02T10:16:50Z</time>
      </trkpt>
      <trkpt lat="43.63315" lon="1.30447">
        <ele>151</ele>
        <time>2022-08-02T10:16:51Z</time>
      </trkpt>
      <trkpt lat="43.63315" lon="1.30446">
        <ele>151</ele>
        <time>2022-08-02T10:16:52Z</time>
      </trkpt>
      <trkpt lat="43.63315" lon="1.30444">
        <ele>151</ele>
        <time>2022-08-02T10:16:53Z</time>
      </trkpt>
      <trkpt lat="43.63315" lon="1.30442">
        <ele>151</ele>
        <time>2022-08-02T10:16:54Z</time>
      </trkpt>
      <trkpt lat="43.63315" lon="1.3044">
        <ele>151</ele>
        <time>2022-08-02T10:16:55Z</time>
      </trkpt>
      <trkpt lat="43.63315" lon="1.3043">
        <ele>151</ele>
        <time>2022-08-02T10:16:56Z</time>
      </trkpt>
      <trkpt lat="43.63315" lon="1.30427">
        <ele>151</ele>
        <time>2022-08-02T10:16:57Z</time>
      </trkpt>
      <trkpt lat="43.63315" lon="1.30425">
        <ele>151</ele>
        <time>2022-08-02T10:16:58Z</time>
      </trkpt>
      <trkpt lat="43.63315" lon="1.30422">
        <ele>151</ele>
        <time>2022-08-02T10:16:59Z</time>
      </trkpt>
      <trkpt lat="43.63314" lon="1.30419">
        <ele>151</ele>
        <time>2022-08-02T10:17:00Z</time>
      </trkpt>
      <trkpt lat="43.63315" lon="1.30416">
        <ele>151</ele>
        <time>2022-08-02T10:17:01Z</time>
      </trkpt>
      <trkpt lat="43.63315" lon="1.30412">
        <ele>151</ele>
        <time>2022-08-02T10:17:02Z</time>
      </trkpt>
      <trkpt lat="43.63316" lon="1.30409">
        <ele>151</ele>
        <time>2022-08-02T10:17:03Z</time>
      </trkpt>
      <trkpt lat="43.63316" lon="1.30406">
        <ele>151</ele>
        <time>2022-08-02T10:17:04Z</time>
      </trkpt>
      <trkpt lat="43.63317" lon="1.30402">
        <ele>151</ele>
        <time>2022-08-02T10:17:05Z</time>
      </trkpt>
      <trkpt lat="43.63317" lon="1.30398">
        <ele>151</ele>
        <time>2022-08-02T10:17:06Z</time>
      </trkpt>
      <trkpt lat="43.63317" lon="1.30394">
        <ele>151</ele>
        <time>2022-08-02T10:17:07Z</time>
      </trkpt>
      <trkpt lat="43.63318" lon="1.3039">
        <ele>151</ele>
        <time>2022-08-02T10:17:08Z</time>
      </trkpt>
      <trkpt lat="43.63318" lon="1.30389">
        <ele>151</ele>
        <time>2022-08-02T10:17:09Z</time>
      </trkpt>
      <trkpt lat="43.63318" lon="1.30387">
        <ele>151</ele>
        <time>2022-08-02T10:17:10Z</time>
      </trkpt>
      <trkpt lat="43.63318" lon="1.30385">
        <ele>151</ele>
        <time>2022-08-02T10:17:11Z</time>
      </trkpt>
      <trkpt lat="43.63319" lon="1.30383">
        <ele>151</ele>
        <time>2022-08-02T10:17:12Z</time>
      </trkpt>
      <trkpt lat="43.6332" lon="1.30373">
        <ele>151</ele>
        <time>2022-08-02T10:17:13Z</time>
      </trkpt>
      <trkpt lat="43.6332" lon="1.30369">
        <ele>151</ele>
        <time>2022-08-02T10:17:14Z</time>
      </trkpt>
      <trkpt lat="43.6332" lon="1.30366">
        <ele>151</ele>
        <time>2022-08-02T10:17:15Z</time>
      </trkpt>
      <trkpt lat="43.63319" lon="1.30362">
        <ele>151</ele>
        <time>2022-08-02T10:17:16Z</time>
      </trkpt>
      <trkpt lat="43.6332" lon="1.3036">
        <ele>151</ele>
        <time>2022-08-02T10:17:17Z</time>
      </trkpt>
      <trkpt lat="43.6332" lon="1.30358">
        <ele>151</ele>
        <time>2022-08-02T10:17:18Z</time>
      </trkpt>
      <trkpt lat="43.63321" lon="1.30356">
        <ele>151</ele>
        <time>2022-08-02T10:17:19Z</time>
      </trkpt>
      <trkpt lat="43.63321" lon="1.30354">
        <ele>151</ele>
        <time>2022-08-02T10:17:20Z</time>
      </trkpt>
      <trkpt lat="43.63321" lon="1.30351">
        <ele>151</ele>
        <time>2022-08-02T10:17:21Z</time>
      </trkpt>
      <trkpt lat="43.63322" lon="1.30349">
        <ele>151</ele>
        <time>2022-08-02T10:17:22Z</time>
      </trkpt>
      <trkpt lat="43.63321" lon="1.30346">
        <ele>151</ele>
        <time>2022-08-02T10:17:23Z</time>
      </trkpt>
      <trkpt lat="43.63321" lon="1.30343">
        <ele>151</ele>
        <time>2022-08-02T10:17:24Z</time>
      </trkpt>
      <trkpt lat="43.6332" lon="1.3034">
        <ele>152</ele>
        <time>2022-08-02T10:17:25Z</time>
      </trkpt>
      <trkpt lat="43.6332" lon="1.30336">
        <ele>152</ele>
        <time>2022-08-02T10:17:26Z</time>
      </trkpt>
      <trkpt lat="43.63319" lon="1.30334">
        <ele>152</ele>
        <time>2022-08-02T10:17:27Z</time>
      </trkpt>
      <trkpt lat="43.63318" lon="1.30331">
        <ele>152</ele>
        <time>2022-08-02T10:17:28Z</time>
      </trkpt>
      <trkpt lat="43.63317" lon="1.30328">
        <ele>152</ele>
        <time>2022-08-02T10:17:29Z</time>
      </trkpt>
      <trkpt lat="43.63316" lon="1.30326">
        <ele>152</ele>
        <time>2022-08-02T10:17:30Z</time>
      </trkpt>
      <trkpt lat="43.63316" lon="1.30323">
        <ele>152</ele>
        <time>2022-08-02T10:17:31Z</time>
      </trkpt>
      <trkpt lat="43.63315" lon="1.3032">
        <ele>152</ele>
        <time>2022-08-02T10:17:32Z</time>
      </trkpt>
      <trkpt lat="43.63314" lon="1.30318">
        <ele>152</ele>
        <time>2022-08-02T10:17:33Z</time>
      </trkpt>
      <trkpt lat="43.63313" lon="1.30316">
        <ele>152</ele>
        <time>2022-08-02T10:17:34Z</time>
      </trkpt>
      <trkpt lat="43.63312" lon="1.30313">
        <ele>152</ele>
        <time>2022-08-02T10:17:35Z</time>
      </trkpt>
      <trkpt lat="43.63311" lon="1.30311">
        <ele>152</ele>
        <time>2022-08-02T10:17:36Z</time>
      </trkpt>
      <trkpt lat="43.63311" lon="1.30308">
        <ele>152</ele>
        <time>2022-08-02T10:17:37Z</time>
      </trkpt>
      <trkpt lat="43.6331" lon="1.30304">
        <ele>152</ele>
        <time>2022-08-02T10:17:38Z</time>
      </trkpt>
      <trkpt lat="43.63309" lon="1.30301">
        <ele>152</ele>
        <time>2022-08-02T10:17:39Z</time>
      </trkpt>
      <trkpt lat="43.63309" lon="1.30298">
        <ele>152</ele>
        <time>2022-08-02T10:17:40Z</time>
      </trkpt>
      <trkpt lat="43.63308" lon="1.30297">
        <ele>152</ele>
        <time>2022-08-02T10:17:41Z</time>
      </trkpt>
      <trkpt lat="43.63308" lon="1.30295">
        <ele>152</ele>
        <time>2022-08-02T10:17:42Z</time>
      </trkpt>
      <trkpt lat="43.63307" lon="1.30294">
        <ele>152</ele>
        <time>2022-08-02T10:17:43Z</time>
      </trkpt>
      <trkpt lat="43.63306" lon="1.30293">
        <ele>152</ele>
        <time>2022-08-02T10:17:44Z</time>
      </trkpt>
      <trkpt lat="43.63306" lon="1.30292">
        <ele>152</ele>
        <time>2022-08-02T10:17:45Z</time>
      </trkpt>
      <trkpt lat="43.63302" lon="1.30284">
        <ele>152</ele>
        <time>2022-08-02T10:17:46Z</time>
      </trkpt>
      <trkpt lat="43.63302" lon="1.30282">
        <ele>152</ele>
        <time>2022-08-02T10:17:47Z</time>
      </trkpt>
      <trkpt lat="43.63301" lon="1.30281">
        <ele>152</ele>
        <time>2022-08-02T10:17:48Z</time>
      </trkpt>
      <trkpt lat="43.633" lon="1.30279">
        <ele>152</ele>
        <time>2022-08-02T10:17:49Z</time>
      </trkpt>
      <trkpt lat="43.63296" lon="1.30271">
        <ele>152</ele>
        <time>2022-08-02T10:17:50Z</time>
      </trkpt>
      <trkpt lat="43.63295" lon="1.30268">
        <ele>152</ele>
        <time>2022-08-02T10:17:51Z</time>
      </trkpt>
      <trkpt lat="43.63293" lon="1.30265">
        <ele>152</ele>
        <time>2022-08-02T10:17:52Z</time>
      </trkpt>
      <trkpt lat="43.63292" lon="1.30263">
        <ele>152</ele>
        <time>2022-08-02T10:17:53Z</time>
      </trkpt>
      <trkpt lat="43.63291" lon="1.30261">
        <ele>152</ele>
        <time>2022-08-02T10:17:54Z</time>
      </trkpt>
      <trkpt lat="43.6329" lon="1.3026">
        <ele>152</ele>
        <time>2022-08-02T10:17:55Z</time>
      </trkpt>
      <trkpt lat="43.63289" lon="1.30258">
        <ele>152</ele>
        <time>2022-08-02T10:17:56Z</time>
      </trkpt>
      <trkpt lat="43.63289" lon="1.30257">
        <ele>152</ele>
        <time>2022-08-02T10:17:57Z</time>
      </trkpt>
      <trkpt lat="43.63284" lon="1.3025">
        <ele>152</ele>
        <time>2022-08-02T10:17:58Z</time>
      </trkpt>
      <trkpt lat="43.63283" lon="1.30249">
        <ele>152</ele>
        <time>2022-08-02T10:17:59Z</time>
      </trkpt>
      <trkpt lat="43.63282" lon="1.30248">
        <ele>152</ele>
        <time>2022-08-02T10:18:00Z</time>
      </trkpt>
      <trkpt lat="43.63281" lon="1.30247">
        <ele>152</ele>
        <time>2022-08-02T10:18:01Z</time>
      </trkpt>
      <trkpt lat="43.63276" lon="1.30241">
        <ele>152</ele>
        <time>2022-08-02T10:18:02Z</time>
      </trkpt>
      <trkpt lat="43.63275" lon="1.3024">
        <ele>152</ele>
        <time>2022-08-02T10:18:03Z</time>
      </trkpt>
      <trkpt lat="43.63274" lon="1.3024">
        <ele>152</ele>
        <time>2022-08-02T10:18:04Z</time>
      </trkpt>
      <trkpt lat="43.63273" lon="1.30239">
        <ele>152</ele>
        <time>2022-08-02T10:18:05Z</time>
      </trkpt>
      <trkpt lat="43.63273" lon="1.30238">
        <ele>152</ele>
        <time>2022-08-02T10:18:06Z</time>
      </trkpt>
      <trkpt lat="43.63267" lon="1.30232">
        <ele>152</ele>
        <time>2022-08-02T10:18:07Z</time>
      </trkpt>
      <trkpt lat="43.63266" lon="1.30231">
        <ele>152</ele>
        <time>2022-08-02T10:18:08Z</time>
      </trkpt>
      <trkpt lat="43.63265" lon="1.3023">
        <ele>152</ele>
        <time>2022-08-02T10:18:09Z</time>
      </trkpt>
      <trkpt lat="43.63263" lon="1.30229">
        <ele>152</ele>
        <time>2022-08-02T10:18:10Z</time>
      </trkpt>
      <trkpt lat="43.63255" lon="1.30224">
        <ele>152</ele>
        <time>2022-08-02T10:18:11Z</time>
      </trkpt>
      <trkpt lat="43.63252" lon="1.30222">
        <ele>152</ele>
        <time>2022-08-02T10:18:12Z</time>
      </trkpt>
      <trkpt lat="43.6325" lon="1.30221">
        <ele>152</ele>
        <time>2022-08-02T10:18:13Z</time>
      </trkpt>
      <trkpt lat="43.63248" lon="1.30221">
        <ele>152</ele>
        <time>2022-08-02T10:18:14Z</time>
      </trkpt>
      <trkpt lat="43.63247" lon="1.3022">
        <ele>152</ele>
        <time>2022-08-02T10:18:15Z</time>
      </trkpt>
      <trkpt lat="43.63246" lon="1.3022">
        <ele>152</ele>
        <time>2022-08-02T10:18:16Z</time>
      </trkpt>
      <trkpt lat="43.63244" lon="1.30219">
        <ele>152</ele>
        <time>2022-08-02T10:18:17Z</time>
      </trkpt>
      <trkpt lat="43.63237" lon="1.30216">
        <ele>152</ele>
        <time>2022-08-02T10:18:18Z</time>
      </trkpt>
      <trkpt lat="43.63235" lon="1.30215">
        <ele>152</ele>
        <time>2022-08-02T10:18:19Z</time>
      </trkpt>
      <trkpt lat="43.63232" lon="1.30213">
        <ele>152</ele>
        <time>2022-08-02T10:18:20Z</time>
      </trkpt>
      <trkpt lat="43.6323" lon="1.30212">
        <ele>152</ele>
        <time>2022-08-02T10:18:21Z</time>
      </trkpt>
      <trkpt lat="43.63229" lon="1.30211">
        <ele>152</ele>
        <time>2022-08-02T10:18:22Z</time>
      </trkpt>
      <trkpt lat="43.63227" lon="1.3021">
        <ele>152</ele>
        <time>2022-08-02T10:18:23Z</time>
      </trkpt>
      <trkpt lat="43.63226" lon="1.30209">
        <ele>152</ele>
        <time>2022-08-02T10:18:24Z</time>
      </trkpt>
      <trkpt lat="43.63225" lon="1.30209">
        <ele>152</ele>
        <time>2022-08-02T10:18:25Z</time>
      </trkpt>
      <trkpt lat="43.63218" lon="1.30204">
        <ele>152</ele>
        <time>2022-08-02T10:18:26Z</time>
      </trkpt>
      <trkpt lat="43.63215" lon="1.30203">
        <ele>152</ele>
        <time>2022-08-02T10:18:27Z</time>
      </trkpt>
      <trkpt lat="43.63213" lon="1.30202">
        <ele>152</ele>
        <time>2022-08-02T10:18:28Z</time>
      </trkpt>
      <trkpt lat="43.63211" lon="1.302">
        <ele>152</ele>
        <time>2022-08-02T10:18:29Z</time>
      </trkpt>
      <trkpt lat="43.6321" lon="1.30199">
        <ele>152</ele>
        <time>2022-08-02T10:18:30Z</time>
      </trkpt>
      <trkpt lat="43.63208" lon="1.30198">
        <ele>152</ele>
        <time>2022-08-02T10:18:31Z</time>
      </trkpt>
      <trkpt lat="43.63207" lon="1.30197">
        <ele>152</ele>
        <time>2022-08-02T10:18:32Z</time>
      </trkpt>
      <trkpt lat="43.63206" lon="1.30196">
        <ele>152</ele>
        <time>2022-08-02T10:18:33Z</time>
      </trkpt>
      <trkpt lat="43.632" lon="1.30191">
        <ele>152</ele>
        <time>2022-08-02T10:18:34Z</time>
      </trkpt>
      <trkpt lat="43.63199" lon="1.3019">
        <ele>152</ele>
        <time>2022-08-02T10:18:35Z</time>
      </trkpt>
      <trkpt lat="43.63198" lon="1.30189">
        <ele>152</ele>
        <time>2022-08-02T10:18:36Z</time>
      </trkpt>
      <trkpt lat="43.63197" lon="1.30188">
        <ele>152</ele>
        <time>2022-08-02T10:18:37Z</time>
      </trkpt>
      <trkpt lat="43.6319" lon="1.30183">
        <ele>152</ele>
        <time>2022-08-02T10:18:38Z</time>
      </trkpt>
      <trkpt lat="43.63189" lon="1.30181">
        <ele>152</ele>
        <time>2022-08-02T10:18:39Z</time>
      </trkpt>
      <trkpt lat="43.63187" lon="1.30179">
        <ele>152</ele>
        <time>2022-08-02T10:18:40Z</time>
      </trkpt>
      <trkpt lat="43.63185" lon="1.30177">
        <ele>152</ele>
        <time>2022-08-02T10:18:41Z</time>
      </trkpt>
      <trkpt lat="43.63183" lon="1.30176">
        <ele>152</ele>
        <time>2022-08-02T10:18:42Z</time>
      </trkpt>
      <trkpt lat="43.6318" lon="1.30173">
        <ele>152</ele>
        <time>2022-08-02T10:18:43Z</time>
      </trkpt>
      <trkpt lat="43.63178" lon="1.30171">
        <ele>152</ele>
        <time>2022-08-02T10:18:44Z</time>
      </trkpt>
      <trkpt lat="43.63175" lon="1.30169">
        <ele>152</ele>
        <time>2022-08-02T10:18:45Z</time>
      </trkpt>
      <trkpt lat="43.63174" lon="1.30168">
        <ele>152</ele>
        <time>2022-08-02T10:18:46Z</time>
      </trkpt>
      <trkpt lat="43.63173" lon="1.30166">
        <ele>152</ele>
        <time>2022-08-02T10:18:47Z</time>
      </trkpt>
      <trkpt lat="43.63172" lon="1.30165">
        <ele>152</ele>
        <time>2022-08-02T10:18:48Z</time>
      </trkpt>
      <trkpt lat="43.63171" lon="1.30164">
        <ele>152</ele>
        <time>2022-08-02T10:18:49Z</time>
      </trkpt>
      <trkpt lat="43.63165" lon="1.30158">
        <ele>152</ele>
        <time>2022-08-02T10:18:50Z</time>
      </trkpt>
      <trkpt lat="43.63164" lon="1.30157">
        <ele>152</ele>
        <time>2022-08-02T10:18:51Z</time>
      </trkpt>
      <trkpt lat="43.63164" lon="1.30156">
        <ele>152</ele>
        <time>2022-08-02T10:18:52Z</time>
      </trkpt>
      <trkpt lat="43.63163" lon="1.30155">
        <ele>152</ele>
        <time>2022-08-02T10:18:53Z</time>
      </trkpt>
      <trkpt lat="43.63162" lon="1.30154">
        <ele>152</ele>
        <time>2022-08-02T10:18:54Z</time>
      </trkpt>
      <trkpt lat="43.63156" lon="1.30149">
        <ele>152</ele>
        <time>2022-08-02T10:18:55Z</time>
      </trkpt>
      <trkpt lat="43.63154" lon="1.30148">
        <ele>152</ele>
        <time>2022-08-02T10:18:56Z</time>
      </trkpt>
      <trkpt lat="43.63153" lon="1.30147">
        <ele>152</ele>
        <time>2022-08-02T10:18:57Z</time>
      </trkpt>
      <trkpt lat="43.63152" lon="1.30146">
        <ele>152</ele>
        <time>2022-08-02T10:18:58Z</time>
      </trkpt>
      <trkpt lat="43.63146" lon="1.3014">
        <ele>152</ele>
        <time>2022-08-02T10:18:59Z</time>
      </trkpt>
      <trkpt lat="43.63144" lon="1.30138">
        <ele>152</ele>
        <time>2022-08-02T10:19:00Z</time>
      </trkpt>
      <trkpt lat="43.63142" lon="1.30135">
        <ele>152</ele>
        <time>2022-08-02T10:19:01Z</time>
      </trkpt>
      <trkpt lat="43.6314" lon="1.30133">
        <ele>152</ele>
        <time>2022-08-02T10:19:02Z</time>
      </trkpt>
      <trkpt lat="43.63138" lon="1.30131">
        <ele>152</ele>
        <time>2022-08-02T10:19:03Z</time>
      </trkpt>
      <trkpt lat="43.63136" lon="1.30129">
        <ele>152</ele>
        <time>2022-08-02T10:19:04Z</time>
      </trkpt>
      <trkpt lat="43.63134" lon="1.30127">
        <ele>152</ele>
        <time>2022-08-02T10:19:05Z</time>
      </trkpt>
      <trkpt lat="43.63132" lon="1.30125">
        <ele>152</ele>
        <time>2022-08-02T10:19:06Z</time>
      </trkpt>
      <trkpt lat="43.6313" lon="1.30124">
        <ele>152</ele>
        <time>2022-08-02T10:19:07Z</time>
      </trkpt>
      <trkpt lat="43.63127" lon="1.30123">
        <ele>152</ele>
        <time>2022-08-02T10:19:08Z</time>
      </trkpt>
      <trkpt lat="43.63125" lon="1.30122">
        <ele>152</ele>
        <time>2022-08-02T10:19:09Z</time>
      </trkpt>
      <trkpt lat="43.63123" lon="1.30121">
        <ele>152</ele>
        <time>2022-08-02T10:19:10Z</time>
      </trkpt>
      <trkpt lat="43.63121" lon="1.3012">
        <ele>152</ele>
        <time>2022-08-02T10:19:11Z</time>
      </trkpt>
      <trkpt lat="43.63119" lon="1.30118">
        <ele>152</ele>
        <time>2022-08-02T10:19:12Z</time>
      </trkpt>
      <trkpt lat="43.63117" lon="1.30117">
        <ele>152</ele>
        <time>2022-08-02T10:19:13Z</time>
      </trkpt>
      <trkpt lat="43.63115" lon="1.30116">
        <ele>152</ele>
        <time>2022-08-02T10:19:14Z</time>
      </trkpt>
      <trkpt lat="43.63112" lon="1.30114">
        <ele>152</ele>
        <time>2022-08-02T10:19:15Z</time>
      </trkpt>
      <trkpt lat="43.6311" lon="1.30113">
        <ele>152</ele>
        <time>2022-08-02T10:19:16Z</time>
      </trkpt>
      <trkpt lat="43.63108" lon="1.30111">
        <ele>152</ele>
        <time>2022-08-02T10:19:17Z</time>
      </trkpt>
      <trkpt lat="43.63106" lon="1.30108">
        <ele>152</ele>
        <time>2022-08-02T10:19:18Z</time>
      </trkpt>
      <trkpt lat="43.63103" lon="1.30106">
        <ele>152</ele>
        <time>2022-08-02T10:19:19Z</time>
      </trkpt>
      <trkpt lat="43.63099" lon="1.30101">
        <ele>152</ele>
        <time>2022-08-02T10:19:20Z</time>
      </trkpt>
      <trkpt lat="43.63099" lon="1.30101">
        <ele>152</ele>
        <time>2022-08-02T10:19:21Z</time>
      </trkpt>
      <trkpt lat="43.63097" lon="1.30099">
        <ele>152</ele>
        <time>2022-08-02T10:19:22Z</time>
      </trkpt>
      <trkpt lat="43.63094" lon="1.30097">
        <ele>152</ele>
        <time>2022-08-02T10:19:23Z</time>
      </trkpt>
      <trkpt lat="43.63092" lon="1.30095">
        <ele>152</ele>
        <time>2022-08-02T10:19:24Z</time>
      </trkpt>
      <trkpt lat="43.6309" lon="1.30093">
        <ele>152</ele>
        <time>2022-08-02T10:19:25Z</time>
      </trkpt>
      <trkpt lat="43.63088" lon="1.30091">
        <ele>152</ele>
        <time>2022-08-02T10:19:26Z</time>
      </trkpt>
      <trkpt lat="43.63085" lon="1.30088">
        <ele>152</ele>
        <time>2022-08-02T10:19:27Z</time>
      </trkpt>
      <trkpt lat="43.63083" lon="1.30086">
        <ele>152</ele>
        <time>2022-08-02T10:19:28Z</time>
      </trkpt>
      <trkpt lat="43.63081" lon="1.30083">
        <ele>152</ele>
        <time>2022-08-02T10:19:29Z</time>
      </trkpt>
      <trkpt lat="43.63079" lon="1.30081">
        <ele>152</ele>
        <time>2022-08-02T10:19:30Z</time>
      </trkpt>
      <trkpt lat="43.63077" lon="1.30078">
        <ele>152</ele>
        <time>2022-08-02T10:19:31Z</time>
      </trkpt>
      <trkpt lat="43.63075" lon="1.30076">
        <ele>152</ele>
        <time>2022-08-02T10:19:32Z</time>
      </trkpt>
      <trkpt lat="43.63073" lon="1.30074">
        <ele>152</ele>
        <time>2022-08-02T10:19:33Z</time>
      </trkpt>
      <trkpt lat="43.63071" lon="1.30072">
        <ele>152</ele>
        <time>2022-08-02T10:19:34Z</time>
      </trkpt>
      <trkpt lat="43.63069" lon="1.3007">
        <ele>152</ele>
        <time>2022-08-02T10:19:35Z</time>
      </trkpt>
      <trkpt lat="43.63067" lon="1.30068">
        <ele>152</ele>
        <time>2022-08-02T10:19:36Z</time>
      </trkpt>
      <trkpt lat="43.63065" lon="1.30066">
        <ele>152</ele>
        <time>2022-08-02T10:19:37Z</time>
      </trkpt>
      <trkpt lat="43.63063" lon="1.30064">
        <ele>151</ele>
        <time>2022-08-02T10:19:38Z</time>
      </trkpt>
      <trkpt lat="43.63061" lon="1.30061">
        <ele>152</ele>
        <time>2022-08-02T10:19:39Z</time>
      </trkpt>
      <trkpt lat="43.63059" lon="1.30059">
        <ele>152</ele>
        <time>2022-08-02T10:19:40Z</time>
      </trkpt>
      <trkpt lat="43.63057" lon="1.30057">
        <ele>152</ele>
        <time>2022-08-02T10:19:41Z</time>
      </trkpt>
      <trkpt lat="43.63054" lon="1.30055">
        <ele>152</ele>
        <time>2022-08-02T10:19:42Z</time>
      </trkpt>
      <trkpt lat="43.63052" lon="1.30054">
        <ele>152</ele>
        <time>2022-08-02T10:19:43Z</time>
      </trkpt>
      <trkpt lat="43.6305" lon="1.30052">
        <ele>152</ele>
        <time>2022-08-02T10:19:44Z</time>
      </trkpt>
      <trkpt lat="43.63048" lon="1.3005">
        <ele>152</ele>
        <time>2022-08-02T10:19:45Z</time>
      </trkpt>
      <trkpt lat="43.63046" lon="1.30049">
        <ele>152</ele>
        <time>2022-08-02T10:19:46Z</time>
      </trkpt>
      <trkpt lat="43.63044" lon="1.30047">
        <ele>152</ele>
        <time>2022-08-02T10:19:47Z</time>
      </trkpt>
      <trkpt lat="43.63041" lon="1.30046">
        <ele>152</ele>
        <time>2022-08-02T10:19:48Z</time>
      </trkpt>
      <trkpt lat="43.63039" lon="1.30045">
        <ele>152</ele>
        <time>2022-08-02T10:19:49Z</time>
      </trkpt>
      <trkpt lat="43.63037" lon="1.30043">
        <ele>152</ele>
        <time>2022-08-02T10:19:50Z</time>
      </trkpt>
      <trkpt lat="43.63035" lon="1.30042">
        <ele>152</ele>
        <time>2022-08-02T10:19:51Z</time>
      </trkpt>
      <trkpt lat="43.63032" lon="1.30041">
        <ele>152</ele>
        <time>2022-08-02T10:19:52Z</time>
      </trkpt>
      <trkpt lat="43.6303" lon="1.30041">
        <ele>152</ele>
        <time>2022-08-02T10:19:53Z</time>
      </trkpt>
      <trkpt lat="43.63027" lon="1.30041">
        <ele>152</ele>
        <time>2022-08-02T10:19:54Z</time>
      </trkpt>
      <trkpt lat="43.63025" lon="1.30041">
        <ele>152</ele>
        <time>2022-08-02T10:19:55Z</time>
      </trkpt>
      <trkpt lat="43.63022" lon="1.30041">
        <ele>152</ele>
        <time>2022-08-02T10:19:56Z</time>
      </trkpt>
      <trkpt lat="43.63019" lon="1.30041">
        <ele>152</ele>
        <time>2022-08-02T10:19:57Z</time>
      </trkpt>
      <trkpt lat="43.63015" lon="1.30041">
        <ele>152</ele>
        <time>2022-08-02T10:19:58Z</time>
      </trkpt>
      <trkpt lat="43.63014" lon="1.30041">
        <ele>152</ele>
        <time>2022-08-02T10:19:59Z</time>
      </trkpt>
      <trkpt lat="43.63011" lon="1.30042">
        <ele>152</ele>
        <time>2022-08-02T10:20:00Z</time>
      </trkpt>
      <trkpt lat="43.63009" lon="1.30042">
        <ele>152</ele>
        <time>2022-08-02T10:20:01Z</time>
      </trkpt>
      <trkpt lat="43.63006" lon="1.30043">
        <ele>151</ele>
        <time>2022-08-02T10:20:02Z</time>
      </trkpt>
      <trkpt lat="43.63003" lon="1.30044">
        <ele>151</ele>
        <time>2022-08-02T10:20:03Z</time>
      </trkpt>
      <trkpt lat="43.63001" lon="1.30045">
        <ele>151</ele>
        <time>2022-08-02T10:20:04Z</time>
      </trkpt>
      <trkpt lat="43.62998" lon="1.30046">
        <ele>152</ele>
        <time>2022-08-02T10:20:05Z</time>
      </trkpt>
      <trkpt lat="43.62996" lon="1.30046">
        <ele>152</ele>
        <time>2022-08-02T10:20:06Z</time>
      </trkpt>
      <trkpt lat="43.62993" lon="1.30047">
        <ele>151</ele>
        <time>2022-08-02T10:20:07Z</time>
      </trkpt>
      <trkpt lat="43.62991" lon="1.30048">
        <ele>151</ele>
        <time>2022-08-02T10:20:08Z</time>
      </trkpt>
      <trkpt lat="43.62988" lon="1.30049">
        <ele>151</ele>
        <time>2022-08-02T10:20:09Z</time>
      </trkpt>
      <trkpt lat="43.62986" lon="1.3005">
        <ele>151</ele>
        <time>2022-08-02T10:20:10Z</time>
      </trkpt>
      <trkpt lat="43.62984" lon="1.30051">
        <ele>151</ele>
        <time>2022-08-02T10:20:11Z</time>
      </trkpt>
      <trkpt lat="43.62981" lon="1.30051">
        <ele>151</ele>
        <time>2022-08-02T10:20:12Z</time>
      </trkpt>
      <trkpt lat="43.62978" lon="1.30052">
        <ele>151</ele>
        <time>2022-08-02T10:20:13Z</time>
      </trkpt>
      <trkpt lat="43.62976" lon="1.30053">
        <ele>151</ele>
        <time>2022-08-02T10:20:14Z</time>
      </trkpt>
      <trkpt lat="43.62973" lon="1.30054">
        <ele>151</ele>
        <time>2022-08-02T10:20:15Z</time>
      </trkpt>
      <trkpt lat="43.62971" lon="1.30055">
        <ele>151</ele>
        <time>2022-08-02T10:20:16Z</time>
      </trkpt>
      <trkpt lat="43.62968" lon="1.30056">
        <ele>151</ele>
        <time>2022-08-02T10:20:17Z</time>
      </trkpt>
      <trkpt lat="43.62966" lon="1.30056">
        <ele>151</ele>
        <time>2022-08-02T10:20:18Z</time>
      </trkpt>
      <trkpt lat="43.62963" lon="1.30057">
        <ele>151</ele>
        <time>2022-08-02T10:20:19Z</time>
      </trkpt>
      <trkpt lat="43.62961" lon="1.30057">
        <ele>152</ele>
        <time>2022-08-02T10:20:20Z</time>
      </trkpt>
      <trkpt lat="43.62958" lon="1.30058">
        <ele>152</ele>
        <time>2022-08-02T10:20:21Z</time>
      </trkpt>
      <trkpt lat="43.62956" lon="1.30059">
        <ele>152</ele>
        <time>2022-08-02T10:20:22Z</time>
      </trkpt>
      <trkpt lat="43.62954" lon="1.30059">
        <ele>151</ele>
        <time>2022-08-02T10:20:23Z</time>
      </trkpt>
      <trkpt lat="43.62951" lon="1.3006">
        <ele>151</ele>
        <time>2022-08-02T10:20:24Z</time>
      </trkpt>
      <trkpt lat="43.62949" lon="1.30061">
        <ele>151</ele>
        <time>2022-08-02T10:20:25Z</time>
      </trkpt>
      <trkpt lat="43.62946" lon="1.30062">
        <ele>151</ele>
        <time>2022-08-02T10:20:26Z</time>
      </trkpt>
      <trkpt lat="43.62944" lon="1.30063">
        <ele>151</ele>
        <time>2022-08-02T10:20:27Z</time>
      </trkpt>
      <trkpt lat="43.62942" lon="1.30063">
        <ele>151</ele>
        <time>2022-08-02T10:20:28Z</time>
      </trkpt>
      <trkpt lat="43.62939" lon="1.30064">
        <ele>151</ele>
        <time>2022-08-02T10:20:29Z</time>
      </trkpt>
      <trkpt lat="43.62937" lon="1.30064">
        <ele>151</ele>
        <time>2022-08-02T10:20:30Z</time>
      </trkpt>
      <trkpt lat="43.62934" lon="1.30065">
        <ele>151</ele>
        <time>2022-08-02T10:20:31Z</time>
      </trkpt>
      <trkpt lat="43.62932" lon="1.30066">
        <ele>151</ele>
        <time>2022-08-02T10:20:32Z</time>
      </trkpt>
      <trkpt lat="43.62929" lon="1.30067">
        <ele>151</ele>
        <time>2022-08-02T10:20:33Z</time>
      </trkpt>
      <trkpt lat="43.62927" lon="1.30069">
        <ele>151</ele>
        <time>2022-08-02T10:20:34Z</time>
      </trkpt>
      <trkpt lat="43.62924" lon="1.30069">
        <ele>151</ele>
        <time>2022-08-02T10:20:35Z</time>
      </trkpt>
      <trkpt lat="43.62922" lon="1.30069">
        <ele>151</ele>
        <time>2022-08-02T10:20:36Z</time>
      </trkpt>
      <trkpt lat="43.62919" lon="1.30069">
        <ele>151</ele>
        <time>2022-08-02T10:20:37Z</time>
      </trkpt>
      <trkpt lat="43.62917" lon="1.3007">
        <ele>151</ele>
        <time>2022-08-02T10:20:38Z</time>
      </trkpt>
      <trkpt lat="43.62914" lon="1.3007">
        <ele>151</ele>
        <time>2022-08-02T10:20:39Z</time>
      </trkpt>
      <trkpt lat="43.62912" lon="1.30071">
        <ele>151</ele>
        <time>2022-08-02T10:20:40Z</time>
      </trkpt>
      <trkpt lat="43.62909" lon="1.30071">
        <ele>151</ele>
        <time>2022-08-02T10:20:41Z</time>
      </trkpt>
      <trkpt lat="43.62906" lon="1.30071">
        <ele>151</ele>
        <time>2022-08-02T10:20:42Z</time>
      </trkpt>
      <trkpt lat="43.62904" lon="1.3007">
        <ele>151</ele>
        <time>2022-08-02T10:20:43Z</time>
      </trkpt>
      <trkpt lat="43.62901" lon="1.30069">
        <ele>151</ele>
        <time>2022-08-02T10:20:44Z</time>
      </trkpt>
      <trkpt lat="43.62899" lon="1.30068">
        <ele>151</ele>
        <time>2022-08-02T10:20:45Z</time>
      </trkpt>
      <trkpt lat="43.62897" lon="1.30067">
        <ele>151</ele>
        <time>2022-08-02T10:20:46Z</time>
      </trkpt>
      <trkpt lat="43.62894" lon="1.30065">
        <ele>151</ele>
        <time>2022-08-02T10:20:47Z</time>
      </trkpt>
      <trkpt lat="43.62892" lon="1.30064">
        <ele>151</ele>
        <time>2022-08-02T10:20:48Z</time>
      </trkpt>
      <trkpt lat="43.6289" lon="1.30062">
        <ele>151</ele>
        <time>2022-08-02T10:20:49Z</time>
      </trkpt>
      <trkpt lat="43.62887" lon="1.30061">
        <ele>151</ele>
        <time>2022-08-02T10:20:50Z</time>
      </trkpt>
      <trkpt lat="43.62885" lon="1.3006">
        <ele>151</ele>
        <time>2022-08-02T10:20:51Z</time>
      </trkpt>
      <trkpt lat="43.62882" lon="1.30059">
        <ele>151</ele>
        <time>2022-08-02T10:20:52Z</time>
      </trkpt>
      <trkpt lat="43.6288" lon="1.30058">
        <ele>151</ele>
        <time>2022-08-02T10:20:53Z</time>
      </trkpt>
      <trkpt lat="43.62877" lon="1.30056">
        <ele>152</ele>
        <time>2022-08-02T10:20:54Z</time>
      </trkpt>
      <trkpt lat="43.62875" lon="1.30055">
        <ele>152</ele>
        <time>2022-08-02T10:20:55Z</time>
      </trkpt>
      <trkpt lat="43.62872" lon="1.30054">
        <ele>152</ele>
        <time>2022-08-02T10:20:56Z</time>
      </trkpt>
      <trkpt lat="43.6287" lon="1.30052">
        <ele>152</ele>
        <time>2022-08-02T10:20:57Z</time>
      </trkpt>
      <trkpt lat="43.62867" lon="1.3005">
        <ele>152</ele>
        <time>2022-08-02T10:20:58Z</time>
      </trkpt>
      <trkpt lat="43.62865" lon="1.30049">
        <ele>152</ele>
        <time>2022-08-02T10:20:59Z</time>
      </trkpt>
      <trkpt lat="43.62862" lon="1.30048">
        <ele>152</ele>
        <time>2022-08-02T10:21:00Z</time>
      </trkpt>
      <trkpt lat="43.6286" lon="1.30047">
        <ele>151</ele>
        <time>2022-08-02T10:21:01Z</time>
      </trkpt>
      <trkpt lat="43.62857" lon="1.30046">
        <ele>151</ele>
        <time>2022-08-02T10:21:02Z</time>
      </trkpt>
      <trkpt lat="43.62855" lon="1.30045">
        <ele>151</ele>
        <time>2022-08-02T10:21:03Z</time>
      </trkpt>
      <trkpt lat="43.62853" lon="1.30044">
        <ele>151</ele>
        <time>2022-08-02T10:21:04Z</time>
      </trkpt>
      <trkpt lat="43.6285" lon="1.30042">
        <ele>151</ele>
        <time>2022-08-02T10:21:05Z</time>
      </trkpt>
      <trkpt lat="43.62848" lon="1.30041">
        <ele>151</ele>
        <time>2022-08-02T10:21:06Z</time>
      </trkpt>
      <trkpt lat="43.62843" lon="1.30039">
        <ele>151</ele>
        <time>2022-08-02T10:21:07Z</time>
      </trkpt>
      <trkpt lat="43.62843" lon="1.30039">
        <ele>151</ele>
        <time>2022-08-02T10:21:08Z</time>
      </trkpt>
      <trkpt lat="43.62841" lon="1.30038">
        <ele>151</ele>
        <time>2022-08-02T10:21:09Z</time>
      </trkpt>
      <trkpt lat="43.62839" lon="1.30037">
        <ele>151</ele>
        <time>2022-08-02T10:21:10Z</time>
      </trkpt>
      <trkpt lat="43.62837" lon="1.30036">
        <ele>151</ele>
        <time>2022-08-02T10:21:11Z</time>
      </trkpt>
      <trkpt lat="43.62835" lon="1.30034">
        <ele>151</ele>
        <time>2022-08-02T10:21:12Z</time>
      </trkpt>
      <trkpt lat="43.62832" lon="1.30032">
        <ele>151</ele>
        <time>2022-08-02T10:21:13Z</time>
      </trkpt>
      <trkpt lat="43.6283" lon="1.30031">
        <ele>151</ele>
        <time>2022-08-02T10:21:14Z</time>
      </trkpt>
      <trkpt lat="43.62828" lon="1.30029">
        <ele>151</ele>
        <time>2022-08-02T10:21:15Z</time>
      </trkpt>
      <trkpt lat="43.62826" lon="1.30029">
        <ele>151</ele>
        <time>2022-08-02T10:21:16Z</time>
      </trkpt>
      <trkpt lat="43.62823" lon="1.30029">
        <ele>151</ele>
        <time>2022-08-02T10:21:17Z</time>
      </trkpt>
      <trkpt lat="43.62821" lon="1.3003">
        <ele>151</ele>
        <time>2022-08-02T10:21:18Z</time>
      </trkpt>
      <trkpt lat="43.62818" lon="1.30032">
        <ele>151</ele>
        <time>2022-08-02T10:21:19Z</time>
      </trkpt>
      <trkpt lat="43.62816" lon="1.30034">
        <ele>151</ele>
        <time>2022-08-02T10:21:20Z</time>
      </trkpt>
      <trkpt lat="43.62815" lon="1.30036">
        <ele>151</ele>
        <time>2022-08-02T10:21:21Z</time>
      </trkpt>
      <trkpt lat="43.62813" lon="1.3004">
        <ele>150</ele>
        <time>2022-08-02T10:21:22Z</time>
      </trkpt>
      <trkpt lat="43.62811" lon="1.30042">
        <ele>150</ele>
        <time>2022-08-02T10:21:23Z</time>
      </trkpt>
      <trkpt lat="43.6281" lon="1.30045">
        <ele>151</ele>
        <time>2022-08-02T10:21:24Z</time>
      </trkpt>
      <trkpt lat="43.62809" lon="1.30048">
        <ele>151</ele>
        <time>2022-08-02T10:21:25Z</time>
      </trkpt>
      <trkpt lat="43.62808" lon="1.30052">
        <ele>151</ele>
        <time>2022-08-02T10:21:26Z</time>
      </trkpt>
      <trkpt lat="43.62807" lon="1.30055">
        <ele>151</ele>
        <time>2022-08-02T10:21:27Z</time>
      </trkpt>
      <trkpt lat="43.62806" lon="1.30058">
        <ele>151</ele>
        <time>2022-08-02T10:21:28Z</time>
      </trkpt>
      <trkpt lat="43.62804" lon="1.30061">
        <ele>151</ele>
        <time>2022-08-02T10:21:29Z</time>
      </trkpt>
      <trkpt lat="43.62803" lon="1.30064">
        <ele>151</ele>
        <time>2022-08-02T10:21:30Z</time>
      </trkpt>
      <trkpt lat="43.62803" lon="1.30066">
        <ele>151</ele>
        <time>2022-08-02T10:21:31Z</time>
      </trkpt>
      <trkpt lat="43.62802" lon="1.30068">
        <ele>151</ele>
        <time>2022-08-02T10:21:32Z</time>
      </trkpt>
      <trkpt lat="43.62801" lon="1.3007">
        <ele>151</ele>
        <time>2022-08-02T10:21:33Z</time>
      </trkpt>
      <trkpt lat="43.62801" lon="1.30072">
        <ele>151</ele>
        <time>2022-08-02T10:21:34Z</time>
      </trkpt>
      <trkpt lat="43.62798" lon="1.3008">
        <ele>150</ele>
        <time>2022-08-02T10:21:35Z</time>
      </trkpt>
      <trkpt lat="43.62797" lon="1.30083">
        <ele>150</ele>
        <time>2022-08-02T10:21:36Z</time>
      </trkpt>
      <trkpt lat="43.62796" lon="1.30085">
        <ele>151</ele>
        <time>2022-08-02T10:21:37Z</time>
      </trkpt>
      <trkpt lat="43.62795" lon="1.30088">
        <ele>151</ele>
        <time>2022-08-02T10:21:38Z</time>
      </trkpt>
      <trkpt lat="43.62794" lon="1.30091">
        <ele>151</ele>
        <time>2022-08-02T10:21:39Z</time>
      </trkpt>
      <trkpt lat="43.62793" lon="1.30094">
        <ele>151</ele>
        <time>2022-08-02T10:21:40Z</time>
      </trkpt>
      <trkpt lat="43.62792" lon="1.30098">
        <ele>151</ele>
        <time>2022-08-02T10:21:41Z</time>
      </trkpt>
      <trkpt lat="43.62791" lon="1.30101">
        <ele>151</ele>
        <time>2022-08-02T10:21:42Z</time>
      </trkpt>
      <trkpt lat="43.6279" lon="1.30105">
        <ele>151</ele>
        <time>2022-08-02T10:21:43Z</time>
      </trkpt>
      <trkpt lat="43.62788" lon="1.30108">
        <ele>151</ele>
        <time>2022-08-02T10:21:44Z</time>
      </trkpt>
      <trkpt lat="43.62787" lon="1.30111">
        <ele>151</ele>
        <time>2022-08-02T10:21:45Z</time>
      </trkpt>
      <trkpt lat="43.62785" lon="1.30114">
        <ele>151</ele>
        <time>2022-08-02T10:21:46Z</time>
      </trkpt>
      <trkpt lat="43.62784" lon="1.30117">
        <ele>151</ele>
        <time>2022-08-02T10:21:47Z</time>
      </trkpt>
      <trkpt lat="43.62783" lon="1.30121">
        <ele>150</ele>
        <time>2022-08-02T10:21:48Z</time>
      </trkpt>
      <trkpt lat="43.62781" lon="1.30124">
        <ele>150</ele>
        <time>2022-08-02T10:21:49Z</time>
      </trkpt>
      <trkpt lat="43.6278" lon="1.30127">
        <ele>151</ele>
        <time>2022-08-02T10:21:50Z</time>
      </trkpt>
      <trkpt lat="43.62779" lon="1.3013">
        <ele>151</ele>
        <time>2022-08-02T10:21:51Z</time>
      </trkpt>
      <trkpt lat="43.62778" lon="1.30131">
        <ele>151</ele>
        <time>2022-08-02T10:21:52Z</time>
      </trkpt>
      <trkpt lat="43.62778" lon="1.30133">
        <ele>151</ele>
        <time>2022-08-02T10:21:53Z</time>
      </trkpt>
      <trkpt lat="43.62777" lon="1.30134">
        <ele>150</ele>
        <time>2022-08-02T10:21:54Z</time>
      </trkpt>
      <trkpt lat="43.62776" lon="1.30136">
        <ele>150</ele>
        <time>2022-08-02T10:21:55Z</time>
      </trkpt>
      <trkpt lat="43.62772" lon="1.30144">
        <ele>150</ele>
        <time>2022-08-02T10:21:56Z</time>
      </trkpt>
      <trkpt lat="43.6277" lon="1.30147">
        <ele>151</ele>
        <time>2022-08-02T10:21:57Z</time>
      </trkpt>
      <trkpt lat="43.62769" lon="1.30149">
        <ele>151</ele>
        <time>2022-08-02T10:21:58Z</time>
      </trkpt>
      <trkpt lat="43.62768" lon="1.30152">
        <ele>151</ele>
        <time>2022-08-02T10:21:59Z</time>
      </trkpt>
      <trkpt lat="43.62766" lon="1.30154">
        <ele>152</ele>
        <time>2022-08-02T10:22:00Z</time>
      </trkpt>
      <trkpt lat="43.62765" lon="1.30157">
        <ele>152</ele>
        <time>2022-08-02T10:22:01Z</time>
      </trkpt>
      <trkpt lat="43.62764" lon="1.30159">
        <ele>152</ele>
        <time>2022-08-02T10:22:02Z</time>
      </trkpt>
      <trkpt lat="43.62762" lon="1.30162">
        <ele>152</ele>
        <time>2022-08-02T10:22:03Z</time>
      </trkpt>
      <trkpt lat="43.62761" lon="1.30164">
        <ele>152</ele>
        <time>2022-08-02T10:22:04Z</time>
      </trkpt>
      <trkpt lat="43.62759" lon="1.30166">
        <ele>152</ele>
        <time>2022-08-02T10:22:05Z</time>
      </trkpt>
      <trkpt lat="43.62758" lon="1.30169">
        <ele>153</ele>
        <time>2022-08-02T10:22:06Z</time>
      </trkpt>
      <trkpt lat="43.62756" lon="1.30171">
        <ele>153</ele>
        <time>2022-08-02T10:22:07Z</time>
      </trkpt>
      <trkpt lat="43.62755" lon="1.30173">
        <ele>152</ele>
        <time>2022-08-02T10:22:08Z</time>
      </trkpt>
      <trkpt lat="43.62754" lon="1.30174">
        <ele>152</ele>
        <time>2022-08-02T10:22:09Z</time>
      </trkpt>
      <trkpt lat="43.62753" lon="1.30176">
        <ele>152</ele>
        <time>2022-08-02T10:22:10Z</time>
      </trkpt>
      <trkpt lat="43.62752" lon="1.30177">
        <ele>152</ele>
        <time>2022-08-02T10:22:11Z</time>
      </trkpt>
      <trkpt lat="43.62751" lon="1.30179">
        <ele>152</ele>
        <time>2022-08-02T10:22:12Z</time>
      </trkpt>
      <trkpt lat="43.62745" lon="1.30188">
        <ele>152</ele>
        <time>2022-08-02T10:22:13Z</time>
      </trkpt>
      <trkpt lat="43.62744" lon="1.30192">
        <ele>152</ele>
        <time>2022-08-02T10:22:14Z</time>
      </trkpt>
      <trkpt lat="43.62742" lon="1.30195">
        <ele>152</ele>
        <time>2022-08-02T10:22:15Z</time>
      </trkpt>
      <trkpt lat="43.62741" lon="1.30199">
        <ele>151</ele>
        <time>2022-08-02T10:22:16Z</time>
      </trkpt>
      <trkpt lat="43.6274" lon="1.30201">
        <ele>151</ele>
        <time>2022-08-02T10:22:17Z</time>
      </trkpt>
      <trkpt lat="43.62738" lon="1.30204">
        <ele>151</ele>
        <time>2022-08-02T10:22:18Z</time>
      </trkpt>
      <trkpt lat="43.62738" lon="1.30204">
        <ele>151</ele>
        <time>2022-08-02T10:22:19Z</time>
      </trkpt>
      <trkpt lat="43.62736" lon="1.30208">
        <ele>151</ele>
        <time>2022-08-02T10:22:20Z</time>
      </trkpt>
      <trkpt lat="43.62736" lon="1.30208">
        <ele>151</ele>
        <time>2022-08-02T10:22:21Z</time>
      </trkpt>
      <trkpt lat="43.62734" lon="1.30212">
        <ele>151</ele>
        <time>2022-08-02T10:22:22Z</time>
      </trkpt>
      <trkpt lat="43.62733" lon="1.30214">
        <ele>151</ele>
        <time>2022-08-02T10:22:23Z</time>
      </trkpt>
      <trkpt lat="43.62733" lon="1.30214">
        <ele>151</ele>
        <time>2022-08-02T10:22:24Z</time>
      </trkpt>
      <trkpt lat="43.62731" lon="1.30218">
        <ele>151</ele>
        <time>2022-08-02T10:22:25Z</time>
      </trkpt>
      <trkpt lat="43.62729" lon="1.3022">
        <ele>151</ele>
        <time>2022-08-02T10:22:26Z</time>
      </trkpt>
      <trkpt lat="43.62728" lon="1.30222">
        <ele>152</ele>
        <time>2022-08-02T10:22:27Z</time>
      </trkpt>
      <trkpt lat="43.62727" lon="1.30224">
        <ele>152</ele>
        <time>2022-08-02T10:22:28Z</time>
      </trkpt>
      <trkpt lat="43.62726" lon="1.30225">
        <ele>152</ele>
        <time>2022-08-02T10:22:29Z</time>
      </trkpt>
      <trkpt lat="43.62725" lon="1.30227">
        <ele>152</ele>
        <time>2022-08-02T10:22:30Z</time>
      </trkpt>
      <trkpt lat="43.62724" lon="1.30229">
        <ele>152</ele>
        <time>2022-08-02T10:22:31Z</time>
      </trkpt>
      <trkpt lat="43.62724" lon="1.30229">
        <ele>152</ele>
        <time>2022-08-02T10:22:32Z</time>
      </trkpt>
      <trkpt lat="43.62721" lon="1.30232">
        <ele>152</ele>
        <time>2022-08-02T10:22:33Z</time>
      </trkpt>
      <trkpt lat="43.62721" lon="1.30232">
        <ele>152</ele>
        <time>2022-08-02T10:22:34Z</time>
      </trkpt>
      <trkpt lat="43.6272" lon="1.30236">
        <ele>152</ele>
        <time>2022-08-02T10:22:35Z</time>
      </trkpt>
      <trkpt lat="43.6272" lon="1.30236">
        <ele>152</ele>
        <time>2022-08-02T10:22:36Z</time>
      </trkpt>
      <trkpt lat="43.62717" lon="1.30239">
        <ele>152</ele>
        <time>2022-08-02T10:22:37Z</time>
      </trkpt>
      <trkpt lat="43.62717" lon="1.30239">
        <ele>152</ele>
        <time>2022-08-02T10:22:38Z</time>
      </trkpt>
      <trkpt lat="43.62715" lon="1.30242">
        <ele>152</ele>
        <time>2022-08-02T10:22:39Z</time>
      </trkpt>
      <trkpt lat="43.62713" lon="1.30244">
        <ele>153</ele>
        <time>2022-08-02T10:22:40Z</time>
      </trkpt>
      <trkpt lat="43.62712" lon="1.30246">
        <ele>153</ele>
        <time>2022-08-02T10:22:41Z</time>
      </trkpt>
      <trkpt lat="43.62712" lon="1.30246">
        <ele>153</ele>
        <time>2022-08-02T10:22:42Z</time>
      </trkpt>
      <trkpt lat="43.62709" lon="1.30249">
        <ele>153</ele>
        <time>2022-08-02T10:22:43Z</time>
      </trkpt>
      <trkpt lat="43.62708" lon="1.30251">
        <ele>153</ele>
        <time>2022-08-02T10:22:44Z</time>
      </trkpt>
      <trkpt lat="43.62707" lon="1.30253">
        <ele>153</ele>
        <time>2022-08-02T10:22:45Z</time>
      </trkpt>
      <trkpt lat="43.62705" lon="1.30255">
        <ele>154</ele>
        <time>2022-08-02T10:22:46Z</time>
      </trkpt>
      <trkpt lat="43.62703" lon="1.30257">
        <ele>154</ele>
        <time>2022-08-02T10:22:47Z</time>
      </trkpt>
      <trkpt lat="43.62702" lon="1.30259">
        <ele>154</ele>
        <time>2022-08-02T10:22:48Z</time>
      </trkpt>
      <trkpt lat="43.627" lon="1.30261">
        <ele>154</ele>
        <time>2022-08-02T10:22:49Z</time>
      </trkpt>
      <trkpt lat="43.62699" lon="1.30262">
        <ele>155</ele>
        <time>2022-08-02T10:22:50Z</time>
      </trkpt>
      <trkpt lat="43.62697" lon="1.30265">
        <ele>155</ele>
        <time>2022-08-02T10:22:51Z</time>
      </trkpt>
      <trkpt lat="43.62695" lon="1.30267">
        <ele>155</ele>
        <time>2022-08-02T10:22:52Z</time>
      </trkpt>
      <trkpt lat="43.62693" lon="1.30269">
        <ele>155</ele>
        <time>2022-08-02T10:22:53Z</time>
      </trkpt>
      <trkpt lat="43.62691" lon="1.30271">
        <ele>156</ele>
        <time>2022-08-02T10:22:54Z</time>
      </trkpt>
      <trkpt lat="43.62689" lon="1.30273">
        <ele>156</ele>
        <time>2022-08-02T10:22:55Z</time>
      </trkpt>
      <trkpt lat="43.62688" lon="1.30275">
        <ele>156</ele>
        <time>2022-08-02T10:22:56Z</time>
      </trkpt>
      <trkpt lat="43.62686" lon="1.30277">
        <ele>156</ele>
        <time>2022-08-02T10:22:57Z</time>
      </trkpt>
      <trkpt lat="43.62684" lon="1.30279">
        <ele>155</ele>
        <time>2022-08-02T10:22:58Z</time>
      </trkpt>
      <trkpt lat="43.6268" lon="1.30283">
        <ele>156</ele>
        <time>2022-08-02T10:22:59Z</time>
      </trkpt>
      <trkpt lat="43.6268" lon="1.30283">
        <ele>156</ele>
        <time>2022-08-02T10:23:00Z</time>
      </trkpt>
      <trkpt lat="43.62678" lon="1.30285">
        <ele>156</ele>
        <time>2022-08-02T10:23:01Z</time>
      </trkpt>
      <trkpt lat="43.62677" lon="1.30287">
        <ele>156</ele>
        <time>2022-08-02T10:23:02Z</time>
      </trkpt>
      <trkpt lat="43.62675" lon="1.30289">
        <ele>156</ele>
        <time>2022-08-02T10:23:03Z</time>
      </trkpt>
      <trkpt lat="43.62674" lon="1.30291">
        <ele>156</ele>
        <time>2022-08-02T10:23:04Z</time>
      </trkpt>
      <trkpt lat="43.62672" lon="1.30294">
        <ele>156</ele>
        <time>2022-08-02T10:23:05Z</time>
      </trkpt>
      <trkpt lat="43.6267" lon="1.30295">
        <ele>157</ele>
        <time>2022-08-02T10:23:06Z</time>
      </trkpt>
      <trkpt lat="43.62669" lon="1.30297">
        <ele>157</ele>
        <time>2022-08-02T10:23:07Z</time>
      </trkpt>
      <trkpt lat="43.62665" lon="1.30301">
        <ele>157</ele>
        <time>2022-08-02T10:23:08Z</time>
      </trkpt>
      <trkpt lat="43.62665" lon="1.30301">
        <ele>157</ele>
        <time>2022-08-02T10:23:09Z</time>
      </trkpt>
      <trkpt lat="43.62663" lon="1.30303">
        <ele>158</ele>
        <time>2022-08-02T10:23:10Z</time>
      </trkpt>
      <trkpt lat="43.62661" lon="1.30306">
        <ele>158</ele>
        <time>2022-08-02T10:23:11Z</time>
      </trkpt>
      <trkpt lat="43.6266" lon="1.30308">
        <ele>158</ele>
        <time>2022-08-02T10:23:12Z</time>
      </trkpt>
      <trkpt lat="43.62658" lon="1.3031">
        <ele>158</ele>
        <time>2022-08-02T10:23:13Z</time>
      </trkpt>
      <trkpt lat="43.62656" lon="1.30312">
        <ele>158</ele>
        <time>2022-08-02T10:23:14Z</time>
      </trkpt>
      <trkpt lat="43.62654" lon="1.30314">
        <ele>158</ele>
        <time>2022-08-02T10:23:15Z</time>
      </trkpt>
      <trkpt lat="43.62653" lon="1.30316">
        <ele>158</ele>
        <time>2022-08-02T10:23:16Z</time>
      </trkpt>
      <trkpt lat="43.62651" lon="1.30318">
        <ele>158</ele>
        <time>2022-08-02T10:23:17Z</time>
      </trkpt>
      <trkpt lat="43.62648" lon="1.30322">
        <ele>158</ele>
        <time>2022-08-02T10:23:18Z</time>
      </trkpt>
      <trkpt lat="43.62646" lon="1.30324">
        <ele>158</ele>
        <time>2022-08-02T10:23:19Z</time>
      </trkpt>
      <trkpt lat="43.62646" lon="1.30324">
        <ele>158</ele>
        <time>2022-08-02T10:23:20Z</time>
      </trkpt>
      <trkpt lat="43.62645" lon="1.30327">
        <ele>158</ele>
        <time>2022-08-02T10:23:21Z</time>
      </trkpt>
      <trkpt lat="43.62643" lon="1.30329">
        <ele>158</ele>
        <time>2022-08-02T10:23:22Z</time>
      </trkpt>
      <trkpt lat="43.62641" lon="1.3033">
        <ele>159</ele>
        <time>2022-08-02T10:23:23Z</time>
      </trkpt>
      <trkpt lat="43.6264" lon="1.30332">
        <ele>159</ele>
        <time>2022-08-02T10:23:24Z</time>
      </trkpt>
      <trkpt lat="43.62639" lon="1.30334">
        <ele>159</ele>
        <time>2022-08-02T10:23:25Z</time>
      </trkpt>
      <trkpt lat="43.62637" lon="1.30336">
        <ele>159</ele>
        <time>2022-08-02T10:23:26Z</time>
      </trkpt>
      <trkpt lat="43.62636" lon="1.30337">
        <ele>159</ele>
        <time>2022-08-02T10:23:27Z</time>
      </trkpt>
      <trkpt lat="43.62635" lon="1.30339">
        <ele>159</ele>
        <time>2022-08-02T10:23:28Z</time>
      </trkpt>
      <trkpt lat="43.62633" lon="1.30341">
        <ele>159</ele>
        <time>2022-08-02T10:23:29Z</time>
      </trkpt>
      <trkpt lat="43.62631" lon="1.30343">
        <ele>159</ele>
        <time>2022-08-02T10:23:30Z</time>
      </trkpt>
      <trkpt lat="43.62629" lon="1.30345">
        <ele>160</ele>
        <time>2022-08-02T10:23:31Z</time>
      </trkpt>
      <trkpt lat="43.62628" lon="1.30347">
        <ele>161</ele>
        <time>2022-08-02T10:23:32Z</time>
      </trkpt>
      <trkpt lat="43.62626" lon="1.30348">
        <ele>161</ele>
        <time>2022-08-02T10:23:33Z</time>
      </trkpt>
      <trkpt lat="43.62624" lon="1.3035">
        <ele>161</ele>
        <time>2022-08-02T10:23:34Z</time>
      </trkpt>
      <trkpt lat="43.62623" lon="1.30352">
        <ele>161</ele>
        <time>2022-08-02T10:23:35Z</time>
      </trkpt>
      <trkpt lat="43.62621" lon="1.30353">
        <ele>161</ele>
        <time>2022-08-02T10:23:36Z</time>
      </trkpt>
      <trkpt lat="43.6262" lon="1.30355">
        <ele>161</ele>
        <time>2022-08-02T10:23:37Z</time>
      </trkpt>
      <trkpt lat="43.62618" lon="1.30356">
        <ele>161</ele>
        <time>2022-08-02T10:23:38Z</time>
      </trkpt>
      <trkpt lat="43.62616" lon="1.30358">
        <ele>161</ele>
        <time>2022-08-02T10:23:39Z</time>
      </trkpt>
      <trkpt lat="43.62615" lon="1.30359">
        <ele>162</ele>
        <time>2022-08-02T10:23:40Z</time>
      </trkpt>
      <trkpt lat="43.62613" lon="1.30361">
        <ele>162</ele>
        <time>2022-08-02T10:23:41Z</time>
      </trkpt>
      <trkpt lat="43.62612" lon="1.30362">
        <ele>162</ele>
        <time>2022-08-02T10:23:42Z</time>
      </trkpt>
      <trkpt lat="43.6261" lon="1.30364">
        <ele>162</ele>
        <time>2022-08-02T10:23:43Z</time>
      </trkpt>
      <trkpt lat="43.62609" lon="1.30365">
        <ele>162</ele>
        <time>2022-08-02T10:23:44Z</time>
      </trkpt>
      <trkpt lat="43.62607" lon="1.30367">
        <ele>162</ele>
        <time>2022-08-02T10:23:45Z</time>
      </trkpt>
      <trkpt lat="43.62606" lon="1.30369">
        <ele>162</ele>
        <time>2022-08-02T10:23:46Z</time>
      </trkpt>
      <trkpt lat="43.62604" lon="1.3037">
        <ele>163</ele>
        <time>2022-08-02T10:23:47Z</time>
      </trkpt>
      <trkpt lat="43.62603" lon="1.30372">
        <ele>163</ele>
        <time>2022-08-02T10:23:48Z</time>
      </trkpt>
      <trkpt lat="43.62601" lon="1.30373">
        <ele>163</ele>
        <time>2022-08-02T10:23:49Z</time>
      </trkpt>
      <trkpt lat="43.626" lon="1.30374">
        <ele>163</ele>
        <time>2022-08-02T10:23:50Z</time>
      </trkpt>
      <trkpt lat="43.62598" lon="1.30376">
        <ele>163</ele>
        <time>2022-08-02T10:23:51Z</time>
      </trkpt>
      <trkpt lat="43.62597" lon="1.30377">
        <ele>163</ele>
        <time>2022-08-02T10:23:52Z</time>
      </trkpt>
      <trkpt lat="43.62595" lon="1.30379">
        <ele>164</ele>
        <time>2022-08-02T10:23:53Z</time>
      </trkpt>
      <trkpt lat="43.62594" lon="1.30381">
        <ele>164</ele>
        <time>2022-08-02T10:23:54Z</time>
      </trkpt>
      <trkpt lat="43.62592" lon="1.30383">
        <ele>164</ele>
        <time>2022-08-02T10:23:55Z</time>
      </trkpt>
      <trkpt lat="43.62591" lon="1.30385">
        <ele>164</ele>
        <time>2022-08-02T10:23:56Z</time>
      </trkpt>
      <trkpt lat="43.62589" lon="1.30387">
        <ele>165</ele>
        <time>2022-08-02T10:23:57Z</time>
      </trkpt>
      <trkpt lat="43.62588" lon="1.30389">
        <ele>165</ele>
        <time>2022-08-02T10:23:58Z</time>
      </trkpt>
      <trkpt lat="43.62586" lon="1.30391">
        <ele>165</ele>
        <time>2022-08-02T10:23:59Z</time>
      </trkpt>
      <trkpt lat="43.62585" lon="1.30393">
        <ele>166</ele>
        <time>2022-08-02T10:24:00Z</time>
      </trkpt>
      <trkpt lat="43.62583" lon="1.30394">
        <ele>166</ele>
        <time>2022-08-02T10:24:01Z</time>
      </trkpt>
      <trkpt lat="43.62582" lon="1.30396">
        <ele>166</ele>
        <time>2022-08-02T10:24:02Z</time>
      </trkpt>
      <trkpt lat="43.62581" lon="1.30398">
        <ele>166</ele>
        <time>2022-08-02T10:24:03Z</time>
      </trkpt>
      <trkpt lat="43.62579" lon="1.304">
        <ele>166</ele>
        <time>2022-08-02T10:24:04Z</time>
      </trkpt>
      <trkpt lat="43.62578" lon="1.30402">
        <ele>166</ele>
        <time>2022-08-02T10:24:05Z</time>
      </trkpt>
      <trkpt lat="43.62577" lon="1.30404">
        <ele>166</ele>
        <time>2022-08-02T10:24:06Z</time>
      </trkpt>
      <trkpt lat="43.62576" lon="1.30405">
        <ele>166</ele>
        <time>2022-08-02T10:24:07Z</time>
      </trkpt>
      <trkpt lat="43.62574" lon="1.30407">
        <ele>167</ele>
        <time>2022-08-02T10:24:08Z</time>
      </trkpt>
      <trkpt lat="43.62573" lon="1.30409">
        <ele>167</ele>
        <time>2022-08-02T10:24:09Z</time>
      </trkpt>
      <trkpt lat="43.62571" lon="1.3041">
        <ele>167</ele>
        <time>2022-08-02T10:24:10Z</time>
      </trkpt>
      <trkpt lat="43.6257" lon="1.30412">
        <ele>167</ele>
        <time>2022-08-02T10:24:11Z</time>
      </trkpt>
      <trkpt lat="43.62569" lon="1.30414">
        <ele>167</ele>
        <time>2022-08-02T10:24:12Z</time>
      </trkpt>
      <trkpt lat="43.62567" lon="1.30416">
        <ele>167</ele>
        <time>2022-08-02T10:24:13Z</time>
      </trkpt>
      <trkpt lat="43.62565" lon="1.30417">
        <ele>167</ele>
        <time>2022-08-02T10:24:14Z</time>
      </trkpt>
      <trkpt lat="43.62564" lon="1.30419">
        <ele>167</ele>
        <time>2022-08-02T10:24:15Z</time>
      </trkpt>
      <trkpt lat="43.62562" lon="1.30421">
        <ele>168</ele>
        <time>2022-08-02T10:24:16Z</time>
      </trkpt>
      <trkpt lat="43.62561" lon="1.30423">
        <ele>168</ele>
        <time>2022-08-02T10:24:17Z</time>
      </trkpt>
      <trkpt lat="43.62559" lon="1.30425">
        <ele>167</ele>
        <time>2022-08-02T10:24:18Z</time>
      </trkpt>
      <trkpt lat="43.62558" lon="1.30427">
        <ele>167</ele>
        <time>2022-08-02T10:24:19Z</time>
      </trkpt>
      <trkpt lat="43.62556" lon="1.3043">
        <ele>167</ele>
        <time>2022-08-02T10:24:20Z</time>
      </trkpt>
      <trkpt lat="43.62554" lon="1.30432">
        <ele>167</ele>
        <time>2022-08-02T10:24:21Z</time>
      </trkpt>
      <trkpt lat="43.62552" lon="1.30434">
        <ele>167</ele>
        <time>2022-08-02T10:24:22Z</time>
      </trkpt>
      <trkpt lat="43.62549" lon="1.30437">
        <ele>167</ele>
        <time>2022-08-02T10:24:23Z</time>
      </trkpt>
      <trkpt lat="43.62547" lon="1.30439">
        <ele>168</ele>
        <time>2022-08-02T10:24:24Z</time>
      </trkpt>
      <trkpt lat="43.62547" lon="1.30439">
        <ele>168</ele>
        <time>2022-08-02T10:24:25Z</time>
      </trkpt>
      <trkpt lat="43.62545" lon="1.30441">
        <ele>168</ele>
        <time>2022-08-02T10:24:26Z</time>
      </trkpt>
      <trkpt lat="43.62544" lon="1.30443">
        <ele>168</ele>
        <time>2022-08-02T10:24:27Z</time>
      </trkpt>
      <trkpt lat="43.62542" lon="1.30444">
        <ele>168</ele>
        <time>2022-08-02T10:24:28Z</time>
      </trkpt>
      <trkpt lat="43.6254" lon="1.30446">
        <ele>168</ele>
        <time>2022-08-02T10:24:29Z</time>
      </trkpt>
      <trkpt lat="43.62538" lon="1.30448">
        <ele>168</ele>
        <time>2022-08-02T10:24:30Z</time>
      </trkpt>
      <trkpt lat="43.62538" lon="1.30448">
        <ele>168</ele>
        <time>2022-08-02T10:24:31Z</time>
      </trkpt>
      <trkpt lat="43.62535" lon="1.30452">
        <ele>168</ele>
        <time>2022-08-02T10:24:32Z</time>
      </trkpt>
      <trkpt lat="43.62533" lon="1.30454">
        <ele>168</ele>
        <time>2022-08-02T10:24:33Z</time>
      </trkpt>
      <trkpt lat="43.62531" lon="1.30456">
        <ele>168</ele>
        <time>2022-08-02T10:24:34Z</time>
      </trkpt>
      <trkpt lat="43.62529" lon="1.30458">
        <ele>168</ele>
        <time>2022-08-02T10:24:35Z</time>
      </trkpt>
      <trkpt lat="43.62528" lon="1.3046">
        <ele>168</ele>
        <time>2022-08-02T10:24:36Z</time>
      </trkpt>
      <trkpt lat="43.62526" lon="1.30461">
        <ele>168</ele>
        <time>2022-08-02T10:24:37Z</time>
      </trkpt>
      <trkpt lat="43.62524" lon="1.30463">
        <ele>168</ele>
        <time>2022-08-02T10:24:38Z</time>
      </trkpt>
      <trkpt lat="43.62522" lon="1.30465">
        <ele>169</ele>
        <time>2022-08-02T10:24:39Z</time>
      </trkpt>
      <trkpt lat="43.6252" lon="1.30467">
        <ele>169</ele>
        <time>2022-08-02T10:24:40Z</time>
      </trkpt>
      <trkpt lat="43.62519" lon="1.30469">
        <ele>169</ele>
        <time>2022-08-02T10:24:41Z</time>
      </trkpt>
      <trkpt lat="43.62517" lon="1.3047">
        <ele>169</ele>
        <time>2022-08-02T10:24:42Z</time>
      </trkpt>
      <trkpt lat="43.62513" lon="1.30474">
        <ele>169</ele>
        <time>2022-08-02T10:24:43Z</time>
      </trkpt>
      <trkpt lat="43.62513" lon="1.30474">
        <ele>169</ele>
        <time>2022-08-02T10:24:44Z</time>
      </trkpt>
      <trkpt lat="43.62512" lon="1.30475">
        <ele>169</ele>
        <time>2022-08-02T10:24:45Z</time>
      </trkpt>
      <trkpt lat="43.6251" lon="1.30477">
        <ele>169</ele>
        <time>2022-08-02T10:24:46Z</time>
      </trkpt>
      <trkpt lat="43.62509" lon="1.30479">
        <ele>169</ele>
        <time>2022-08-02T10:24:47Z</time>
      </trkpt>
      <trkpt lat="43.62507" lon="1.30481">
        <ele>169</ele>
        <time>2022-08-02T10:24:48Z</time>
      </trkpt>
      <trkpt lat="43.62505" lon="1.30483">
        <ele>169</ele>
        <time>2022-08-02T10:24:49Z</time>
      </trkpt>
      <trkpt lat="43.62504" lon="1.30484">
        <ele>169</ele>
        <time>2022-08-02T10:24:50Z</time>
      </trkpt>
      <trkpt lat="43.62502" lon="1.30486">
        <ele>169</ele>
        <time>2022-08-02T10:24:51Z</time>
      </trkpt>
      <trkpt lat="43.62501" lon="1.30488">
        <ele>169</ele>
        <time>2022-08-02T10:24:52Z</time>
      </trkpt>
      <trkpt lat="43.62499" lon="1.3049">
        <ele>169</ele>
        <time>2022-08-02T10:24:53Z</time>
      </trkpt>
      <trkpt lat="43.62497" lon="1.30491">
        <ele>170</ele>
        <time>2022-08-02T10:24:54Z</time>
      </trkpt>
      <trkpt lat="43.62496" lon="1.30493">
        <ele>170</ele>
        <time>2022-08-02T10:24:55Z</time>
      </trkpt>
      <trkpt lat="43.62494" lon="1.30495">
        <ele>170</ele>
        <time>2022-08-02T10:24:56Z</time>
      </trkpt>
      <trkpt lat="43.62493" lon="1.30497">
        <ele>171</ele>
        <time>2022-08-02T10:24:57Z</time>
      </trkpt>
      <trkpt lat="43.62491" lon="1.30498">
        <ele>171</ele>
        <time>2022-08-02T10:24:58Z</time>
      </trkpt>
      <trkpt lat="43.62489" lon="1.305">
        <ele>171</ele>
        <time>2022-08-02T10:24:59Z</time>
      </trkpt>
      <trkpt lat="43.62488" lon="1.30502">
        <ele>172</ele>
        <time>2022-08-02T10:25:00Z</time>
      </trkpt>
      <trkpt lat="43.62486" lon="1.30504">
        <ele>172</ele>
        <time>2022-08-02T10:25:01Z</time>
      </trkpt>
      <trkpt lat="43.62483" lon="1.30507">
        <ele>172</ele>
        <time>2022-08-02T10:25:02Z</time>
      </trkpt>
      <trkpt lat="43.62483" lon="1.30507">
        <ele>172</ele>
        <time>2022-08-02T10:25:03Z</time>
      </trkpt>
      <trkpt lat="43.62481" lon="1.30509">
        <ele>172</ele>
        <time>2022-08-02T10:25:04Z</time>
      </trkpt>
      <trkpt lat="43.62479" lon="1.30511">
        <ele>172</ele>
        <time>2022-08-02T10:25:05Z</time>
      </trkpt>
      <trkpt lat="43.62478" lon="1.30512">
        <ele>172</ele>
        <time>2022-08-02T10:25:06Z</time>
      </trkpt>
      <trkpt lat="43.62476" lon="1.30513">
        <ele>172</ele>
        <time>2022-08-02T10:25:07Z</time>
      </trkpt>
      <trkpt lat="43.62474" lon="1.30514">
        <ele>172</ele>
        <time>2022-08-02T10:25:08Z</time>
      </trkpt>
      <trkpt lat="43.62472" lon="1.30515">
        <ele>172</ele>
        <time>2022-08-02T10:25:09Z</time>
      </trkpt>
      <trkpt lat="43.6247" lon="1.30516">
        <ele>172</ele>
        <time>2022-08-02T10:25:10Z</time>
      </trkpt>
      <trkpt lat="43.62468" lon="1.30516">
        <ele>172</ele>
        <time>2022-08-02T10:25:11Z</time>
      </trkpt>
      <trkpt lat="43.62465" lon="1.30517">
        <ele>172</ele>
        <time>2022-08-02T10:25:12Z</time>
      </trkpt>
      <trkpt lat="43.62463" lon="1.30518">
        <ele>173</ele>
        <time>2022-08-02T10:25:13Z</time>
      </trkpt>
      <trkpt lat="43.62461" lon="1.30519">
        <ele>173</ele>
        <time>2022-08-02T10:25:14Z</time>
      </trkpt>
      <trkpt lat="43.62459" lon="1.3052">
        <ele>173</ele>
        <time>2022-08-02T10:25:15Z</time>
      </trkpt>
      <trkpt lat="43.62457" lon="1.30521">
        <ele>173</ele>
        <time>2022-08-02T10:25:16Z</time>
      </trkpt>
      <trkpt lat="43.62455" lon="1.30522">
        <ele>173</ele>
        <time>2022-08-02T10:25:17Z</time>
      </trkpt>
      <trkpt lat="43.62452" lon="1.30522">
        <ele>173</ele>
        <time>2022-08-02T10:25:18Z</time>
      </trkpt>
      <trkpt lat="43.6245" lon="1.30523">
        <ele>173</ele>
        <time>2022-08-02T10:25:19Z</time>
      </trkpt>
      <trkpt lat="43.62448" lon="1.30524">
        <ele>173</ele>
        <time>2022-08-02T10:25:20Z</time>
      </trkpt>
      <trkpt lat="43.62444" lon="1.30526">
        <ele>173</ele>
        <time>2022-08-02T10:25:21Z</time>
      </trkpt>
      <trkpt lat="43.62444" lon="1.30526">
        <ele>173</ele>
        <time>2022-08-02T10:25:22Z</time>
      </trkpt>
      <trkpt lat="43.62442" lon="1.30527">
        <ele>173</ele>
        <time>2022-08-02T10:25:23Z</time>
      </trkpt>
      <trkpt lat="43.6244" lon="1.30528">
        <ele>173</ele>
        <time>2022-08-02T10:25:24Z</time>
      </trkpt>
      <trkpt lat="43.62438" lon="1.30529">
        <ele>173</ele>
        <time>2022-08-02T10:25:25Z</time>
      </trkpt>
      <trkpt lat="43.62436" lon="1.30529">
        <ele>173</ele>
        <time>2022-08-02T10:25:26Z</time>
      </trkpt>
      <trkpt lat="43.62434" lon="1.3053">
        <ele>173</ele>
        <time>2022-08-02T10:25:27Z</time>
      </trkpt>
      <trkpt lat="43.62432" lon="1.30531">
        <ele>173</ele>
        <time>2022-08-02T10:25:28Z</time>
      </trkpt>
      <trkpt lat="43.6243" lon="1.30532">
        <ele>173</ele>
        <time>2022-08-02T10:25:29Z</time>
      </trkpt>
      <trkpt lat="43.62428" lon="1.30532">
        <ele>173</ele>
        <time>2022-08-02T10:25:30Z</time>
      </trkpt>
      <trkpt lat="43.62426" lon="1.30533">
        <ele>173</ele>
        <time>2022-08-02T10:25:31Z</time>
      </trkpt>
      <trkpt lat="43.62424" lon="1.30534">
        <ele>173</ele>
        <time>2022-08-02T10:25:32Z</time>
      </trkpt>
      <trkpt lat="43.62422" lon="1.30534">
        <ele>173</ele>
        <time>2022-08-02T10:25:33Z</time>
      </trkpt>
      <trkpt lat="43.62419" lon="1.30534">
        <ele>173</ele>
        <time>2022-08-02T10:25:34Z</time>
      </trkpt>
      <trkpt lat="43.62417" lon="1.30535">
        <ele>173</ele>
        <time>2022-08-02T10:25:35Z</time>
      </trkpt>
      <trkpt lat="43.62415" lon="1.30535">
        <ele>174</ele>
        <time>2022-08-02T10:25:36Z</time>
      </trkpt>
      <trkpt lat="43.62413" lon="1.30536">
        <ele>174</ele>
        <time>2022-08-02T10:25:37Z</time>
      </trkpt>
      <trkpt lat="43.62411" lon="1.30536">
        <ele>174</ele>
        <time>2022-08-02T10:25:38Z</time>
      </trkpt>
      <trkpt lat="43.62409" lon="1.30537">
        <ele>174</ele>
        <time>2022-08-02T10:25:39Z</time>
      </trkpt>
      <trkpt lat="43.62406" lon="1.30538">
        <ele>174</ele>
        <time>2022-08-02T10:25:40Z</time>
      </trkpt>
      <trkpt lat="43.62404" lon="1.30539">
        <ele>174</ele>
        <time>2022-08-02T10:25:41Z</time>
      </trkpt>
      <trkpt lat="43.62401" lon="1.3054">
        <ele>174</ele>
        <time>2022-08-02T10:25:42Z</time>
      </trkpt>
      <trkpt lat="43.62399" lon="1.30541">
        <ele>174</ele>
        <time>2022-08-02T10:25:43Z</time>
      </trkpt>
      <trkpt lat="43.62396" lon="1.30541">
        <ele>175</ele>
        <time>2022-08-02T10:25:44Z</time>
      </trkpt>
      <trkpt lat="43.62394" lon="1.30542">
        <ele>175</ele>
        <time>2022-08-02T10:25:45Z</time>
      </trkpt>
      <trkpt lat="43.62392" lon="1.30542">
        <ele>175</ele>
        <time>2022-08-02T10:25:46Z</time>
      </trkpt>
      <trkpt lat="43.62389" lon="1.30542">
        <ele>175</ele>
        <time>2022-08-02T10:25:47Z</time>
      </trkpt>
      <trkpt lat="43.62387" lon="1.30543">
        <ele>175</ele>
        <time>2022-08-02T10:25:48Z</time>
      </trkpt>
      <trkpt lat="43.62385" lon="1.30544">
        <ele>175</ele>
        <time>2022-08-02T10:25:49Z</time>
      </trkpt>
      <trkpt lat="43.62383" lon="1.30545">
        <ele>175</ele>
        <time>2022-08-02T10:25:50Z</time>
      </trkpt>
      <trkpt lat="43.62381" lon="1.30546">
        <ele>175</ele>
        <time>2022-08-02T10:25:51Z</time>
      </trkpt>
      <trkpt lat="43.62378" lon="1.30547">
        <ele>175</ele>
        <time>2022-08-02T10:25:52Z</time>
      </trkpt>
      <trkpt lat="43.62376" lon="1.30547">
        <ele>175</ele>
        <time>2022-08-02T10:25:53Z</time>
      </trkpt>
      <trkpt lat="43.62374" lon="1.30548">
        <ele>176</ele>
        <time>2022-08-02T10:25:54Z</time>
      </trkpt>
      <trkpt lat="43.62372" lon="1.30548">
        <ele>176</ele>
        <time>2022-08-02T10:25:55Z</time>
      </trkpt>
      <trkpt lat="43.6237" lon="1.30549">
        <ele>176</ele>
        <time>2022-08-02T10:25:56Z</time>
      </trkpt>
      <trkpt lat="43.62367" lon="1.3055">
        <ele>176</ele>
        <time>2022-08-02T10:25:57Z</time>
      </trkpt>
      <trkpt lat="43.62365" lon="1.30551">
        <ele>176</ele>
        <time>2022-08-02T10:25:58Z</time>
      </trkpt>
      <trkpt lat="43.62359" lon="1.30552">
        <ele>176</ele>
        <time>2022-08-02T10:25:59Z</time>
      </trkpt>
      <trkpt lat="43.62359" lon="1.30552">
        <ele>176</ele>
        <time>2022-08-02T10:26:00Z</time>
      </trkpt>
      <trkpt lat="43.62357" lon="1.30553">
        <ele>176</ele>
        <time>2022-08-02T10:26:01Z</time>
      </trkpt>
      <trkpt lat="43.62355" lon="1.30554">
        <ele>176</ele>
        <time>2022-08-02T10:26:02Z</time>
      </trkpt>
      <trkpt lat="43.62352" lon="1.30555">
        <ele>176</ele>
        <time>2022-08-02T10:26:03Z</time>
      </trkpt>
      <trkpt lat="43.6235" lon="1.30556">
        <ele>177</ele>
        <time>2022-08-02T10:26:04Z</time>
      </trkpt>
      <trkpt lat="43.62348" lon="1.30557">
        <ele>177</ele>
        <time>2022-08-02T10:26:05Z</time>
      </trkpt>
      <trkpt lat="43.62346" lon="1.30558">
        <ele>177</ele>
        <time>2022-08-02T10:26:06Z</time>
      </trkpt>
      <trkpt lat="43.62344" lon="1.30559">
        <ele>177</ele>
        <time>2022-08-02T10:26:07Z</time>
      </trkpt>
      <trkpt lat="43.62342" lon="1.30561">
        <ele>177</ele>
        <time>2022-08-02T10:26:08Z</time>
      </trkpt>
      <trkpt lat="43.6234" lon="1.30563">
        <ele>177</ele>
        <time>2022-08-02T10:26:09Z</time>
      </trkpt>
      <trkpt lat="43.62337" lon="1.30564">
        <ele>177</ele>
        <time>2022-08-02T10:26:10Z</time>
      </trkpt>
      <trkpt lat="43.62335" lon="1.30566">
        <ele>177</ele>
        <time>2022-08-02T10:26:11Z</time>
      </trkpt>
      <trkpt lat="43.62333" lon="1.30567">
        <ele>177</ele>
        <time>2022-08-02T10:26:12Z</time>
      </trkpt>
      <trkpt lat="43.62331" lon="1.30569">
        <ele>177</ele>
        <time>2022-08-02T10:26:13Z</time>
      </trkpt>
      <trkpt lat="43.62329" lon="1.30571">
        <ele>178</ele>
        <time>2022-08-02T10:26:14Z</time>
      </trkpt>
      <trkpt lat="43.62327" lon="1.30572">
        <ele>178</ele>
        <time>2022-08-02T10:26:15Z</time>
      </trkpt>
      <trkpt lat="43.62325" lon="1.30574">
        <ele>178</ele>
        <time>2022-08-02T10:26:16Z</time>
      </trkpt>
      <trkpt lat="43.62323" lon="1.30575">
        <ele>177</ele>
        <time>2022-08-02T10:26:17Z</time>
      </trkpt>
      <trkpt lat="43.62321" lon="1.30575">
        <ele>177</ele>
        <time>2022-08-02T10:26:18Z</time>
      </trkpt>
      <trkpt lat="43.62318" lon="1.30576">
        <ele>177</ele>
        <time>2022-08-02T10:26:19Z</time>
      </trkpt>
      <trkpt lat="43.62316" lon="1.30576">
        <ele>177</ele>
        <time>2022-08-02T10:26:20Z</time>
      </trkpt>
      <trkpt lat="43.62314" lon="1.30576">
        <ele>177</ele>
        <time>2022-08-02T10:26:21Z</time>
      </trkpt>
      <trkpt lat="43.62311" lon="1.30576">
        <ele>177</ele>
        <time>2022-08-02T10:26:22Z</time>
      </trkpt>
      <trkpt lat="43.62309" lon="1.30576">
        <ele>177</ele>
        <time>2022-08-02T10:26:23Z</time>
      </trkpt>
      <trkpt lat="43.62306" lon="1.30576">
        <ele>177</ele>
        <time>2022-08-02T10:26:24Z</time>
      </trkpt>
      <trkpt lat="43.62304" lon="1.30576">
        <ele>177</ele>
        <time>2022-08-02T10:26:25Z</time>
      </trkpt>
      <trkpt lat="43.62301" lon="1.30576">
        <ele>178</ele>
        <time>2022-08-02T10:26:26Z</time>
      </trkpt>
      <trkpt lat="43.62299" lon="1.30576">
        <ele>178</ele>
        <time>2022-08-02T10:26:27Z</time>
      </trkpt>
      <trkpt lat="43.62296" lon="1.30576">
        <ele>177</ele>
        <time>2022-08-02T10:26:28Z</time>
      </trkpt>
      <trkpt lat="43.62294" lon="1.30576">
        <ele>178</ele>
        <time>2022-08-02T10:26:29Z</time>
      </trkpt>
      <trkpt lat="43.62291" lon="1.30575">
        <ele>178</ele>
        <time>2022-08-02T10:26:30Z</time>
      </trkpt>
      <trkpt lat="43.62288" lon="1.30575">
        <ele>178</ele>
        <time>2022-08-02T10:26:31Z</time>
      </trkpt>
      <trkpt lat="43.62286" lon="1.30574">
        <ele>178</ele>
        <time>2022-08-02T10:26:32Z</time>
      </trkpt>
      <trkpt lat="43.62281" lon="1.30572">
        <ele>178</ele>
        <time>2022-08-02T10:26:33Z</time>
      </trkpt>
      <trkpt lat="43.62281" lon="1.30572">
        <ele>178</ele>
        <time>2022-08-02T10:26:34Z</time>
      </trkpt>
      <trkpt lat="43.62279" lon="1.30571">
        <ele>178</ele>
        <time>2022-08-02T10:26:35Z</time>
      </trkpt>
      <trkpt lat="43.62276" lon="1.3057">
        <ele>178</ele>
        <time>2022-08-02T10:26:36Z</time>
      </trkpt>
      <trkpt lat="43.62274" lon="1.3057">
        <ele>178</ele>
        <time>2022-08-02T10:26:37Z</time>
      </trkpt>
      <trkpt lat="43.62272" lon="1.30569">
        <ele>178</ele>
        <time>2022-08-02T10:26:38Z</time>
      </trkpt>
      <trkpt lat="43.6227" lon="1.30568">
        <ele>178</ele>
        <time>2022-08-02T10:26:39Z</time>
      </trkpt>
      <trkpt lat="43.62268" lon="1.30565">
        <ele>178</ele>
        <time>2022-08-02T10:26:40Z</time>
      </trkpt>
      <trkpt lat="43.62267" lon="1.30563">
        <ele>178</ele>
        <time>2022-08-02T10:26:41Z</time>
      </trkpt>
      <trkpt lat="43.62265" lon="1.30562">
        <ele>178</ele>
        <time>2022-08-02T10:26:42Z</time>
      </trkpt>
      <trkpt lat="43.62263" lon="1.3056">
        <ele>178</ele>
        <time>2022-08-02T10:26:43Z</time>
      </trkpt>
      <trkpt lat="43.62261" lon="1.30559">
        <ele>178</ele>
        <time>2022-08-02T10:26:44Z</time>
      </trkpt>
      <trkpt lat="43.62258" lon="1.30558">
        <ele>178</ele>
        <time>2022-08-02T10:26:45Z</time>
      </trkpt>
      <trkpt lat="43.62256" lon="1.30557">
        <ele>178</ele>
        <time>2022-08-02T10:26:46Z</time>
      </trkpt>
      <trkpt lat="43.62254" lon="1.30556">
        <ele>178</ele>
        <time>2022-08-02T10:26:47Z</time>
      </trkpt>
      <trkpt lat="43.62252" lon="1.30556">
        <ele>178</ele>
        <time>2022-08-02T10:26:48Z</time>
      </trkpt>
      <trkpt lat="43.6225" lon="1.30554">
        <ele>178</ele>
        <time>2022-08-02T10:26:49Z</time>
      </trkpt>
      <trkpt lat="43.62248" lon="1.30553">
        <ele>178</ele>
        <time>2022-08-02T10:26:50Z</time>
      </trkpt>
      <trkpt lat="43.62245" lon="1.30552">
        <ele>178</ele>
        <time>2022-08-02T10:26:51Z</time>
      </trkpt>
      <trkpt lat="43.62243" lon="1.30551">
        <ele>179</ele>
        <time>2022-08-02T10:26:52Z</time>
      </trkpt>
      <trkpt lat="43.62241" lon="1.3055">
        <ele>179</ele>
        <time>2022-08-02T10:26:53Z</time>
      </trkpt>
      <trkpt lat="43.62239" lon="1.30549">
        <ele>179</ele>
        <time>2022-08-02T10:26:54Z</time>
      </trkpt>
      <trkpt lat="43.62237" lon="1.30548">
        <ele>179</ele>
        <time>2022-08-02T10:26:55Z</time>
      </trkpt>
      <trkpt lat="43.62234" lon="1.30547">
        <ele>178</ele>
        <time>2022-08-02T10:26:56Z</time>
      </trkpt>
      <trkpt lat="43.62232" lon="1.30546">
        <ele>178</ele>
        <time>2022-08-02T10:26:57Z</time>
      </trkpt>
      <trkpt lat="43.6223" lon="1.30545">
        <ele>178</ele>
        <time>2022-08-02T10:26:58Z</time>
      </trkpt>
      <trkpt lat="43.62228" lon="1.30544">
        <ele>178</ele>
        <time>2022-08-02T10:26:59Z</time>
      </trkpt>
      <trkpt lat="43.62226" lon="1.30543">
        <ele>179</ele>
        <time>2022-08-02T10:27:00Z</time>
      </trkpt>
      <trkpt lat="43.62224" lon="1.30541">
        <ele>179</ele>
        <time>2022-08-02T10:27:01Z</time>
      </trkpt>
      <trkpt lat="43.62222" lon="1.3054">
        <ele>179</ele>
        <time>2022-08-02T10:27:02Z</time>
      </trkpt>
      <trkpt lat="43.6222" lon="1.30539">
        <ele>179</ele>
        <time>2022-08-02T10:27:03Z</time>
      </trkpt>
      <trkpt lat="43.62218" lon="1.30538">
        <ele>179</ele>
        <time>2022-08-02T10:27:04Z</time>
      </trkpt>
      <trkpt lat="43.62216" lon="1.30537">
        <ele>179</ele>
        <time>2022-08-02T10:27:05Z</time>
      </trkpt>
      <trkpt lat="43.62214" lon="1.30536">
        <ele>179</ele>
        <time>2022-08-02T10:27:06Z</time>
      </trkpt>
      <trkpt lat="43.62211" lon="1.30535">
        <ele>179</ele>
        <time>2022-08-02T10:27:07Z</time>
      </trkpt>
      <trkpt lat="43.62209" lon="1.30534">
        <ele>179</ele>
        <time>2022-08-02T10:27:08Z</time>
      </trkpt>
      <trkpt lat="43.62207" lon="1.30533">
        <ele>179</ele>
        <time>2022-08-02T10:27:09Z</time>
      </trkpt>
      <trkpt lat="43.62204" lon="1.30532">
        <ele>179</ele>
        <time>2022-08-02T10:27:10Z</time>
      </trkpt>
      <trkpt lat="43.62202" lon="1.30531">
        <ele>179</ele>
        <time>2022-08-02T10:27:11Z</time>
      </trkpt>
      <trkpt lat="43.622" lon="1.3053">
        <ele>179</ele>
        <time>2022-08-02T10:27:12Z</time>
      </trkpt>
      <trkpt lat="43.62197" lon="1.30529">
        <ele>179</ele>
        <time>2022-08-02T10:27:13Z</time>
      </trkpt>
      <trkpt lat="43.62195" lon="1.30528">
        <ele>179</ele>
        <time>2022-08-02T10:27:14Z</time>
      </trkpt>
      <trkpt lat="43.62192" lon="1.30527">
        <ele>179</ele>
        <time>2022-08-02T10:27:15Z</time>
      </trkpt>
      <trkpt lat="43.62191" lon="1.30527">
        <ele>179</ele>
        <time>2022-08-02T10:27:16Z</time>
      </trkpt>
      <trkpt lat="43.62188" lon="1.30526">
        <ele>179</ele>
        <time>2022-08-02T10:27:17Z</time>
      </trkpt>
      <trkpt lat="43.62186" lon="1.30525">
        <ele>179</ele>
        <time>2022-08-02T10:27:18Z</time>
      </trkpt>
      <trkpt lat="43.62184" lon="1.30525">
        <ele>179</ele>
        <time>2022-08-02T10:27:19Z</time>
      </trkpt>
      <trkpt lat="43.62181" lon="1.30525">
        <ele>180</ele>
        <time>2022-08-02T10:27:20Z</time>
      </trkpt>
      <trkpt lat="43.62179" lon="1.30525">
        <ele>180</ele>
        <time>2022-08-02T10:27:21Z</time>
      </trkpt>
      <trkpt lat="43.62176" lon="1.30525">
        <ele>180</ele>
        <time>2022-08-02T10:27:22Z</time>
      </trkpt>
      <trkpt lat="43.62174" lon="1.30524">
        <ele>180</ele>
        <time>2022-08-02T10:27:23Z</time>
      </trkpt>
      <trkpt lat="43.62171" lon="1.30523">
        <ele>180</ele>
        <time>2022-08-02T10:27:24Z</time>
      </trkpt>
      <trkpt lat="43.62169" lon="1.30523">
        <ele>180</ele>
        <time>2022-08-02T10:27:25Z</time>
      </trkpt>
      <trkpt lat="43.62167" lon="1.30522">
        <ele>180</ele>
        <time>2022-08-02T10:27:26Z</time>
      </trkpt>
      <trkpt lat="43.62165" lon="1.30521">
        <ele>180</ele>
        <time>2022-08-02T10:27:27Z</time>
      </trkpt>
      <trkpt lat="43.62164" lon="1.3052">
        <ele>180</ele>
        <time>2022-08-02T10:27:28Z</time>
      </trkpt>
      <trkpt lat="43.62162" lon="1.30519">
        <ele>180</ele>
        <time>2022-08-02T10:27:29Z</time>
      </trkpt>
      <trkpt lat="43.6216" lon="1.30518">
        <ele>180</ele>
        <time>2022-08-02T10:27:30Z</time>
      </trkpt>
      <trkpt lat="43.62158" lon="1.30517">
        <ele>180</ele>
        <time>2022-08-02T10:27:31Z</time>
      </trkpt>
      <trkpt lat="43.62158" lon="1.30517">
        <ele>180</ele>
        <time>2022-08-02T10:27:32Z</time>
      </trkpt>
      <trkpt lat="43.62157" lon="1.30516">
        <ele>180</ele>
        <time>2022-08-02T10:27:33Z</time>
      </trkpt>
      <trkpt lat="43.62156" lon="1.30516">
        <ele>180</ele>
        <time>2022-08-02T10:27:34Z</time>
      </trkpt>
      <trkpt lat="43.62155" lon="1.30515">
        <ele>180</ele>
        <time>2022-08-02T10:27:35Z</time>
      </trkpt>
      <trkpt lat="43.62154" lon="1.30515">
        <ele>180</ele>
        <time>2022-08-02T10:27:36Z</time>
      </trkpt>
      <trkpt lat="43.62154" lon="1.30514">
        <ele>180</ele>
        <time>2022-08-02T10:27:37Z</time>
      </trkpt>
      <trkpt lat="43.62148" lon="1.3051">
        <ele>180</ele>
        <time>2022-08-02T10:27:38Z</time>
      </trkpt>
      <trkpt lat="43.62146" lon="1.3051">
        <ele>180</ele>
        <time>2022-08-02T10:27:39Z</time>
      </trkpt>
      <trkpt lat="43.62145" lon="1.30509">
        <ele>180</ele>
        <time>2022-08-02T10:27:40Z</time>
      </trkpt>
      <trkpt lat="43.62144" lon="1.30508">
        <ele>180</ele>
        <time>2022-08-02T10:27:41Z</time>
      </trkpt>
      <trkpt lat="43.62137" lon="1.30505">
        <ele>180</ele>
        <time>2022-08-02T10:27:42Z</time>
      </trkpt>
      <trkpt lat="43.62136" lon="1.30505">
        <ele>180</ele>
        <time>2022-08-02T10:27:43Z</time>
      </trkpt>
      <trkpt lat="43.62134" lon="1.30504">
        <ele>180</ele>
        <time>2022-08-02T10:27:44Z</time>
      </trkpt>
      <trkpt lat="43.62133" lon="1.30504">
        <ele>180</ele>
        <time>2022-08-02T10:27:45Z</time>
      </trkpt>
      <trkpt lat="43.62131" lon="1.30503">
        <ele>180</ele>
        <time>2022-08-02T10:27:46Z</time>
      </trkpt>
      <trkpt lat="43.6213" lon="1.30503">
        <ele>180</ele>
        <time>2022-08-02T10:27:47Z</time>
      </trkpt>
      <trkpt lat="43.62128" lon="1.30502">
        <ele>180</ele>
        <time>2022-08-02T10:27:48Z</time>
      </trkpt>
      <trkpt lat="43.62127" lon="1.30501">
        <ele>180</ele>
        <time>2022-08-02T10:27:49Z</time>
      </trkpt>
      <trkpt lat="43.62125" lon="1.305">
        <ele>180</ele>
        <time>2022-08-02T10:27:50Z</time>
      </trkpt>
      <trkpt lat="43.62124" lon="1.305">
        <ele>180</ele>
        <time>2022-08-02T10:27:51Z</time>
      </trkpt>
      <trkpt lat="43.62114" lon="1.30495">
        <ele>180</ele>
        <time>2022-08-02T10:27:52Z</time>
      </trkpt>
      <trkpt lat="43.62111" lon="1.30493">
        <ele>180</ele>
        <time>2022-08-02T10:27:53Z</time>
      </trkpt>
      <trkpt lat="43.62108" lon="1.30491">
        <ele>180</ele>
        <time>2022-08-02T10:27:54Z</time>
      </trkpt>
      <trkpt lat="43.62105" lon="1.3049">
        <ele>180</ele>
        <time>2022-08-02T10:27:55Z</time>
      </trkpt>
      <trkpt lat="43.62103" lon="1.30489">
        <ele>180</ele>
        <time>2022-08-02T10:27:56Z</time>
      </trkpt>
      <trkpt lat="43.621" lon="1.30487">
        <ele>180</ele>
        <time>2022-08-02T10:27:57Z</time>
      </trkpt>
      <trkpt lat="43.62098" lon="1.30486">
        <ele>180</ele>
        <time>2022-08-02T10:27:58Z</time>
      </trkpt>
      <trkpt lat="43.62097" lon="1.30485">
        <ele>180</ele>
        <time>2022-08-02T10:27:59Z</time>
      </trkpt>
      <trkpt lat="43.62096" lon="1.30485">
        <ele>180</ele>
        <time>2022-08-02T10:28:00Z</time>
      </trkpt>
      <trkpt lat="43.62095" lon="1.30484">
        <ele>180</ele>
        <time>2022-08-02T10:28:01Z</time>
      </trkpt>
      <trkpt lat="43.62094" lon="1.30484">
        <ele>180</ele>
        <time>2022-08-02T10:28:02Z</time>
      </trkpt>
      <trkpt lat="43.62093" lon="1.30483">
        <ele>180</ele>
        <time>2022-08-02T10:28:03Z</time>
      </trkpt>
      <trkpt lat="43.62086" lon="1.30479">
        <ele>180</ele>
        <time>2022-08-02T10:28:04Z</time>
      </trkpt>
      <trkpt lat="43.62083" lon="1.30477">
        <ele>180</ele>
        <time>2022-08-02T10:28:05Z</time>
      </trkpt>
      <trkpt lat="43.62081" lon="1.30476">
        <ele>180</ele>
        <time>2022-08-02T10:28:06Z</time>
      </trkpt>
      <trkpt lat="43.62079" lon="1.30475">
        <ele>180</ele>
        <time>2022-08-02T10:28:07Z</time>
      </trkpt>
      <trkpt lat="43.62077" lon="1.30474">
        <ele>180</ele>
        <time>2022-08-02T10:28:08Z</time>
      </trkpt>
      <trkpt lat="43.62074" lon="1.30472">
        <ele>180</ele>
        <time>2022-08-02T10:28:09Z</time>
      </trkpt>
      <trkpt lat="43.62072" lon="1.30471">
        <ele>180</ele>
        <time>2022-08-02T10:28:10Z</time>
      </trkpt>
      <trkpt lat="43.6207" lon="1.3047">
        <ele>180</ele>
        <time>2022-08-02T10:28:11Z</time>
      </trkpt>
      <trkpt lat="43.62069" lon="1.30469">
        <ele>180</ele>
        <time>2022-08-02T10:28:12Z</time>
      </trkpt>
      <trkpt lat="43.62068" lon="1.30469">
        <ele>180</ele>
        <time>2022-08-02T10:28:13Z</time>
      </trkpt>
      <trkpt lat="43.62067" lon="1.30469">
        <ele>180</ele>
        <time>2022-08-02T10:28:14Z</time>
      </trkpt>
      <trkpt lat="43.62067" lon="1.30468">
        <ele>180</ele>
        <time>2022-08-02T10:28:15Z</time>
      </trkpt>
      <trkpt lat="43.62066" lon="1.30468">
        <ele>180</ele>
        <time>2022-08-02T10:28:16Z</time>
      </trkpt>
      <trkpt lat="43.62065" lon="1.30467">
        <ele>180</ele>
        <time>2022-08-02T10:28:17Z</time>
      </trkpt>
      <trkpt lat="43.62058" lon="1.30465">
        <ele>180</ele>
        <time>2022-08-02T10:28:18Z</time>
      </trkpt>
      <trkpt lat="43.62055" lon="1.30466">
        <ele>180</ele>
        <time>2022-08-02T10:28:19Z</time>
      </trkpt>
      <trkpt lat="43.62053" lon="1.30466">
        <ele>180</ele>
        <time>2022-08-02T10:28:20Z</time>
      </trkpt>
      <trkpt lat="43.62051" lon="1.30466">
        <ele>180</ele>
        <time>2022-08-02T10:28:21Z</time>
      </trkpt>
      <trkpt lat="43.6205" lon="1.30468">
        <ele>180</ele>
        <time>2022-08-02T10:28:22Z</time>
      </trkpt>
      <trkpt lat="43.62049" lon="1.30469">
        <ele>180</ele>
        <time>2022-08-02T10:28:23Z</time>
      </trkpt>
      <trkpt lat="43.62048" lon="1.3047">
        <ele>180</ele>
        <time>2022-08-02T10:28:24Z</time>
      </trkpt>
      <trkpt lat="43.62047" lon="1.30471">
        <ele>180</ele>
        <time>2022-08-02T10:28:25Z</time>
      </trkpt>
      <trkpt lat="43.62042" lon="1.30479">
        <ele>180</ele>
        <time>2022-08-02T10:28:26Z</time>
      </trkpt>
      <trkpt lat="43.62041" lon="1.30482">
        <ele>180</ele>
        <time>2022-08-02T10:28:27Z</time>
      </trkpt>
      <trkpt lat="43.62039" lon="1.30484">
        <ele>180</ele>
        <time>2022-08-02T10:28:28Z</time>
      </trkpt>
      <trkpt lat="43.62038" lon="1.30487">
        <ele>180</ele>
        <time>2022-08-02T10:28:29Z</time>
      </trkpt>
      <trkpt lat="43.62036" lon="1.3049">
        <ele>180</ele>
        <time>2022-08-02T10:28:30Z</time>
      </trkpt>
      <trkpt lat="43.62034" lon="1.30493">
        <ele>180</ele>
        <time>2022-08-02T10:28:31Z</time>
      </trkpt>
      <trkpt lat="43.62033" lon="1.30494">
        <ele>180</ele>
        <time>2022-08-02T10:28:32Z</time>
      </trkpt>
      <trkpt lat="43.62032" lon="1.30496">
        <ele>180</ele>
        <time>2022-08-02T10:28:33Z</time>
      </trkpt>
      <trkpt lat="43.62032" lon="1.30497">
        <ele>180</ele>
        <time>2022-08-02T10:28:34Z</time>
      </trkpt>
      <trkpt lat="43.62031" lon="1.30498">
        <ele>180</ele>
        <time>2022-08-02T10:28:35Z</time>
      </trkpt>
      <trkpt lat="43.62025" lon="1.30506">
        <ele>180</ele>
        <time>2022-08-02T10:28:36Z</time>
      </trkpt>
      <trkpt lat="43.62024" lon="1.30509">
        <ele>180</ele>
        <time>2022-08-02T10:28:37Z</time>
      </trkpt>
      <trkpt lat="43.62022" lon="1.30511">
        <ele>180</ele>
        <time>2022-08-02T10:28:38Z</time>
      </trkpt>
      <trkpt lat="43.6202" lon="1.30514">
        <ele>180</ele>
        <time>2022-08-02T10:28:39Z</time>
      </trkpt>
      <trkpt lat="43.62019" lon="1.30517">
        <ele>180</ele>
        <time>2022-08-02T10:28:40Z</time>
      </trkpt>
      <trkpt lat="43.62018" lon="1.30519">
        <ele>180</ele>
        <time>2022-08-02T10:28:41Z</time>
      </trkpt>
      <trkpt lat="43.62016" lon="1.30522">
        <ele>180</ele>
        <time>2022-08-02T10:28:42Z</time>
      </trkpt>
      <trkpt lat="43.62015" lon="1.30524">
        <ele>180</ele>
        <time>2022-08-02T10:28:43Z</time>
      </trkpt>
      <trkpt lat="43.62013" lon="1.30527">
        <ele>180</ele>
        <time>2022-08-02T10:28:44Z</time>
      </trkpt>
      <trkpt lat="43.62012" lon="1.30529">
        <ele>180</ele>
        <time>2022-08-02T10:28:45Z</time>
      </trkpt>
      <trkpt lat="43.6201" lon="1.30531">
        <ele>180</ele>
        <time>2022-08-02T10:28:46Z</time>
      </trkpt>
      <trkpt lat="43.62009" lon="1.30534">
        <ele>180</ele>
        <time>2022-08-02T10:28:47Z</time>
      </trkpt>
      <trkpt lat="43.62007" lon="1.30537">
        <ele>180</ele>
        <time>2022-08-02T10:28:48Z</time>
      </trkpt>
      <trkpt lat="43.62006" lon="1.3054">
        <ele>180</ele>
        <time>2022-08-02T10:28:49Z</time>
      </trkpt>
      <trkpt lat="43.62003" lon="1.30545">
        <ele>180</ele>
        <time>2022-08-02T10:28:50Z</time>
      </trkpt>
      <trkpt lat="43.62003" lon="1.30545">
        <ele>180</ele>
        <time>2022-08-02T10:28:51Z</time>
      </trkpt>
      <trkpt lat="43.62002" lon="1.30547">
        <ele>180</ele>
        <time>2022-08-02T10:28:52Z</time>
      </trkpt>
      <trkpt lat="43.62" lon="1.3055">
        <ele>180</ele>
        <time>2022-08-02T10:28:53Z</time>
      </trkpt>
      <trkpt lat="43.61998" lon="1.30553">
        <ele>180</ele>
        <time>2022-08-02T10:28:54Z</time>
      </trkpt>
      <trkpt lat="43.61996" lon="1.30555">
        <ele>180</ele>
        <time>2022-08-02T10:28:55Z</time>
      </trkpt>
      <trkpt lat="43.61995" lon="1.30558">
        <ele>180</ele>
        <time>2022-08-02T10:28:56Z</time>
      </trkpt>
      <trkpt lat="43.61993" lon="1.3056">
        <ele>180</ele>
        <time>2022-08-02T10:28:57Z</time>
      </trkpt>
      <trkpt lat="43.61992" lon="1.30562">
        <ele>180</ele>
        <time>2022-08-02T10:28:58Z</time>
      </trkpt>
      <trkpt lat="43.6199" lon="1.30565">
        <ele>180</ele>
        <time>2022-08-02T10:28:59Z</time>
      </trkpt>
      <trkpt lat="43.61988" lon="1.30567">
        <ele>181</ele>
        <time>2022-08-02T10:29:00Z</time>
      </trkpt>
      <trkpt lat="43.61986" lon="1.30569">
        <ele>181</ele>
        <time>2022-08-02T10:29:01Z</time>
      </trkpt>
      <trkpt lat="43.61985" lon="1.30571">
        <ele>181</ele>
        <time>2022-08-02T10:29:02Z</time>
      </trkpt>
      <trkpt lat="43.61983" lon="1.30573">
        <ele>181</ele>
        <time>2022-08-02T10:29:03Z</time>
      </trkpt>
      <trkpt lat="43.61981" lon="1.30575">
        <ele>181</ele>
        <time>2022-08-02T10:29:04Z</time>
      </trkpt>
      <trkpt lat="43.61979" lon="1.30577">
        <ele>181</ele>
        <time>2022-08-02T10:29:05Z</time>
      </trkpt>
      <trkpt lat="43.61977" lon="1.30579">
        <ele>181</ele>
        <time>2022-08-02T10:29:06Z</time>
      </trkpt>
      <trkpt lat="43.61976" lon="1.30581">
        <ele>181</ele>
        <time>2022-08-02T10:29:07Z</time>
      </trkpt>
      <trkpt lat="43.61974" lon="1.30583">
        <ele>181</ele>
        <time>2022-08-02T10:29:08Z</time>
      </trkpt>
      <trkpt lat="43.61972" lon="1.30585">
        <ele>181</ele>
        <time>2022-08-02T10:29:09Z</time>
      </trkpt>
      <trkpt lat="43.6197" lon="1.30588">
        <ele>181</ele>
        <time>2022-08-02T10:29:10Z</time>
      </trkpt>
      <trkpt lat="43.61969" lon="1.3059">
        <ele>181</ele>
        <time>2022-08-02T10:29:11Z</time>
      </trkpt>
      <trkpt lat="43.61967" lon="1.30592">
        <ele>181</ele>
        <time>2022-08-02T10:29:12Z</time>
      </trkpt>
      <trkpt lat="43.61965" lon="1.30595">
        <ele>181</ele>
        <time>2022-08-02T10:29:13Z</time>
      </trkpt>
      <trkpt lat="43.61963" lon="1.30597">
        <ele>181</ele>
        <time>2022-08-02T10:29:14Z</time>
      </trkpt>
      <trkpt lat="43.61961" lon="1.30599">
        <ele>181</ele>
        <time>2022-08-02T10:29:15Z</time>
      </trkpt>
      <trkpt lat="43.61959" lon="1.30602">
        <ele>181</ele>
        <time>2022-08-02T10:29:16Z</time>
      </trkpt>
      <trkpt lat="43.61958" lon="1.30605">
        <ele>181</ele>
        <time>2022-08-02T10:29:17Z</time>
      </trkpt>
      <trkpt lat="43.61956" lon="1.30607">
        <ele>181</ele>
        <time>2022-08-02T10:29:18Z</time>
      </trkpt>
      <trkpt lat="43.61954" lon="1.3061">
        <ele>181</ele>
        <time>2022-08-02T10:29:19Z</time>
      </trkpt>
      <trkpt lat="43.61952" lon="1.30613">
        <ele>181</ele>
        <time>2022-08-02T10:29:20Z</time>
      </trkpt>
      <trkpt lat="43.61951" lon="1.30616">
        <ele>181</ele>
        <time>2022-08-02T10:29:21Z</time>
      </trkpt>
      <trkpt lat="43.61949" lon="1.30619">
        <ele>181</ele>
        <time>2022-08-02T10:29:22Z</time>
      </trkpt>
      <trkpt lat="43.61947" lon="1.30622">
        <ele>181</ele>
        <time>2022-08-02T10:29:23Z</time>
      </trkpt>
      <trkpt lat="43.61945" lon="1.30624">
        <ele>181</ele>
        <time>2022-08-02T10:29:24Z</time>
      </trkpt>
      <trkpt lat="43.61944" lon="1.30627">
        <ele>181</ele>
        <time>2022-08-02T10:29:25Z</time>
      </trkpt>
      <trkpt lat="43.61942" lon="1.30629">
        <ele>181</ele>
        <time>2022-08-02T10:29:26Z</time>
      </trkpt>
      <trkpt lat="43.61941" lon="1.30632">
        <ele>181</ele>
        <time>2022-08-02T10:29:27Z</time>
      </trkpt>
      <trkpt lat="43.61939" lon="1.30635">
        <ele>181</ele>
        <time>2022-08-02T10:29:28Z</time>
      </trkpt>
      <trkpt lat="43.61937" lon="1.30638">
        <ele>181</ele>
        <time>2022-08-02T10:29:29Z</time>
      </trkpt>
      <trkpt lat="43.61935" lon="1.3064">
        <ele>181</ele>
        <time>2022-08-02T10:29:30Z</time>
      </trkpt>
      <trkpt lat="43.61933" lon="1.30643">
        <ele>181</ele>
        <time>2022-08-02T10:29:31Z</time>
      </trkpt>
      <trkpt lat="43.6193" lon="1.30645">
        <ele>181</ele>
        <time>2022-08-02T10:29:32Z</time>
      </trkpt>
      <trkpt lat="43.61928" lon="1.30648">
        <ele>181</ele>
        <time>2022-08-02T10:29:33Z</time>
      </trkpt>
      <trkpt lat="43.61926" lon="1.3065">
        <ele>181</ele>
        <time>2022-08-02T10:29:34Z</time>
      </trkpt>
      <trkpt lat="43.61924" lon="1.30653">
        <ele>181</ele>
        <time>2022-08-02T10:29:35Z</time>
      </trkpt>
      <trkpt lat="43.61922" lon="1.30655">
        <ele>181</ele>
        <time>2022-08-02T10:29:36Z</time>
      </trkpt>
      <trkpt lat="43.6192" lon="1.30658">
        <ele>180</ele>
        <time>2022-08-02T10:29:37Z</time>
      </trkpt>
      <trkpt lat="43.61918" lon="1.3066">
        <ele>180</ele>
        <time>2022-08-02T10:29:38Z</time>
      </trkpt>
      <trkpt lat="43.61916" lon="1.30661">
        <ele>180</ele>
        <time>2022-08-02T10:29:39Z</time>
      </trkpt>
      <trkpt lat="43.61913" lon="1.30661">
        <ele>180</ele>
        <time>2022-08-02T10:29:40Z</time>
      </trkpt>
      <trkpt lat="43.6191" lon="1.3066">
        <ele>180</ele>
        <time>2022-08-02T10:29:41Z</time>
      </trkpt>
      <trkpt lat="43.61908" lon="1.30659">
        <ele>180</ele>
        <time>2022-08-02T10:29:42Z</time>
      </trkpt>
      <trkpt lat="43.61905" lon="1.30657">
        <ele>181</ele>
        <time>2022-08-02T10:29:43Z</time>
      </trkpt>
      <trkpt lat="43.61903" lon="1.30656">
        <ele>181</ele>
        <time>2022-08-02T10:29:44Z</time>
      </trkpt>
      <trkpt lat="43.619" lon="1.30654">
        <ele>181</ele>
        <time>2022-08-02T10:29:45Z</time>
      </trkpt>
      <trkpt lat="43.61898" lon="1.30652">
        <ele>181</ele>
        <time>2022-08-02T10:29:46Z</time>
      </trkpt>
      <trkpt lat="43.61895" lon="1.30649">
        <ele>181</ele>
        <time>2022-08-02T10:29:47Z</time>
      </trkpt>
      <trkpt lat="43.61893" lon="1.30648">
        <ele>181</ele>
        <time>2022-08-02T10:29:48Z</time>
      </trkpt>
      <trkpt lat="43.61891" lon="1.30646">
        <ele>181</ele>
        <time>2022-08-02T10:29:49Z</time>
      </trkpt>
      <trkpt lat="43.61889" lon="1.30645">
        <ele>181</ele>
        <time>2022-08-02T10:29:50Z</time>
      </trkpt>
      <trkpt lat="43.61886" lon="1.30643">
        <ele>181</ele>
        <time>2022-08-02T10:29:51Z</time>
      </trkpt>
      <trkpt lat="43.61884" lon="1.30642">
        <ele>181</ele>
        <time>2022-08-02T10:29:52Z</time>
      </trkpt>
      <trkpt lat="43.61883" lon="1.3064">
        <ele>181</ele>
        <time>2022-08-02T10:29:53Z</time>
      </trkpt>
    </trkseg>
  </trk>
</gpx>